[[{"header":{"parameterUnit":"m.s-1","parameterCategory":1,"la1":31.0,"la2":29.5877,"lo1":-88.7671,"lo2":-86.6584,"dy":0.0162,"dx":0.0185,"nx":115,"ny":88,"refTime":"2023-04-06T00:00:00:Z","depth":0,"parameterNumber":2,"parameterNumberName":"U-component_of_WINDS"},"data":[0.0,0.0,0.0,0.0,0.0,0.0,0.0,0.0,0.0,0.0,0.0,0.0,0.0,0.0,0.0,0.0,0.0,0.0,0.0,0.0,0.0,0.0,0.0,0.0,0.0,0.0,0.0,0.0,0.0,0.0,0.0,0.0,0.0,0.0,0.0,0.0,0.0,0.0,0.0,0.0,0.0,0.0,0.0,0.0,0.0,0.0,0.0,0.0,0.0,0.0,0.0,0.0,0.0,0.0,0.0,0.0,0.0,0.0,0.0,0.0,0.0,0.0,0.0,0.0,0.0,0.0,0.0,0.0,0.0,0.0,0.0,0.0,0.0,0.0,0.0,0.0,0.0,0.0,0.0,0.0,0.0,0.0,0.0,0.0,0.0,0.0,0.0,0.0,0.0,0.0,0.0,0.0,0.0,0.0,0.0,0.0,0.0,0.0,0.0,0.0,0.0,0.0,0.0,0.0,0.0,0.0,0.0,0.0,0.0,0.0,0.0,0.0,0.0,0.0,0.0,0.0,0.0,0.0,0.0,0.0,0.0,0.0,0.0,0.0,0.0,0.0,0.0,0.0,0.0,0.0,0.0,0.0,0.0,0.0,0.0,0.0,0.0,0.0,0.0,0.0,0.0,0.0,0.0,0.0,0.0,0.0,0.0,0.0,0.0,0.0,0.0,0.0,0.0,0.0,0.0,0.0,0.0,0.0,0.0,0.0,0.0,0.0,0.0,0.0,0.0,0.0,0.0,0.0,0.0,0.0,0.0,0.0,0.0,0.0,0.0,0.0,0.0,0.0,0.0,0.0,0.0,0.0,0.0,0.0,0.0,0.0,0.0,0.0,0.0,0.0,0.0,0.0,0.0,0.0,0.0,0.0,0.0,0.0,0.0,0.0,0.0,0.0,0.0,0.0,0.0,0.0,0.0,0.0,0.0,0.0,0.0,0.0,0.0,0.0,0.0,0.0,0.0,0.0,0.0,0.0,0.0,0.0,0.0,0.0,0.0,0.0,0.0,0.0,0.0,0.0,0.0,0.0,0.0,0.0,0.0,0.0,0.0,0.0,0.0,0.0,0.0,0.0,0.0,0.0,0.0,0.0,0.0,0.0,0.0,0.0,0.0,0.0,0.0,0.0,0.0,0.0,0.0,0.0,0.0,0.0,0.0,0.0,0.0,0.0,0.0,0.0,0.0,0.0,0.0,0.0,0.0,0.0,0.0,0.0,0.0,0.0,0.0,0.0,0.0,0.0,0.0,0.0,0.0,0.0,0.0,0.0,0.0,0.0,0.0,0.0,0.0,0.0,0.0,0.0,0.0,0.0,0.0,0.0,0.0,0.0,0.0,0.0,0.0,0.0,0.0,0.0,0.0,0.0,0.0,0.0,0.0,0.0,0.0,0.0,0.0,0.0,0.0,0.0,0.0,0.0,0.0,0.0,0.0,0.0,0.0,0.0,0.0,0.0,0.0,0.0,0.0,0.0,0.0,0.0,0.0,0.0,0.0,0.0,0.0,0.0,0.0,0.0,0.0,0.0,0.0,0.0,0.0,0.0,0.0,0.0,0.0,0.0,0.0,0.0,0.0,0.0,0.0,0.0,0.0,0.0,0.0,0.0,0.0,0.0,0.0,0.0,0.0,0.0,0.0,0.0,0.0,0.0,0.0,0.0,0.0,0.0,0.0,0.0,0.0,0.0,0.0,0.0,0.0,0.0,0.0,0.0,0.0,0.0,0.0,0.0,0.0,0.0,0.0,0.0,0.0,0.0,0.0,0.0,0.0,0.0,0.0,0.0,0.0,0.0,0.0,0.0,0.0,0.0,0.0,0.0,0.0,0.0,0.0,0.0,0.0,0.0,0.0,0.0,0.0,0.0,0.0,0.0,0.0,0.0,0.0,0.0,0.0,0.0,0.0,0.0,0.0,0.0,0.0,0.0,0.0,0.0,0.0,0.0,0.0,0.0,0.0,0.0,0.0,0.0,0.0,0.0,0.0,0.0,0.0,0.0,0.0,0.0,0.0,0.0,0.0,0.0,0.0,0.0,0.0,0.0,0.0,0.0,0.0,0.0,0.0,0.0,0.0,0.0,0.0,0.0,0.0,0.0,0.0,0.0,0.0,0.0,0.0,0.0,0.0,0.0,0.0,0.0,0.0,0.0,0.0,0.0,0.0,0.0,0.0,0.0,0.0,0.0,0.0,0.0,0.0,0.0,0.0,0.0,0.0,0.0,0.0,0.0,0.0,0.0,0.0,0.0,0.0,0.0,0.0,0.0,0.0,0.0,0.0,0.0,0.0,0.0,0.0,0.0,0.0,0.0,0.0,0.0,0.0,0.0,0.0,0.0,0.0,0.0,0.0,0.0,0.0,0.0,0.0,0.0,0.0,0.0,0.0,0.0,0.0,0.0,0.0,0.0,0.0,0.0,0.0,0.0,0.0,0.0,0.0,0.0,0.0,0.0,0.0,0.0,0.0,0.0,0.0,0.0,0.0,0.0,0.0,0.0,0.0,0.0,0.0,0.0,0.0,0.0,0.0,0.0,0.0,0.0,0.0,0.0,0.0,0.0,0.0,0.0,0.0,0.0,0.0,0.0,0.0,0.0,0.0,0.0,0.0,0.0,0.0,0.0,0.0,0.0,0.0,0.0,0.0,0.0,0.0,0.0,0.0,0.0,0.0,0.0,0.0,0.0,0.0,0.0,0.0,0.0,0.0,0.0,0.0,0.0,0.0,0.0,0.0,0.0,0.0,0.0,0.0,0.0,0.0,0.0,0.0,0.0,0.0,0.0,0.0,0.0,0.0,0.0,0.0,0.0,0.0,0.0,0.0,0.0,0.0,0.0,0.0,0.0,0.0,0.0,0.0,0.0,0.0,0.0,0.0,0.0,0.0,0.0,0.0,0.0,0.0,0.0,0.0,0.0,0.0,0.0,0.0,0.0,0.0,0.0,0.0,0.0,0.0,0.0,0.0,0.0,0.0,0.0,0.0,0.0,0.0,0.0,0.0,0.0,0.0,0.0,0.0,0.0,0.0,0.0,0.0,0.0,0.0,0.0,0.0,0.0,0.0,0.0,0.0,0.0,0.0,0.0,0.0,0.0,0.0,0.0,0.0,0.0,0.0,0.0,0.0,0.0,0.0,0.0,0.0,0.0,0.0,0.0,0.0,0.0,0.0,0.0,0.0,0.0,0.0,0.0,0.0,0.0,0.0,0.0,0.0,0.0,0.0,0.0,0.0,0.0,0.0,0.0,0.0,0.0,0.0,0.0,0.0,0.0,0.0,0.0,0.0,0.0,0.0,0.0,0.0,0.0,0.0,0.0,0.0,0.0,0.0,0.0,0.0,0.0,0.0,0.0,0.0,0.0,0.0,0.0,0.0,0.0,0.0,0.0,0.0,0.0,0.0,0.0,0.0,0.0,0.0,0.0,0.0,0.0,0.0,0.0,0.0,0.0,0.0,0.0,0.0,0.0,0.0,0.0,0.0,0.0,0.0,0.0,0.0,0.0,0.0,0.0,0.0,0.0,0.0,0.0,0.0,0.0,0.0,0.0,0.0,0.0,0.0,0.0,0.0,0.0,0.0,0.0,0.0,0.0,0.0,0.0,0.0,0.0,0.0,0.0,0.0,0.0,0.0,0.0,0.0,0.0,0.0,0.0,0.0,0.0,0.0,0.0,0.0,0.0,0.0,0.0,0.0,0.0,0.0,0.0,0.0,0.0,0.0,0.0,0.0,0.0,0.0,0.0,0.0,0.0,0.0,0.0,0.0,0.0,0.0,0.0,0.0,0.0,0.0,0.0,0.0,0.0,0.0,0.0,0.0,0.0,0.0,0.0,0.0,0.0,0.0,0.0,0.0,0.0,0.0,0.0,0.0,0.0,0.0,0.0,0.0,0.0,0.0,0.0,0.0,0.0,0.0,0.0,0.0,0.0,0.0,0.0,0.0,0.0,0.0,0.0,0.0,0.0,0.0,0.0,0.0,0.0,0.0,0.0,0.0,0.0,0.0,0.0,0.0,0.0,0.0,0.0,0.0,0.0,0.0,0.0,0.0,0.0,0.0,0.0,0.0,0.0,0.0,0.0,0.0,0.0,0.0,0.0,0.0,0.0,0.0,0.0,0.0,0.0,0.0,0.0,0.0,0.0,0.0,0.0,0.0,0.0,0.0,0.0,0.0,0.0,0.0,0.0,0.0,0.0,0.0,0.0,0.0,0.0,0.0,0.0,0.0,0.0,0.0,0.0,0.0,0.0,0.0,0.0,0.0,0.0,0.0,0.0,0.0,0.0,0.0,0.0,5.3497,0.0,0.0,0.0,0.0,0.0,0.0,0.0,0.0,0.0,0.0,0.0,0.0,0.0,0.0,0.0,0.0,0.0,0.0,0.0,0.0,0.0,0.0,0.0,0.0,0.0,0.0,0.0,0.0,0.0,0.0,0.0,0.0,0.0,0.0,0.0,0.0,0.0,0.0,0.0,0.0,0.0,0.0,0.0,0.0,0.0,0.0,0.0,0.0,0.0,0.0,0.0,0.0,0.0,0.0,0.0,0.0,0.0,0.0,0.0,0.0,0.0,0.0,0.0,0.0,0.0,0.0,0.0,0.0,0.0,0.0,0.0,0.0,0.0,0.0,0.0,0.0,0.0,0.0,0.0,0.0,0.0,0.0,0.0,0.0,0.0,0.0,0.0,0.0,0.0,0.0,0.0,0.0,0.0,0.0,0.0,0.0,0.0,0.0,0.0,0.0,0.0,0.0,0.0,0.0,0.0,0.0,0.0,0.0,0.0,0.0,5.6759,5.5572,5.5007,5.4334,5.3481,0.0,0.0,0.0,0.0,0.0,0.0,0.0,0.0,0.0,0.0,0.0,0.0,0.0,0.0,0.0,0.0,0.0,0.0,0.0,0.0,0.0,0.0,0.0,0.0,0.0,0.0,0.0,0.0,0.0,0.0,0.0,0.0,0.0,0.0,0.0,0.0,0.0,0.0,0.0,0.0,0.0,0.0,0.0,0.0,0.0,0.0,0.0,0.0,0.0,0.0,0.0,0.0,0.0,0.0,0.0,0.0,0.0,0.0,0.0,0.0,0.0,0.0,0.0,0.0,0.0,0.0,0.0,0.0,0.0,0.0,0.0,0.0,0.0,0.0,0.0,0.0,0.0,0.0,0.0,0.0,0.0,0.0,0.0,0.0,0.0,0.0,0.0,0.0,0.0,0.0,0.0,0.0,0.0,0.0,0.0,0.0,0.0,0.0,0.0,0.0,0.0,0.0,0.0,0.0,0.0,0.0,0.0,0.0,0.0,0.0,0.0,0.0,5.4873,5.4387,5.3678,0.0,0.0,0.0,0.0,0.0,0.0,0.0,0.0,0.0,0.0,0.0,0.0,0.0,0.0,0.0,0.0,0.0,0.0,0.0,0.0,0.0,0.0,0.0,0.0,0.0,0.0,0.0,0.0,0.0,0.0,0.0,0.0,0.0,0.0,0.0,0.0,0.0,0.0,0.0,0.0,0.0,0.0,0.0,0.0,0.0,0.0,0.0,0.0,0.0,0.0,0.0,0.0,0.0,0.0,0.0,0.0,0.0,0.0,0.0,0.0,0.0,0.0,0.0,0.0,0.0,0.0,0.0,0.0,0.0,0.0,0.0,0.0,0.0,0.0,0.0,0.0,0.0,0.0,0.0,0.0,0.0,0.0,0.0,0.0,0.0,0.0,0.0,0.0,0.0,0.0,0.0,0.0,0.0,0.0,0.0,0.0,0.0,0.0,0.0,0.0,0.0,0.0,0.0,0.0,0.0,0.0,0.0,0.0,0.0,0.0,5.5655,5.5471,5.4686,0.0,5.3794,0.0,0.0,0.0,0.0,0.0,0.0,0.0,0.0,0.0,0.0,0.0,0.0,0.0,0.0,0.0,0.0,0.0,0.0,0.0,0.0,0.0,0.0,0.0,0.0,0.0,0.0,0.0,0.0,0.0,0.0,0.0,0.0,0.0,0.0,0.0,0.0,0.0,0.0,0.0,0.0,0.0,0.0,0.0,0.0,0.0,0.0,0.0,0.0,0.0,0.0,0.0,0.0,0.0,0.0,0.0,0.0,0.0,0.0,0.0,0.0,0.0,0.0,0.0,0.0,0.0,0.0,0.0,0.0,0.0,0.0,0.0,0.0,0.0,0.0,0.0,0.0,0.0,0.0,0.0,0.0,0.0,0.0,0.0,0.0,0.0,0.0,0.0,0.0,0.0,0.0,0.0,0.0,0.0,0.0,0.0,0.0,0.0,0.0,0.0,0.0,0.0,0.0,0.0,0.0,0.0,0.0,0.0,0.0,0.0,0.0,5.5588,5.5103,5.4593,5.3973,0.0,0.0,0.0,0.0,0.0,0.0,0.0,0.0,0.0,0.0,0.0,0.0,0.0,0.0,0.0,0.0,0.0,0.0,0.0,0.0,0.0,0.0,0.0,0.0,0.0,0.0,0.0,0.0,0.0,0.0,0.0,0.0,0.0,0.0,0.0,0.0,0.0,0.0,0.0,0.0,0.0,0.0,0.0,0.0,0.0,0.0,0.0,0.0,0.0,0.0,0.0,0.0,0.0,0.0,0.0,0.0,0.0,0.0,0.0,0.0,0.0,0.0,0.0,0.0,0.0,0.0,0.0,0.0,0.0,0.0,0.0,0.0,0.0,0.0,0.0,0.0,0.0,0.0,0.0,0.0,0.0,0.0,0.0,0.0,0.0,0.0,0.0,0.0,0.0,0.0,0.0,0.0,0.0,0.0,0.0,0.0,0.0,0.0,0.0,0.0,0.0,0.0,0.0,0.0,0.0,0.0,0.0,0.0,0.0,0.0,5.5906,5.5314,5.4527,5.4231,5.3624,5.2487,0.0,0.0,0.0,0.0,0.0,0.0,0.0,0.0,0.0,0.0,0.0,0.0,0.0,0.0,0.0,0.0,0.0,0.0,0.0,0.0,0.0,0.0,0.0,0.0,0.0,0.0,0.0,0.0,0.0,0.0,0.0,0.0,0.0,0.0,0.0,0.0,0.0,0.0,0.0,0.0,0.0,0.0,0.0,0.0,0.0,0.0,0.0,0.0,0.0,0.0,0.0,0.0,0.0,0.0,0.0,0.0,0.0,0.0,0.0,0.0,0.0,0.0,0.0,0.0,0.0,0.0,0.0,0.0,0.0,0.0,0.0,0.0,0.0,0.0,0.0,0.0,0.0,0.0,0.0,0.0,0.0,0.0,0.0,0.0,0.0,0.0,0.0,0.0,0.0,0.0,0.0,0.0,0.0,0.0,0.0,0.0,0.0,0.0,0.0,0.0,0.0,0.0,0.0,0.0,0.0,0.0,0.0,0.0,5.6369,5.5569,5.4648,5.3707,5.3558,5.2956,0.0,0.0,0.0,0.0,0.0,0.0,0.0,0.0,0.0,0.0,0.0,0.0,0.0,0.0,0.0,0.0,0.0,0.0,0.0,0.0,0.0,0.0,0.0,0.0,0.0,0.0,0.0,0.0,0.0,0.0,0.0,0.0,0.0,0.0,0.0,0.0,0.0,0.0,0.0,0.0,0.0,0.0,0.0,0.0,0.0,0.0,0.0,0.0,0.0,0.0,0.0,0.0,0.0,0.0,0.0,0.0,0.0,0.0,0.0,0.0,0.0,0.0,0.0,0.0,0.0,0.0,0.0,0.0,0.0,0.0,0.0,0.0,0.0,0.0,0.0,0.0,0.0,0.0,0.0,0.0,0.0,0.0,0.0,0.0,0.0,0.0,0.0,0.0,0.0,0.0,0.0,0.0,0.0,0.0,0.0,0.0,0.0,0.0,0.0,0.0,0.0,0.0,0.0,0.0,0.0,0.0,0.0,0.0,0.0,5.5744,5.5374,5.4721,5.385,5.3631,5.284,0.0,0.0,0.0,0.0,0.0,0.0,0.0,0.0,0.0,0.0,0.0,0.0,0.0,0.0,0.0,0.0,0.0,0.0,0.0,0.0,0.0,0.0,0.0,0.0,0.0,0.0,0.0,0.0,0.0,0.0,0.0,0.0,0.0,0.0,0.0,0.0,0.0,0.0,0.0,0.0,0.0,0.0,0.0,0.0,0.0,0.0,0.0,0.0,0.0,0.0,0.0,0.0,0.0,0.0,0.0,0.0,0.0,0.0,0.0,0.0,0.0,0.0,0.0,0.0,0.0,0.0,0.0,0.0,0.0,0.0,0.0,0.0,0.0,0.0,0.0,0.0,0.0,0.0,0.0,0.0,0.0,0.0,0.0,0.0,0.0,0.0,0.0,0.0,0.0,0.0,0.0,0.0,0.0,0.0,0.0,0.0,0.0,0.0,0.0,0.0,0.0,0.0,0.0,0.0,0.0,0.0,0.0,0.0,0.0,5.5403,0.0,5.484,5.396,5.3508,5.2627,0.0,0.0,0.0,0.0,0.0,0.0,0.0,0.0,0.0,0.0,0.0,0.0,0.0,0.0,0.0,0.0,0.0,0.0,0.0,0.0,0.0,0.0,0.0,0.0,0.0,0.0,0.0,0.0,0.0,0.0,0.0,0.0,0.0,0.0,0.0,0.0,0.0,0.0,0.0,0.0,0.0,0.0,0.0,0.0,0.0,0.0,0.0,0.0,0.0,0.0,0.0,0.0,0.0,0.0,0.0,0.0,0.0,0.0,0.0,0.0,0.0,0.0,0.0,0.0,0.0,0.0,0.0,0.0,0.0,0.0,0.0,0.0,0.0,0.0,0.0,0.0,0.0,0.0,0.0,0.0,0.0,0.0,0.0,0.0,0.0,0.0,0.0,0.0,0.0,0.0,0.0,0.0,0.0,0.0,0.0,0.0,0.0,0.0,0.0,0.0,0.0,0.0,0.0,0.0,0.0,0.0,0.0,0.0,5.5441,5.5403,5.5403,5.4957,5.4027,5.3162,5.2258,0.0,0.0,0.0,0.0,0.0,0.0,0.0,0.0,0.0,0.0,0.0,0.0,0.0,0.0,0.0,0.0,0.0,0.0,0.0,0.0,0.0,0.0,0.0,0.0,0.0,0.0,0.0,0.0,0.0,0.0,0.0,0.0,0.0,0.0,0.0,0.0,0.0,0.0,0.0,0.0,0.0,0.0,0.0,0.0,0.0,0.0,0.0,0.0,0.0,0.0,0.0,0.0,0.0,0.0,0.0,0.0,0.0,0.0,0.0,0.0,0.0,0.0,0.0,0.0,0.0,0.0,0.0,0.0,0.0,0.0,0.0,0.0,0.0,0.0,0.0,0.0,0.0,0.0,0.0,0.0,0.0,0.0,0.0,0.0,0.0,0.0,0.0,0.0,0.0,0.0,0.0,0.0,0.0,0.0,0.0,0.0,0.0,0.0,0.0,0.0,0.0,0.0,0.0,0.0,0.0,0.0,0.0,0.0,0.0,5.5403,5.5403,5.4982,5.4078,5.3188,5.2272,0.0,0.0,0.0,0.0,0.0,0.0,0.0,0.0,0.0,0.0,0.0,0.0,0.0,0.0,0.0,0.0,0.0,0.0,0.0,0.0,0.0,0.0,0.0,0.0,0.0,0.0,0.0,0.0,0.0,0.0,0.0,0.0,0.0,0.0,0.0,0.0,0.0,0.0,0.0,0.0,0.0,0.0,0.0,0.0,0.0,0.0,0.0,0.0,0.0,0.0,0.0,0.0,0.0,0.0,0.0,0.0,0.0,0.0,0.0,0.0,0.0,0.0,0.0,0.0,0.0,0.0,0.0,0.0,0.0,0.0,0.0,0.0,0.0,0.0,0.0,0.0,0.0,0.0,0.0,0.0,0.0,0.0,0.0,0.0,0.0,0.0,0.0,0.0,0.0,0.0,0.0,0.0,0.0,0.0,0.0,0.0,0.0,0.0,0.0,0.0,0.0,0.0,0.0,0.0,0.0,0.0,0.0,0.0,0.0,5.674,5.6167,5.5441,5.46,5.3671,5.2781,5.1903,0.0,0.0,0.0,0.0,0.0,0.0,0.0,0.0,0.0,0.0,0.0,0.0,0.0,0.0,0.0,0.0,0.0,0.0,0.0,0.0,0.0,0.0,0.0,0.0,0.0,0.0,0.0,0.0,0.0,0.0,0.0,0.0,0.0,0.0,0.0,0.0,0.0,0.0,0.0,0.0,0.0,0.0,0.0,0.0,0.0,0.0,0.0,0.0,0.0,0.0,0.0,0.0,0.0,0.0,0.0,0.0,0.0,0.0,0.0,0.0,0.0,0.0,0.0,0.0,0.0,0.0,0.0,0.0,0.0,0.0,0.0,0.0,0.0,0.0,0.0,0.0,0.0,0.0,0.0,0.0,0.0,0.0,0.0,0.0,0.0,0.0,0.0,0.0,0.0,0.0,0.0,0.0,0.0,0.0,0.0,0.0,0.0,0.0,0.0,0.0,0.0,0.0,0.0,0.0,0.0,0.0,0.0,0.0,5.9071,5.7619,5.6434,5.5594,5.4677,5.3709,0.0,0.0,0.0,0.0,0.0,0.0,0.0,0.0,0.0,0.0,0.0,0.0,0.0,0.0,0.0,0.0,0.0,0.0,0.0,0.0,0.0,0.0,0.0,0.0,0.0,0.0,0.0,0.0,0.0,0.0,0.0,0.0,0.0,0.0,0.0,0.0,0.0,0.0,0.0,0.0,0.0,0.0,0.0,0.0,0.0,0.0,0.0,0.0,0.0,0.0,0.0,0.0,0.0,0.0,0.0,0.0,0.0,0.0,0.0,0.0,0.0,0.0,0.0,0.0,0.0,0.0,0.0,0.0,0.0,0.0,0.0,0.0,0.0,0.0,0.0,0.0,0.0,0.0,0.0,0.0,0.0,0.0,0.0,0.0,0.0,0.0,0.0,0.0,0.0,0.0,0.0,0.0,0.0,0.0,0.0,0.0,0.0,0.0,0.0,0.0,0.0,0.0,0.0,0.0,0.0,0.0,0.0,0.0,0.0,5.9033,5.93,5.8727,5.7275,5.5823,5.46,0.0,0.0,0.0,0.0,0.0,0.0,0.0,0.0,0.0,0.0,0.0,0.0,0.0,0.0,0.0,0.0,0.0,0.0,0.0,0.0,0.0,0.0,0.0,0.0,0.0,0.0,0.0,0.0,0.0,0.0,0.0,0.0,0.0,0.0,0.0,0.0,0.0,0.0,0.0,0.0,0.0,0.0,0.0,0.0,0.0,0.0,0.0,0.0,0.0,0.0,0.0,0.0,0.0,0.0,0.0,0.0,0.0,0.0,0.0,0.0,0.0,0.0,0.0,0.0,0.0,0.0,0.0,0.0,0.0,0.0,0.0,0.0,0.0,0.0,0.0,0.0,0.0,0.0,0.0,0.0,0.0,0.0,0.0,0.0,0.0,0.0,0.0,0.0,0.0,0.0,0.0,0.0,0.0,0.0,0.0,0.0,0.0,0.0,0.0,0.0,0.0,0.0,0.0,0.0,0.0,0.0,0.0,0.0,5.8459,6.0637,6.0485,6.0102,5.9453,5.7848,5.5973,0.0,0.0,0.0,0.0,0.0,0.0,0.0,0.0,0.0,0.0,0.0,0.0,0.0,0.0,0.0,0.0,0.0,0.0,0.0,0.0,0.0,0.0,0.0,0.0,0.0,0.0,0.0,0.0,0.0,0.0,0.0,0.0,0.0,0.0,0.0,0.0,0.0,0.0,0.0,0.0,0.0,0.0,0.0,0.0,0.0,0.0,0.0,0.0,0.0,0.0,0.0,0.0,0.0,0.0,0.0,0.0,0.0,0.0,0.0,0.0,0.0,0.0,0.0,0.0,0.0,0.0,0.0,0.0,0.0,0.0,0.0,0.0,0.0,0.0,0.0,0.0,0.0,0.0,0.0,0.0,0.0,0.0,0.0,0.0,0.0,0.0,0.0,0.0,0.0,0.0,0.0,0.0,0.0,0.0,0.0,0.0,0.0,0.0,0.0,0.0,0.0,0.0,0.0,0.0,0.0,0.0,0.0,0.0,5.8689,6.2662,6.1287,6.0828,6.1402,6.0026,5.7641,0.0,0.0,0.0,0.0,0.0,0.0,0.0,0.0,0.0,0.0,0.0,0.0,0.0,0.0,0.0,0.0,0.0,0.0,0.0,0.0,0.0,0.0,0.0,0.0,0.0,0.0,0.0,0.0,0.0,0.0,0.0,0.0,0.0,0.0,0.0,0.0,0.0,0.0,0.0,0.0,0.0,0.0,0.0,0.0,0.0,0.0,0.0,0.0,0.0,0.0,0.0,0.0,0.0,0.0,0.0,0.0,0.0,0.0,0.0,0.0,0.0,0.0,0.0,0.0,0.0,0.0,0.0,0.0,0.0,0.0,0.0,0.0,0.0,0.0,0.0,0.0,0.0,0.0,0.0,0.0,0.0,0.0,0.0,0.0,0.0,0.0,0.0,0.0,0.0,0.0,0.0,0.0,0.0,0.0,0.0,0.0,0.0,0.0,0.0,0.0,0.0,0.0,0.0,0.0,0.0,0.0,0.0,0.0,5.8994,6.1784,6.1516,6.1134,6.0637,6.0293,5.8786,0.0,0.0,0.0,0.0,0.0,0.0,0.0,0.0,0.0,0.0,0.0,0.0,0.0,0.0,0.0,0.0,0.0,0.0,0.0,0.0,0.0,0.0,0.0,0.0,0.0,0.0,0.0,0.0,0.0,0.0,0.0,0.0,0.0,0.0,0.0,0.0,0.0,0.0,0.0,0.0,0.0,0.0,0.0,0.0,0.0,0.0,0.0,0.0,5.1819,0.0,0.0,0.0,0.0,0.0,0.0,0.0,0.0,0.0,0.0,0.0,0.0,0.0,0.0,0.0,0.0,0.0,0.0,0.0,0.0,0.0,0.0,0.0,0.0,0.0,0.0,0.0,0.0,0.0,0.0,0.0,0.0,0.0,0.0,0.0,0.0,0.0,0.0,0.0,0.0,0.0,0.0,0.0,0.0,0.0,0.0,0.0,0.0,0.0,0.0,0.0,0.0,0.0,0.0,0.0,0.0,0.0,0.0,0.0,5.972,6.0981,6.1822,6.1631,6.0446,5.9988,5.8557,0.0,0.0,0.0,0.0,0.0,0.0,0.0,0.0,0.0,0.0,0.0,0.0,0.0,0.0,0.0,0.0,0.0,0.0,0.0,0.0,0.0,0.0,0.0,0.0,0.0,0.0,0.0,0.0,0.0,0.0,0.0,0.0,0.0,0.0,0.0,0.0,0.0,0.0,0.0,0.0,0.0,0.0,0.0,0.0,0.0,0.0,0.0,0.0,0.0,0.0,0.0,0.0,0.0,0.0,0.0,0.0,0.0,0.0,0.0,0.0,0.0,0.0,0.0,0.0,0.0,0.0,0.0,0.0,0.0,0.0,0.0,0.0,0.0,0.0,0.0,0.0,0.0,0.0,0.0,0.0,0.0,0.0,0.0,0.0,0.0,0.0,0.0,0.0,0.0,0.0,0.0,0.0,0.0,0.0,0.0,0.0,0.0,0.0,0.0,0.0,0.0,0.0,0.0,0.0,0.0,0.0,0.0,5.8918,6.0217,6.0255,6.1707,6.1822,6.0446,5.9568,5.7908,5.5407,0.0,0.0,0.0,0.0,0.0,0.0,0.0,0.0,0.0,0.0,0.0,0.0,0.0,0.0,0.0,0.0,0.0,0.0,0.0,0.0,0.0,0.0,0.0,0.0,0.0,0.0,0.0,0.0,0.0,0.0,0.0,0.0,0.0,0.0,0.0,0.0,0.0,0.0,5.216,5.2784,0.0,0.0,0.0,0.0,0.0,0.0,0.0,0.0,5.3063,0.0,0.0,0.0,0.0,0.0,0.0,0.0,0.0,0.0,0.0,0.0,0.0,0.0,0.0,0.0,0.0,0.0,0.0,0.0,0.0,0.0,0.0,0.0,0.0,0.0,0.0,0.0,0.0,0.0,0.0,0.0,0.0,0.0,0.0,0.0,0.0,0.0,0.0,0.0,0.0,0.0,0.0,0.0,0.0,0.0,0.0,0.0,0.0,0.0,0.0,0.0,0.0,0.0,0.0,0.0,0.0,5.5632,5.8039,5.93,5.9338,6.0293,6.0676,6.037,5.9568,5.8176,5.6328,0.0,0.0,0.0,0.0,0.0,0.0,0.0,0.0,0.0,0.0,0.0,0.0,0.0,0.0,0.0,0.0,0.0,0.0,0.0,0.0,0.0,0.0,0.0,0.0,0.0,0.0,0.0,0.0,0.0,0.0,0.0,0.0,0.0,0.0,0.0,0.0,0.0,0.0,0.0,5.3115,5.3445,0.0,0.0,0.0,0.0,0.0,0.0,0.0,0.0,5.4689,0.0,0.0,0.0,0.0,0.0,0.0,0.0,0.0,0.0,0.0,0.0,0.0,0.0,0.0,0.0,0.0,0.0,0.0,0.0,0.0,0.0,0.0,0.0,0.0,0.0,0.0,0.0,0.0,0.0,0.0,0.0,0.0,0.0,0.0,0.0,0.0,0.0,0.0,0.0,0.0,0.0,0.0,0.0,0.0,0.0,0.0,0.0,0.0,0.0,0.0,0.0,0.0,0.0,0.0,0.0,5.6129,5.8039,5.9109,5.9147,5.995,5.9988,5.9109,5.8268,5.721,0.0,0.0,0.0,0.0,0.0,0.0,0.0,0.0,0.0,0.0,0.0,0.0,0.0,0.0,0.0,0.0,0.0,0.0,0.0,0.0,0.0,0.0,0.0,0.0,0.0,0.0,0.0,0.0,0.0,0.0,0.0,0.0,0.0,0.0,0.0,0.0,0.0,0.0,0.0,0.0,5.3603,5.4007,5.4363,0.0,0.0,0.0,0.0,0.0,0.0,5.4656,5.5025,0.0,0.0,0.0,0.0,0.0,0.0,0.0,0.0,0.0,0.0,0.0,0.0,0.0,0.0,0.0,0.0,0.0,0.0,0.0,0.0,0.0,0.0,0.0,0.0,0.0,0.0,0.0,0.0,0.0,0.0,0.0,0.0,0.0,0.0,0.0,0.0,0.0,0.0,0.0,0.0,0.0,0.0,0.0,0.0,0.0,0.0,0.0,0.0,0.0,0.0,0.0,0.0,0.0,0.0,0.0,5.6396,5.8192,5.9033,5.8918,5.9873,5.9682,5.8192,5.7657,5.6816,0.0,0.0,0.0,0.0,0.0,0.0,0.0,0.0,0.0,0.0,0.0,0.0,0.0,0.0,0.0,0.0,0.0,0.0,0.0,0.0,0.0,0.0,0.0,0.0,0.0,0.0,0.0,0.0,0.0,0.0,0.0,0.0,0.0,0.0,0.0,0.0,0.0,0.0,0.0,0.0,0.0,5.4344,5.4663,5.5214,0.0,0.0,0.0,0.0,5.4663,5.4976,0.0,0.0,0.0,0.0,0.0,0.0,0.0,0.0,0.0,0.0,0.0,0.0,0.0,0.0,0.0,0.0,0.0,0.0,0.0,0.0,0.0,0.0,0.0,0.0,0.0,0.0,0.0,0.0,0.0,0.0,0.0,0.0,0.0,0.0,0.0,0.0,0.0,0.0,0.0,0.0,0.0,0.0,0.0,0.0,0.0,0.0,0.0,0.0,0.0,0.0,0.0,0.0,0.0,0.0,0.0,0.0,5.567,5.7886,5.8765,5.8154,5.9568,5.995,5.8994,5.9606,5.8842,0.0,0.0,0.0,0.0,0.0,0.0,0.0,0.0,0.0,0.0,0.0,0.0,0.0,0.0,0.0,0.0,0.0,0.0,0.0,0.0,0.0,0.0,0.0,0.0,0.0,0.0,0.0,0.0,0.0,0.0,0.0,0.0,0.0,0.0,0.0,0.0,0.0,0.0,0.0,0.0,0.0,5.3981,5.5411,5.5711,5.622,0.0,0.0,5.6401,5.6218,5.5614,0.0,0.0,0.0,0.0,0.0,0.0,0.0,0.0,0.0,0.0,0.0,0.0,0.0,0.0,0.0,0.0,0.0,0.0,0.0,0.0,0.0,0.0,0.0,0.0,0.0,0.0,0.0,0.0,0.0,0.0,0.0,0.0,0.0,0.0,0.0,0.0,0.0,0.0,0.0,0.0,0.0,0.0,0.0,0.0,0.0,0.0,0.0,0.0,0.0,0.0,0.0,0.0,0.0,0.0,0.0,5.5479,5.6091,5.716,5.7963,5.8536,5.8842,5.8803,5.8421,5.8803,5.8001,0.0,0.0,0.0,0.0,0.0,0.0,0.0,0.0,0.0,0.0,0.0,0.0,0.0,0.0,0.0,0.0,0.0,0.0,0.0,0.0,0.0,0.0,0.0,0.0,0.0,0.0,0.0,0.0,0.0,0.0,0.0,0.0,0.0,0.0,0.0,0.0,0.0,0.0,0.0,0.0,0.0,0.0,5.6356,5.6491,0.0,0.0,0.0,5.6226,5.6575,0.0,0.0,0.0,0.0,0.0,0.0,0.0,0.0,0.0,0.0,0.0,0.0,0.0,0.0,0.0,0.0,0.0,0.0,0.0,0.0,0.0,0.0,0.0,0.0,0.0,0.0,0.0,0.0,0.0,0.0,0.0,0.0,0.0,0.0,0.0,0.0,0.0,0.0,0.0,0.0,0.0,0.0,0.0,0.0,0.0,0.0,0.0,0.0,0.0,0.0,0.0,0.0,0.0,0.0,0.0,0.0,0.0,5.6282,5.6702,5.7428,5.8421,5.8307,5.8001,5.7581,5.7772,0.0,0.0,0.0,0.0,0.0,0.0,0.0,0.0,0.0,0.0,0.0,0.0,0.0,0.0,0.0,0.0,0.0,0.0,0.0,0.0,0.0,0.0,0.0,0.0,0.0,0.0,0.0,4.8958,0.0,0.0,0.0,0.0,0.0,0.0,0.0,0.0,0.0,0.0,0.0,0.0,0.0,0.0,5.5317,5.6796,5.6973,5.7069,0.0,0.0,5.5809,5.6124,5.472,5.4228,0.0,0.0,0.0,0.0,0.0,0.0,0.0,0.0,0.0,0.0,0.0,0.0,0.0,0.0,0.0,0.0,0.0,0.0,0.0,0.0,0.0,0.0,0.0,0.0,0.0,0.0,0.0,0.0,0.0,0.0,0.0,0.0,0.0,0.0,0.0,0.0,0.0,0.0,0.0,0.0,0.0,0.0,0.0,0.0,0.0,0.0,0.0,0.0,0.0,0.0,0.0,0.0,0.0,0.0,0.0,5.5517,5.7008,5.7466,5.6855,5.823,5.8268,5.6778,5.7466,5.7122,0.0,0.0,0.0,0.0,0.0,0.0,0.0,0.0,0.0,0.0,0.0,0.0,0.0,0.0,0.0,0.0,0.0,0.0,0.0,0.0,0.0,0.0,0.0,0.0,0.0,0.0,0.0,0.0,0.0,0.0,0.0,0.0,0.0,0.0,0.0,0.0,0.0,0.0,0.0,0.0,0.0,5.494,5.659,5.6705,5.6518,0.0,0.0,5.5697,5.4569,5.3676,5.3646,5.5427,0.0,0.0,0.0,0.0,0.0,0.0,0.0,0.0,0.0,0.0,0.0,0.0,0.0,0.0,0.0,0.0,0.0,0.0,0.0,0.0,0.0,0.0,0.0,0.0,0.0,0.0,0.0,0.0,0.0,0.0,0.0,0.0,0.0,0.0,0.0,0.0,0.0,0.0,0.0,0.0,0.0,0.0,0.0,0.0,0.0,0.0,0.0,0.0,0.0,0.0,0.0,0.0,0.0,5.567,5.6129,5.7313,5.7734,5.7428,5.8039,5.8039,5.7428,5.7199,5.6816,0.0,0.0,0.0,0.0,0.0,0.0,0.0,0.0,0.0,0.0,0.0,0.0,0.0,0.0,0.0,0.0,0.0,0.0,0.0,0.0,0.0,0.0,0.0,0.0,0.0,0.0,0.0,0.0,5.0107,5.0259,5.0259,0.0,0.0,0.0,0.0,0.0,0.0,0.0,0.0,0.0,0.0,5.5065,5.6688,5.6394,0.0,0.0,5.5996,5.5581,5.5609,5.4737,5.4649,5.6483,5.6742,0.0,0.0,0.0,0.0,0.0,0.0,0.0,0.0,0.0,0.0,0.0,0.0,0.0,0.0,0.0,0.0,0.0,0.0,0.0,0.0,0.0,0.0,0.0,0.0,0.0,0.0,0.0,0.0,0.0,0.0,0.0,0.0,0.0,0.0,0.0,0.0,0.0,0.0,0.0,0.0,0.0,0.0,0.0,0.0,0.0,0.0,0.0,0.0,0.0,0.0,0.0,0.0,5.5785,5.6587,5.7466,5.7772,5.7504,5.7772,5.7772,5.7504,5.6702,5.6243,0.0,0.0,0.0,0.0,0.0,0.0,0.0,0.0,0.0,0.0,0.0,0.0,0.0,0.0,0.0,0.0,0.0,0.0,0.0,0.0,0.0,0.0,0.0,0.0,0.0,0.0,0.0,0.0,5.0283,5.0283,5.0283,0.0,0.0,0.0,0.0,0.0,0.0,0.0,0.0,0.0,0.0,5.5352,5.6916,5.6587,5.6338,5.6873,5.6476,5.6182,5.6444,5.5765,5.5683,5.6958,0.0,0.0,0.0,0.0,0.0,0.0,0.0,0.0,0.0,0.0,0.0,0.0,0.0,0.0,0.0,0.0,0.0,0.0,0.0,0.0,0.0,0.0,0.0,0.0,0.0,0.0,0.0,0.0,0.0,0.0,6.037,0.0,0.0,0.0,0.0,0.0,0.0,0.0,0.0,0.0,0.0,0.0,0.0,0.0,0.0,0.0,0.0,0.0,0.0,0.0,0.0,0.0,0.0,0.0,5.6587,5.7466,5.7504,5.6702,5.7466,5.7504,5.6702,5.5861,5.5441,5.5441,0.0,0.0,0.0,0.0,0.0,0.0,0.0,0.0,0.0,0.0,0.0,0.0,0.0,0.0,0.0,0.0,0.0,0.0,0.0,0.0,0.0,0.0,0.0,0.0,0.0,0.0,5.0283,5.0283,5.0283,0.0,0.0,0.0,0.0,0.0,0.0,0.0,0.0,0.0,0.0,5.5701,5.5767,5.7329,5.7536,5.727,5.7116,5.7592,5.7677,5.6631,5.6444,5.6406,0.0,0.0,0.0,0.0,0.0,0.0,0.0,0.0,0.0,0.0,0.0,0.0,0.0,0.0,0.0,0.0,0.0,0.0,0.0,0.0,0.0,0.0,0.0,0.0,0.0,0.0,0.0,6.2051,6.2013,0.0,0.0,0.0,0.0,0.0,0.0,0.0,0.0,0.0,0.0,0.0,5.8345,5.8842,0.0,0.0,0.0,0.0,0.0,0.0,0.0,0.0,0.0,0.0,0.0,0.0,5.6625,5.7428,5.7734,5.7772,5.7466,5.7734,5.7772,5.7466,5.6129,5.5403,5.5403,0.0,0.0,0.0,0.0,0.0,0.0,0.0,0.0,0.0,0.0,0.0,0.0,0.0,0.0,0.0,0.0,0.0,0.0,0.0,0.0,0.0,0.0,0.0,0.0,0.0,5.0283,0.0,0.0,0.0,0.0,0.0,0.0,0.0,0.0,0.0,0.0,0.0,5.5096,5.5668,5.5439,5.5603,5.6692,5.6825,5.6738,0.0,0.0,0.0,0.0,0.0,0.0,0.0,0.0,0.0,0.0,0.0,0.0,0.0,0.0,5.6966,5.7491,5.7043,5.6594,5.6556,0.0,0.0,0.0,0.0,0.0,0.0,0.0,0.0,0.0,0.0,0.0,0.0,0.0,0.0,0.0,0.0,6.2051,0.0,0.0,0.0,0.0,0.0,0.0,0.0,0.0,5.9185,5.8727,5.7466,5.8001,5.7963,0.0,5.7734,5.8154,0.0,0.0,0.0,0.0,0.0,0.0,0.0,0.0,5.716,5.823,5.8039,5.7886,5.7886,5.7886,5.7886,5.7848,5.6282,5.5403,5.5403,5.5899,5.5938,0.0,0.0,0.0,0.0,0.0,0.0,0.0,0.0,0.0,0.0,0.0,0.0,0.0,0.0,0.0,0.0,0.0,0.0,0.0,0.0,0.0,0.0,0.0,5.1162,0.0,0.0,0.0,0.0,0.0,0.0,0.0,0.0,0.0,5.4562,5.5288,5.5708,5.5441,5.5248,5.5576,5.6785,0.0,0.0,0.0,0.0,0.0,0.0,0.0,5.848,5.871,5.8487,5.8076,5.7476,5.7178,5.6993,5.6993,0.0,0.0,5.7525,5.7154,5.6706,5.6706,5.6669,5.6631,5.6518,5.648,5.6403,0.0,0.0,0.0,0.0,0.0,0.0,0.0,0.0,6.144,6.1402,0.0,6.228,0.0,0.0,0.0,0.0,0.0,0.0,0.0,0.0,5.6358,5.5938,5.6587,5.6664,5.6625,5.6664,5.7428,5.781,5.7734,5.6969,0.0,0.0,0.0,0.0,0.0,0.0,5.7466,5.8956,5.8268,5.7886,5.7886,5.7886,5.7848,5.7772,5.6243,5.5403,5.5403,5.5403,5.5403,5.5403,5.5365,0.0,0.0,0.0,0.0,0.0,0.0,0.0,0.0,0.0,0.0,0.0,0.0,0.0,0.0,0.0,0.0,0.0,0.0,0.0,0.0,5.2384,0.0,0.0,0.0,0.0,0.0,0.0,0.0,0.0,0.0,0.0,5.5441,5.6129,5.6358,5.5594,0.0,0.0,0.0,0.0,5.7194,5.9574,5.9931,5.983,5.9792,5.9019,5.8094,5.7239,0.0,0.0,5.5819,5.6455,5.6941,5.7012,5.6267,5.5973,5.6697,5.6737,5.6737,5.6737,5.659,5.6593,5.663,5.6407,5.6407,6.1936,0.0,0.0,0.0,0.0,6.3197,6.3312,6.3159,6.3962,6.4191,6.3962,6.3847,0.0,0.0,0.0,0.0,0.0,0.0,5.8345,5.7046,5.7695,5.7542,5.6625,5.7237,5.7199,5.6625,5.6855,5.6664,5.6129,5.5861,5.674,5.8765,0.0,0.0,0.0,0.0,5.8345,5.823,5.8001,5.7886,5.7886,5.7886,5.7351,5.6167,5.567,5.5403,5.5403,5.5403,5.5403,5.5403,5.5403,0.0,0.0,0.0,0.0,0.0,0.0,0.0,0.0,0.0,0.0,0.0,0.0,0.0,0.0,0.0,0.0,0.0,0.0,0.0,5.2422,5.3225,5.3454,0.0,0.0,0.0,0.0,0.0,0.0,0.0,0.0,0.0,5.6202,5.6943,5.7466,0.0,0.0,5.7406,5.8501,5.7756,5.7339,5.799,0.0,0.0,0.0,5.6781,5.6743,5.705,5.638,5.5785,5.5785,5.545,5.5153,5.5153,5.4514,5.418,5.4934,5.5122,5.5122,5.5122,5.5088,5.505,5.505,5.5053,5.5018,6.293,6.335,6.2662,6.2395,6.2471,6.3312,6.3465,6.3236,6.4038,6.442,6.442,6.4267,6.4191,6.4153,6.3121,0.0,0.0,0.0,5.8536,5.6664,5.8001,5.8077,5.7199,5.7657,5.7619,5.7122,5.7122,5.6702,5.5899,5.6549,5.7466,5.8612,0.0,0.0,5.9109,5.8459,5.8192,5.8345,5.7734,5.7542,5.7886,5.7542,5.674,5.5479,5.5403,5.5403,5.5403,5.5403,5.5403,5.5403,5.5403,5.5403,0.0,0.0,0.0,0.0,0.0,0.0,0.0,0.0,0.0,0.0,0.0,5.0818,0.0,0.0,0.0,0.0,5.2982,5.3847,5.3872,5.4943,0.0,0.0,0.0,0.0,0.0,0.0,0.0,5.5275,5.6026,5.6507,5.6491,5.7298,5.7592,5.6889,5.6369,5.6387,5.7301,0.0,5.5693,5.6715,5.65,5.6134,5.5918,5.5282,5.4942,5.5028,5.4618,5.4434,5.4698,5.4029,5.3658,5.4108,5.3733,5.3433,5.4259,5.4409,5.4409,5.4409,5.4409,5.4409,5.4409,5.4409,5.4409,6.4458,6.4229,6.251,6.1784,6.1784,6.2624,6.2548,6.1898,6.2739,6.3083,6.3159,6.3847,6.4153,6.4076,6.4,0.0,6.037,6.0255,5.8918,5.674,5.7542,5.7925,5.8001,5.8001,5.8001,5.8001,5.8001,5.7542,5.6816,5.823,5.8689,5.8077,5.7199,5.7619,5.9033,5.7695,5.7619,5.9071,5.7581,5.7122,5.7772,5.6931,5.6129,5.5441,5.5403,5.5403,5.5403,5.5403,5.5403,5.5403,5.5403,5.5403,5.5403,0.0,0.0,0.0,0.0,0.0,0.0,0.0,0.0,0.0,0.0,0.0,0.0,0.0,0.0,0.0,5.4178,0.0,5.5499,5.6942,0.0,0.0,0.0,5.6282,5.5479,5.5403,5.5351,5.5244,0.0,0.0,5.6369,0.0,5.708,5.5303,5.4238,5.4027,5.5047,5.3669,5.318,5.5572,5.5163,5.4836,5.5227,5.4188,5.2967,5.2188,5.1931,5.2419,5.2982,5.2644,5.2719,5.3846,5.3508,5.3245,5.4108,5.4183,5.4259,5.4334,5.4409,5.4409,5.4409,5.4409,5.4409,6.6674,6.5948,6.4267,6.3197,6.2662,6.3503,6.377,6.3656,6.4458,6.4802,6.4764,6.4382,6.3809,6.3197,6.251,6.1554,6.0332,5.9071,5.8192,5.7619,5.781,5.823,5.8803,5.8803,5.8803,5.8803,5.8803,5.8383,5.7619,5.7963,5.8727,5.972,5.8918,5.9033,6.0026,5.9682,5.9376,5.9109,5.8727,5.8001,5.6931,5.6091,5.5594,5.5403,5.5403,5.5403,5.5403,5.5403,5.5403,5.5403,5.5403,5.5403,5.5403,5.5403,0.0,0.0,0.0,0.0,0.0,0.0,0.0,0.0,0.0,5.2594,5.2679,0.0,5.4618,0.0,5.5719,5.6154,5.5492,5.5798,0.0,0.0,5.5708,5.5657,5.5402,5.5301,5.553,5.6307,5.6355,5.6302,5.6235,5.6375,5.6118,5.5093,5.5379,5.575,5.5882,5.43,5.3308,5.383,5.3245,5.2666,5.2855,5.2559,5.1925,5.1104,5.2006,5.2719,5.2268,5.2606,5.2832,5.2531,5.1855,5.1893,5.3245,5.2944,5.3057,5.4071,5.4409,5.4409,5.4409,5.4409,5.4409,6.8547,6.7706,6.6369,6.5796,6.5643,6.4649,6.4191,6.4229,6.4688,6.507,6.5375,6.4917,6.4458,6.3962,6.3121,6.2089,6.0905,5.995,5.9147,5.8498,5.9185,5.9797,6.0217,6.0217,6.0217,6.0217,5.9873,5.9262,5.8459,5.8421,5.8727,5.9262,5.8803,5.9185,6.0332,6.037,6.0332,6.0217,5.9453,5.8307,5.6664,5.5823,5.5747,5.6473,5.6129,5.6282,5.7008,5.6702,5.6511,5.6511,5.6511,5.6511,5.6511,5.6511,5.6511,0.0,0.0,0.0,0.0,0.0,0.0,0.0,0.0,0.0,0.0,0.0,5.5523,0.0,5.6242,5.6499,5.6078,5.6384,5.6435,5.6027,5.5976,5.5848,5.5454,5.5326,5.5492,5.6002,5.5935,5.5826,5.5731,5.5741,5.5379,5.4457,5.4477,5.4582,5.4381,5.2885,5.1789,5.209,5.1431,5.0842,5.0842,5.0842,5.0691,5.0353,5.0954,5.148,5.1367,5.1442,5.1593,5.1818,5.1518,5.163,5.2869,5.2832,5.2832,5.347,5.3545,5.3583,5.4259,5.4409,5.4409,7.0151,6.9425,6.847,6.8432,6.8776,6.5796,6.4688,6.4993,6.4993,6.5222,6.5566,6.5452,6.5337,6.5184,6.4496,6.335,6.1936,6.1822,6.0981,5.972,6.1096,6.1745,6.1784,6.1745,6.1745,6.1745,6.0943,6.0179,5.9453,5.9338,5.9033,5.8536,5.8421,5.9224,6.079,6.0752,6.1019,6.1554,6.0064,5.8498,5.6969,5.6434,5.6855,5.8116,5.7466,5.7734,5.9033,5.8421,5.8001,5.7886,5.7886,5.7848,5.7734,5.7734,5.7695,0.0,5.7634,0.0,0.0,0.0,0.0,0.0,0.0,0.0,0.0,5.5614,5.5677,5.5653,5.6294,5.6677,5.6611,5.7301,5.7454,5.6613,5.6537,5.6244,5.5479,5.5403,5.5351,5.5168,5.5286,5.5286,5.5178,5.526,5.4928,5.3898,5.311,5.2645,5.2182,5.0824,4.9934,5.0466,4.994,4.9678,4.964,4.9602,4.9565,4.9527,4.979,4.9828,5.0466,5.0166,5.0128,5.1255,5.1555,5.1968,5.2869,5.3057,5.317,5.3207,5.2719,5.2682,5.3808,5.4183,5.4259,7.1374,7.1068,6.9578,6.8623,6.8012,6.6789,6.7362,6.9234,6.9234,6.8165,6.6445,6.5719,6.5031,6.442,6.4267,6.4038,6.3656,6.2968,6.2471,6.2204,6.251,6.2662,6.2662,6.2662,6.2662,6.2586,6.1784,6.1287,6.1134,6.0446,6.0752,6.1898,6.1249,6.1745,6.335,0.0,0.0,0.0,6.0637,5.9644,5.8727,5.9797,6.0255,5.995,5.9759,0.0,5.9109,5.8956,5.8574,5.7963,5.7886,0.0,0.0,0.0,0.0,0.0,0.0,0.0,0.0,0.0,0.0,0.0,5.6534,5.6252,5.5576,5.6137,5.6534,5.6485,5.66,5.6397,5.576,5.5811,5.5849,5.5696,5.5658,5.5556,5.5403,5.5403,5.5377,5.5377,5.526,5.514,5.5102,5.5102,5.4775,5.3963,5.3188,5.2374,5.1585,5.0354,4.9565,4.9678,4.9602,4.949,4.949,4.949,4.949,4.9565,5.0091,5.0241,4.9865,5.0203,5.0166,5.0166,5.0504,5.1217,5.2006,5.2682,5.3095,5.317,5.2982,5.3057,5.3357,5.3433,5.362,7.2062,0.0,7.0304,6.9769,0.0,6.9349,7.0113,7.1489,6.9005,6.7247,6.6063,6.5605,6.5184,6.484,6.5643,6.5796,6.5452,6.5834,6.5337,6.4191,6.4573,6.4344,6.3541,6.3541,6.3541,6.3503,6.2662,6.2242,6.2204,6.1822,6.2089,6.2892,6.2013,6.2051,6.2853,6.2089,6.1631,6.1593,6.079,5.9797,5.8574,5.8918,5.9147,5.9147,0.0,0.0,0.0,0.0,0.0,0.0,0.0,0.0,0.0,0.0,0.0,5.6664,5.6652,5.646,5.6014,5.6053,5.6039,5.6066,5.6091,5.6102,5.6089,5.6102,5.6116,5.6066,5.6066,5.5887,5.5441,5.5403,5.5403,5.5403,5.5403,5.5403,5.5403,5.544,5.5514,5.5514,5.5427,5.5364,5.5423,5.4968,5.4369,5.366,5.2801,5.1905,5.0812,5.0089,4.9625,4.9521,4.949,4.949,4.949,4.949,4.949,4.9565,4.9828,4.9903,4.9565,4.9828,4.994,4.964,5.0166,5.0842,5.1217,5.1668,5.1931,5.1931,5.163,5.1555,5.1855,5.2268,5.2644,7.2559,7.1833,7.0992,7.0954,7.145,7.1298,7.1489,7.1603,0.0,0.0,0.0,6.5528,6.5413,6.549,6.6827,6.7095,6.656,6.7897,6.74,6.5452,6.6139,6.5719,6.442,6.4382,6.4382,6.4382,6.3541,6.3121,6.3121,6.2968,6.2892,6.2853,6.2166,6.1745,6.1593,6.0943,6.0867,6.1363,6.1019,6.0026,5.8383,5.7925,5.7925,5.8345,5.7657,5.7848,5.9033,5.8459,5.8039,5.7886,5.7886,5.7848,5.7695,5.7657,5.7619,5.7466,5.7519,5.7213,5.6434,5.641,5.6142,5.5441,5.5403,5.5696,5.6397,5.5811,5.5403,5.5403,5.5403,5.5403,5.5403,5.5403,5.5403,5.5454,5.5415,5.5454,5.5465,5.557,5.5621,5.5621,5.5621,5.5609,5.548,5.486,5.401,5.3089,5.2358,5.1449,5.0302,4.9868,4.9683,4.9551,4.949,4.949,4.949,4.949,4.949,4.949,4.9527,4.949,4.949,4.949,4.949,4.9527,5.0166,5.0616,5.0729,5.0954,5.0842,5.0729,5.0166,4.9865,5.0353,5.0992,5.1555,7.2941,7.275,7.1871,7.1145,7.0533,6.9846,6.8814,6.7668,6.8317,6.8241,6.7439,6.6025,6.5413,6.5413,6.5643,6.5681,6.5605,6.5834,6.5719,0.0,6.5528,6.5452,6.5222,6.5222,6.5222,6.5184,6.4382,6.4,6.3923,6.3274,6.2892,6.293,6.2777,6.2357,6.1669,6.1478,6.1134,6.0637,6.1898,6.1745,6.0102,6.1325,6.1363,6.0102,5.9835,5.9606,5.9109,5.8956,5.8612,5.7925,5.7886,5.7581,5.6816,5.6778,5.6473,5.5823,5.5747,5.5708,5.5594,5.5556,5.5517,5.5441,5.5403,5.5441,5.5556,5.5441,5.5403,5.5403,5.5403,5.5403,5.5403,5.5403,5.5415,5.5547,5.557,5.5599,5.5728,5.573,5.575,5.575,5.5769,5.5461,5.492,5.461,5.3932,5.273,5.215,5.1708,5.0636,4.9895,4.9544,4.949,4.949,4.949,4.949,4.949,4.949,4.949,4.949,4.949,4.949,4.949,4.949,4.949,5.0091,5.0541,5.0654,5.1292,5.118,5.0729,5.0391,5.0278,4.9865,4.9903,5.0347,7.3667,7.3476,7.2253,7.1489,7.103,7.019,6.9158,6.8088,6.8356,6.7744,6.6522,6.5719,6.5413,6.549,6.633,6.6751,6.6789,6.7706,6.763,6.6789,6.6751,6.6254,6.5452,6.5413,6.5413,6.5375,6.5031,6.484,6.4802,6.4458,6.4267,6.4229,6.3847,6.3159,6.2357,6.1822,6.144,6.1058,6.1363,6.0752,5.9109,5.9797,5.9376,5.7734,5.7657,5.7504,5.7122,5.7084,5.6931,5.6549,5.6549,5.6358,5.5976,5.5938,5.5785,5.5441,5.5403,5.5403,5.5403,5.5403,5.5403,5.5403,5.5403,5.5403,5.5403,5.5403,5.5403,5.5403,5.5403,5.5403,5.5403,5.5403,5.5428,5.549,5.549,5.5547,5.5665,5.575,5.5827,5.5861,5.5531,5.5122,5.48,5.3933,5.3213,5.2327,5.1842,5.112,5.0567,5.0076,4.9692,4.9604,4.9551,4.949,4.949,4.949,4.949,4.949,4.949,4.949,4.949,4.949,4.949,4.949,4.9828,5.0016,5.0053,5.0316,5.0353,5.0241,5.0053,4.9828,4.9565,4.9574,4.9897,7.4201,7.4049,7.2597,7.1871,7.1603,7.0572,6.9769,6.912,6.8279,6.7171,6.6025,6.5566,6.5413,6.5528,6.6751,6.7324,6.7515,6.8699,6.8547,6.74,6.7324,6.6636,6.5528,6.5413,6.5413,6.5413,6.5413,6.5413,6.5413,6.5413,6.5413,6.5337,6.4764,6.4038,6.3197,6.2319,6.1784,6.1593,6.0828,5.9568,5.7963,5.7886,5.7122,5.5556,5.5403,5.5403,5.5403,5.5403,5.5403,5.5403,5.5403,5.5403,5.5403,5.5403,5.5403,5.5403,5.5403,5.5403,5.5403,5.5403,5.5403,5.5403,5.5403,5.5403,5.5403,5.5403,5.5403,5.5403,5.5403,5.5403,5.5403,5.5403,5.5403,5.5454,5.5415,5.5523,5.5665,5.5769,5.59,5.5978,5.5505,5.5109,5.4543,5.3455,5.251,5.2046,5.1215,5.0642,5.051,5.023,4.9986,4.9807,4.9634,4.9551,4.9551,4.9521,4.949,4.949,4.949,4.949,4.949,4.949,4.949,4.949,4.949,4.9565,4.9527,4.9565,4.9602,4.9565,4.9602,4.9527,4.9527,4.9655,4.9721,7.4201,7.4087,7.3208,7.2406,7.1489,6.9999,6.9311,6.912,6.8279,6.7821,6.7515,6.6101,6.5413,6.5413,6.5643,6.5757,6.5719,6.5796,6.5872,6.5719,6.5643,6.5528,6.5413,6.5413,6.5413,6.5413,6.5413,6.5413,6.5413,6.5413,6.5413,6.5413,6.5337,6.4879,6.4076,6.3197,6.2395,6.1593,6.0828,5.9568,5.8001,5.7886,5.7122,5.5441,5.5403,5.5403,5.5403,5.5403,5.5403,5.5403,5.5403,5.5403,5.5403,5.5403,5.5403,5.5403,5.5403,5.5403,5.5403,5.5403,5.5403,5.5403,5.5403,5.5403,5.5403,5.5403,5.5403,5.5403,5.5403,5.5403,5.5403,5.5403,5.5415,5.5523,5.5547,5.5686,5.5882,5.5968,5.6033,5.6226,5.6071,5.5579,5.4194,5.3482,5.286,5.1695,5.1203,5.0835,5.0696,5.043,5.0245,5.0063,4.9862,4.9692,4.9663,4.9582,4.9521,4.949,4.949,4.949,4.949,4.949,4.949,4.949,4.949,4.949,4.949,4.949,4.949,4.949,4.949,4.9521,4.9521,4.9712,4.9803,7.4201,7.4087,7.2788,7.1718,7.0877,7.019,6.9922,6.9846,6.9005,6.8661,6.847,6.6904,6.6178,6.6178,6.6178,6.591,6.5413,6.5413,6.5413,6.5413,6.5413,6.5413,6.5413,6.5413,6.5413,6.5413,6.5413,6.5413,6.5413,6.5413,6.5413,6.5413,6.5413,6.5222,6.4802,6.3579,6.2739,6.2357,6.1058,5.9835,5.8727,5.8154,5.7122,5.5594,5.5403,5.5403,5.5403,5.5403,5.5403,5.5403,5.5403,5.5403,5.5403,5.5403,5.5403,5.5403,5.5465,5.5547,5.5621,5.557,5.5538,5.5538,5.5479,5.5403,5.5403,5.5403,5.5403,5.5403,5.5403,5.5403,5.5403,5.5403,5.5428,5.5465,5.549,5.5593,5.5845,5.5882,5.6007,5.6226,5.5825,5.5126,5.3844,5.2795,5.2212,5.1773,5.1463,5.1029,5.089,5.0678,5.0489,5.0336,5.0125,4.9868,4.975,4.9612,4.9521,4.949,4.949,4.949,4.949,4.949,4.949,4.949,4.949,4.949,4.949,4.949,4.949,4.9521,4.9625,4.9646,4.9712,4.9987,5.023,7.4201,7.3934,7.2406,7.1489,7.1068,7.061,7.0419,7.0342,6.9769,6.954,6.9387,6.8241,6.7591,6.7286,6.6674,6.5987,6.5452,6.5413,6.5413,6.5413,6.5413,6.5413,6.5413,6.5413,6.5413,6.5413,6.5413,6.5413,6.5413,6.5413,6.5413,6.5413,6.5413,6.5413,6.5222,6.3732,6.2892,6.2777,6.1249,5.9988,5.9109,5.8307,5.7199,5.5861,5.5517,5.5403,5.5403,5.5403,5.5403,5.5403,5.5403,5.5403,5.5403,5.5403,5.5428,5.5465,5.5593,5.5707,5.5789,5.5686,5.5615,5.5593,5.5465,5.5403,5.5403,5.5403,5.5403,5.5403,5.5403,5.5403,5.5403,5.5403,5.5403,5.5403,5.5428,5.5547,5.575,5.5827,5.599,5.6187,5.5864,5.5048,5.4116,5.295,5.2212,5.2239,5.18,5.1383,5.1315,5.1238,5.1099,5.0894,5.0708,5.0316,4.9872,4.9612,4.9521,4.949,4.949,4.949,4.949,4.949,4.949,4.949,4.949,4.949,4.949,4.949,4.9544,4.9604,4.9703,4.9857,4.991,5.0298,5.0527,7.4201,7.3972,7.2406,7.2062,7.2711,7.1107,7.0419,7.0419,7.0342,7.0342,7.0304,7.0113,6.9769,6.8852,6.6713,6.549,6.5413,6.5452,6.5452,6.5413,6.5413,6.5413,6.5413,6.5413,6.5413,6.5528,6.5528,6.5452,6.5413,6.5413,6.5413,6.5413,6.5413,6.5413,6.5184,6.3732,6.293,6.2739,6.1249,5.9988,5.9147,5.8345,5.7466,5.6587,5.5785,5.5403,5.5403,5.5403,5.5403,5.5403,5.5403,5.5403,5.5403,5.5403,5.5465,5.5615,5.5728,5.5789,5.5789,5.5707,5.5638,5.5593,5.5514,5.5403,5.5428,5.5403,5.5403,5.5403,5.539,5.5428,5.5428,5.5428,5.5403,5.539,5.5499,5.5643,5.5789,5.5917,5.6071,5.6226,5.6097,5.5709,5.5009,5.4155,5.3222,5.2756,5.2394,5.2292,5.2211,5.2143,5.2066,5.1833,5.1587,5.1223,5.0176,4.9721,4.9582,4.949,4.949,4.949,4.949,4.949,4.949,4.949,4.949,4.949,4.949,4.9582,4.9655,4.9731,4.983,4.9949,5.0159,5.0385,5.0587,7.3896,7.3284,7.1603,7.1374,7.1985,7.0916,7.0419,7.0419,7.0419,7.0419,7.0304,6.9846,6.9464,6.912,6.7668,6.6713,6.6254,6.6254,6.5948,6.5452,6.5413,6.5413,6.5452,6.5948,6.6254,6.6216,6.6216,6.5948,6.5413,6.5413,6.5413,6.5413,6.5413,6.5413,6.5108,6.3732,6.2892,6.2739,6.1249,6.0217,5.9797,5.8612,5.7734,5.739,5.6091,5.5403,5.5403,5.5403,5.5403,5.5403,5.5403,5.5415,5.5538,5.5638,5.5728,5.5827,5.59,5.5968,5.6071,5.5973,5.5808,5.5748,5.5577,5.5523,5.5499,5.544,5.5465,5.5615,5.557,5.557,5.5577,5.5476,5.5415,5.5499,5.5593,5.5707,5.5864,5.5968,5.6087,5.6149,5.5864,5.5514,5.5514,5.4582,5.3844,5.396,5.3572,5.3249,5.3185,5.3171,5.2937,5.2291,5.1983,5.153,5.044,4.9936,4.9683,4.9544,4.949,4.9521,4.9521,4.9521,4.9551,4.9551,4.9521,4.9634,4.9655,4.9841,4.9948,5.0012,5.0097,5.023,5.0427,5.0625,5.0717,7.4125,7.3208,7.1833,7.1412,7.1565,7.0763,7.0419,7.0419,7.0419,7.0419,7.0304,6.9807,6.9578,6.9502,6.8967,6.8279,6.7515,6.7209,6.6751,6.6254,6.6216,6.6178,6.6292,6.6827,6.7095,6.7056,6.6827,6.6254,6.549,6.5413,6.5413,6.5413,6.5413,6.5413,6.5108,6.3732,6.2892,6.2586,6.1249,6.037,6.0179,5.8765,5.7886,5.7657,5.6282,5.5403,5.5403,5.5403,5.5403,5.5403,5.5454,5.5499,5.5665,5.5789,5.59,5.5985,5.6033,5.6117,5.6185,5.6087,5.5935,5.5808,5.571,5.5665,5.5665,5.5554,5.5621,5.571,5.5748,5.5728,5.573,5.5621,5.557,5.5643,5.5707,5.5827,5.5968,5.6071,5.617,5.6201,5.5864,5.5786,5.6019,5.5242,5.4815,5.5009,5.4465,5.4155,5.4116,5.4077,5.3793,5.2898,5.2685,5.1957,5.0989,5.0325,5.0073,4.9936,4.9741,4.9683,4.9634,4.9634,4.9604,4.9574,4.9625,4.9759,4.991,5.0111,5.0252,5.0303,5.0385,5.0507,5.0663,5.0841,5.089,7.4927,7.4125,7.3323,7.2482,7.1833,7.0954,7.0457,7.0533,7.0457,7.0419,7.0381,7.0342,7.0266,7.0342,7.0151,6.9846,6.9082,6.8356,6.7897,6.7668,6.7706,6.7706,6.7706,6.7821,6.7859,6.7744,6.7056,6.6254,6.5452,6.5413,6.5413,6.5413,6.5413,6.5413,6.5375,6.3847,6.2968,6.2586,6.1325,6.0485,6.0179,5.8765,5.7886,5.7734,5.6282,5.5403,5.5403,5.5403,5.5403,5.5428,5.5499,5.5665,5.5789,5.5935,5.6001,5.6071,5.6199,5.6199,5.6071,5.6017,5.5968,5.5845,5.5808,5.5789,5.5789,5.5769,5.5769,5.5827,5.5827,5.5808,5.5827,5.5808,5.5789,5.5808,5.5882,5.5968,5.6056,5.6185,5.6291,5.6291,5.6175,5.6291,5.6291,5.6097,5.5786,5.5281,5.5087,5.5009,5.5009,5.5009,5.4621,5.387,5.3366,5.2661,5.1641,5.0675,5.0548,5.0389,5.0145,5.0012,4.991,4.9922,4.9868,4.9868,5.0038,5.0145,5.023,5.0406,5.0509,5.0587,5.0663,5.0756,5.0858,5.099,5.099,7.4775,7.4889,7.359,7.3208,7.3208,7.1909,7.1298,7.1221,7.0686,7.0419,7.0419,7.0419,7.0419,7.0419,7.0419,7.0266,6.9999,6.9693,6.9043,6.8088,6.7935,6.7973,6.805,6.8508,6.847,6.7821,6.7095,6.6254,6.5566,6.5413,6.5413,6.5413,6.5413,6.5413,6.5337,6.4344,6.3541,6.2853,6.1822,6.0981,6.0332,5.8765,5.7925,5.7734,5.6282,5.5403,5.5403,5.5403,5.5403,5.5403,5.5523,5.5707,5.5917,5.6102,5.6199,5.6199,5.6278,5.6291,5.6213,5.6199,5.6102,5.5968,5.5935,5.5935,5.5917,5.5864,5.5938,5.6056,5.604,5.5968,5.6087,5.6156,5.6071,5.5952,5.5968,5.6071,5.6185,5.6265,5.6291,5.6291,5.6291,5.6291,5.6291,5.6291,5.6175,5.5942,5.5825,5.5825,5.5864,5.5786,5.5242,5.4077,5.3715,5.3159,5.1915,5.1097,5.0883,5.0713,5.049,5.0303,5.0237,5.0168,5.0159,5.023,5.0368,5.047,5.0548,5.0624,5.0769,5.0835,5.0906,5.099,5.1073,5.1087,5.1048,7.4813,7.4889,7.3896,7.3552,7.3628,7.2253,7.168,7.1565,7.0801,7.0419,7.0419,7.0419,7.0419,7.0419,7.0419,7.0419,7.0419,7.0419,6.9846,6.8967,6.8814,6.8814,6.889,6.9349,6.9234,6.8356,6.7553,6.6713,6.591,6.5566,6.5413,6.5413,6.5413,6.5413,6.5261,6.4267,6.3427,6.2815,6.1745,6.0905,6.0217,5.9071,5.8192,5.7772,5.6549,5.5747,5.5441,5.5479,5.5465,5.5514,5.5643,5.5884,5.6102,5.6213,5.6291,5.6291,5.6291,5.6278,5.6199,5.6226,5.6213,5.6033,5.6087,5.6102,5.6102,5.6024,5.6126,5.6213,5.6185,5.617,5.6278,5.6291,5.6226,5.6117,5.6117,5.6185,5.6278,5.6291,5.6291,5.6291,5.6291,5.6291,5.6291,5.6291,5.6291,5.6291,5.6291,5.6291,5.6291,5.6291,5.5359,5.4465,5.3922,5.3145,5.1979,5.1462,5.1229,5.1009,5.0819,5.0622,5.051,5.047,5.043,5.0568,5.0696,5.0748,5.0835,5.0898,5.1009,5.1075,5.1114,5.1114,5.1127,5.1127,5.1089,7.5004,7.4316,7.4278,7.3896,7.3246,7.2367,7.1947,7.168,7.0916,7.0533,7.0457,7.0419,7.0419,7.0419,7.0419,7.0419,7.0419,7.0419,7.0381,7.0228,7.019,7.0151,7.0151,7.0075,6.9655,6.9043,6.8203,6.7477,6.6751,6.6101,6.549,6.5566,6.5605,6.5413,6.5184,6.3809,6.3121,6.2739,6.1363,6.0599,6.037,5.9529,5.8689,5.7925,5.7008,5.6155,5.5555,5.557,5.5621,5.5643,5.5845,5.6056,5.6265,5.6291,5.6291,5.6291,5.6291,5.6213,5.6117,5.6199,5.6213,5.6087,5.6185,5.6291,5.6278,5.6265,5.6265,5.6291,5.6278,5.6278,5.6291,5.6291,5.6291,5.6291,5.6278,5.6278,5.6291,5.6291,5.6291,5.6291,5.6291,5.6291,5.6291,5.6291,5.6291,5.6291,5.6291,5.6291,5.6291,5.6214,5.5825,5.5087,5.4194,5.3261,5.2212,5.1474,5.1241,5.1166,5.1034,5.0937,5.0781,5.0748,5.0731,5.0867,5.1029,5.1048,5.1037,5.1102,5.1114,5.1114,5.1153,5.1153,5.1166,5.1139,5.1136,7.5348,7.5157,7.5157,7.5042,7.4698,7.3896,7.317,7.2597,7.1718,7.0954,7.0533,7.0419,7.0419,7.0419,7.0419,7.0419,7.0419,7.0419,7.0419,7.0419,7.0419,7.0419,7.0266,6.9807,6.9464,6.912,6.8432,6.7782,6.7591,6.7247,6.6865,6.6369,6.6292,6.5987,6.5337,6.4305,6.3541,6.2853,6.186,6.0905,6.0332,5.9606,5.8727,5.7925,5.7084,5.6282,5.5662,5.575,5.59,5.59,5.5952,5.6087,5.6278,5.6291,5.6291,5.6291,5.6291,5.6291,5.6265,5.6278,5.6278,5.6265,5.6278,5.6291,5.6291,5.6291,5.6291,5.6291,5.6291,5.6291,5.6291,5.6291,5.6291,5.6291,5.6291,5.6291,5.6291,5.6291,5.6291,5.6291,5.6291,5.6291,5.6291,5.6291,5.6291,5.6291,5.6291,5.6291,5.6291,5.6253,5.5981,5.5126,5.4271,5.3378,5.2523,5.1707,5.1241,5.1202,5.1178,5.1205,5.1127,5.1114,5.1062,5.1089,5.1283,5.1386,5.1192,5.1127,5.1139,5.1175,5.1186,5.1197,5.1197,5.1169,5.1191,7.5501,7.5501,7.5501,7.5501,7.5386,7.4584,7.3743,7.2941,7.2062,7.1221,7.0572,7.0419,7.0419,7.0419,7.0419,7.0419,7.0419,7.0419,7.0419,7.0419,7.0419,7.0419,7.0304,6.9884,6.9693,6.9616,6.8852,6.8508,6.8356,6.8088,6.7477,6.6827,6.6713,6.6254,6.5375,6.4191,6.3427,6.2777,6.1745,6.0828,6.037,5.9911,5.8994,5.8142,5.7392,5.6836,5.5981,5.5917,5.6001,5.6001,5.6087,5.6185,5.6278,5.6291,5.6291,5.6291,5.6291,5.6291,5.6291,5.6291,5.6291,5.6291,5.6291,5.6291,5.6291,5.6291,5.6291,5.6291,5.6291,5.6291,5.6291,5.6291,5.6291,5.6291,5.6291,5.6291,5.6291,5.6291,5.6291,5.6291,5.6291,5.6291,5.6291,5.6291,5.6291,5.6291,5.6291,5.6291,5.6291,5.6265,5.6135,5.5458,5.4829,5.411,5.3602,5.2909,5.2356,5.2182,5.2056,5.1969,5.1608,5.1508,5.1369,5.1396,5.1552,5.1602,5.1342,5.1159,5.1201,5.122,5.123,5.1256,5.1226,5.1234,5.1232,7.5501,7.5501,7.5501,7.5501,7.5386,7.4698,7.3896,7.2941,7.2253,7.1336,7.0572,7.0419,7.0419,7.0419,7.0419,7.0419,7.0419,7.0419,7.0419,7.0419,7.0419,7.0419,7.0419,7.0342,7.0266,7.019,6.9616,6.9387,6.9158,6.8508,6.7668,6.7095,6.6827,6.6216,6.5261,6.3809,6.3006,6.2624,6.1325,6.0561,6.0408,6.0217,5.9557,5.8413,5.7843,5.7271,5.6459,5.6133,5.6071,5.6017,5.6199,5.6278,5.6291,5.6291,5.6291,5.6291,5.6291,5.6291,5.6291,5.6291,5.6291,5.6291,5.6291,5.6291,5.6291,5.6291,5.6291,5.6291,5.6291,5.6291,5.6291,5.6291,5.6291,5.6291,5.6291,5.6291,5.6291,5.6291,5.6291,5.6291,5.6291,5.6291,5.6291,5.6291,5.6304,5.6286,5.6325,5.6308,5.6319,5.6349,5.6329,5.616,5.5553,5.5028,5.4624,5.422,5.3787,5.3465,5.3298,5.3091,5.2317,5.2056,5.1784,5.1667,5.1559,5.1442,5.1298,5.1209,5.1242,5.1218,5.1232,5.1269,5.1288,5.1327,5.1301,7.5501,7.5501,7.5501,7.5501,7.5462,7.5271,7.4354,7.2979,7.2788,7.1794,7.0686,7.0419,7.0419,7.0419,7.0419,7.0419,7.0419,7.0419,7.0419,7.0419,7.0419,7.0419,7.0419,7.0419,7.0419,7.0342,7.0266,7.0113,6.9922,6.9234,6.847,6.763,6.6904,6.6254,6.5299,6.3809,6.2892,6.2624,6.1249,6.0446,6.037,6.0398,5.9917,5.8947,5.8024,5.7387,5.7008,5.6519,5.6251,5.6265,5.6278,5.6291,5.6291,5.6291,5.6291,5.6291,5.6291,5.6291,5.6291,5.6291,5.6291,5.6291,5.6291,5.6291,5.6291,5.6291,5.6291,5.6291,5.6291,5.6291,5.6291,5.6291,5.6291,5.6291,5.6291,5.6291,5.6291,5.6291,5.6291,5.6291,5.6291,5.6291,5.6304,5.6304,5.6302,5.629,5.6329,5.6355,5.6332,5.6354,5.6374,5.6386,5.5967,5.5435,5.5296,5.4993,5.4761,5.4564,5.4486,5.4169,5.3396,5.2629,5.2389,5.1888,5.1386,5.1336,5.142,5.1297,5.1279,5.1288,5.1293,5.1307,5.1318,5.1363,5.1366,7.5501,7.5501,7.5501,7.5501,7.5501,7.5462,7.4545,7.3208,7.2979,7.2024,7.0686,7.0419,7.0419,7.0419,7.0419,7.0419,7.0419,7.0419,7.0419,7.0419,7.0419,7.0419,7.0419,7.0419,7.0419,7.0419,7.0419,7.0419,7.019,6.9578,6.8699,6.7897,6.7095,6.6254,6.5299,6.377,6.2968,6.2586,6.1287,6.037,6.037,6.0398,5.9805,5.8957,5.7853,5.7195,5.6791,5.6498,5.633,5.6291,5.6291,5.6291,5.6291,5.6291,5.6291,5.6291,5.6291,5.6291,5.6291,5.6291,5.6291,5.6291,5.6291,5.6291,5.6291,5.6291,5.6291,5.6291,5.6291,5.6291,5.6291,5.6291,5.6291,5.6291,5.6291,5.6291,5.6291,5.6291,5.6291,5.6291,5.6291,5.6302,5.6314,5.6286,5.6359,5.6347,5.6361,5.638,5.6374,5.6391,5.6419,5.6351,5.6083,5.5854,5.582,5.5702,5.5584,5.5543,5.5622,5.5192,5.457,5.3749,5.3006,5.2416,5.1854,5.1722,5.1786,5.1577,5.132,5.1361,5.1325,5.1327,5.1328,5.1322,5.1359,7.5501,7.5501,7.5501,7.5424,7.531,7.5271,7.4278,7.2902,7.2788,7.1833,7.0648,7.0419,7.0419,7.0419,7.0419,7.0419,7.0419,7.0419,7.0419,7.0419,7.0419,7.0419,7.0419,7.0419,7.0419,7.0419,7.0419,7.0419,7.019,6.9464,6.8508,6.7821,6.6865,6.5948,6.4993,6.377,6.2777,6.2395,6.1172,6.037,6.0398,6.0387,5.983,5.8914,5.8097,5.7358,5.6847,5.6486,5.6291,5.6291,5.6291,5.6291,5.6291,5.6291,5.6291,5.6291,5.6291,5.6291,5.6291,5.6291,5.6291,5.6291,5.6291,5.6291,5.6291,5.6291,5.6291,5.6291,5.6291,5.6291,5.6291,5.6291,5.6291,5.6291,5.6291,5.6291,5.6291,5.6291,5.6291,5.6304,5.6302,5.6319,5.632,5.6308,5.6368,5.6406,5.6415,5.6422,5.6422,5.6429,5.6482,5.6523,5.6288,5.621,5.6165,5.6119,5.6038,5.6067,5.6259,5.5899,5.5465,5.4948,5.4108,5.3008,5.2494,5.2179,5.1833,5.1484,5.1324,5.1363,5.131,5.1245,5.1235,5.1313,5.1313,7.5501,7.5501,7.5501,7.508,7.4507,7.4431,7.3552,7.2062,7.1985,7.1374,7.0533,7.0419,7.0419,7.0419,7.0419,7.0419,7.0419,7.0419,7.0419,7.0419,7.0419,7.0419,7.0419,7.0419,7.0419,7.0419,7.0342,7.0304,7.0037,6.8929,6.8203,6.763,6.6407,6.5299,6.4458,6.3388,6.2548,6.1975,6.0943,6.0408,6.0453,6.0495,6.0188,5.9377,5.8661,5.796,5.7249,5.6641,5.6291,5.6291,5.6291,5.6291,5.6291,5.6291,5.6291,5.6291,5.6291,5.6291,5.6291,5.6291,5.6291,5.6291,5.6291,5.6291,5.6291,5.6291,5.6291,5.6291,5.6291,5.6291,5.6291,5.6291,5.6291,5.6291,5.6291,5.6291,5.6291,5.6304,5.6317,5.629,5.6308,5.6308,5.6354,5.6352,5.6422,5.6478,5.6482,5.6484,5.6522,5.6518,5.6549,5.6582,5.6579,5.6536,5.6532,5.645,5.6402,5.6269,5.6329,5.6262,5.5965,5.593,5.5238,5.3669,5.2524,5.1935,5.1609,5.1318,5.1269,5.1219,5.1156,5.1074,5.1113,5.1187,5.1122,7.5501,7.5501,7.5501,7.5004,7.4278,7.4201,7.3514,7.2406,7.1871,7.1489,7.103,7.0648,7.0419,7.0419,7.0419,7.0419,7.0419,7.0419,7.0419,7.0419,7.0419,7.0419,7.0419,7.0419,7.0419,7.0266,7.0037,7.0037,7.019,6.8699,6.7935,6.7477,6.6216,6.4993,6.4191,6.335,6.2471,6.1631,6.0828,6.0453,6.052,6.0712,6.0365,5.9392,5.894,5.8195,5.7068,5.6602,5.6291,5.6291,5.6291,5.6291,5.6291,5.6291,5.6291,5.6291,5.6291,5.6291,5.6291,5.6291,5.6291,5.6291,5.6291,5.6291,5.6291,5.6291,5.6291,5.6291,5.6291,5.6291,5.6291,5.6291,5.6291,5.6291,5.6291,5.6291,5.6317,5.6314,5.6297,5.6319,5.632,5.6354,5.6419,5.6437,5.6484,5.6522,5.6556,5.6543,5.6602,5.6553,5.6503,5.6446,5.6432,5.6418,5.6418,5.6425,5.6425,5.6363,5.629,5.6212,5.5936,5.5709,5.4917,5.3623,5.2715,5.2191,5.139,5.1131,5.1103,5.1084,5.1042,5.1008,5.1008,5.1008,5.092,7.5501,7.5501,7.531,7.4736,7.401,7.3781,7.317,7.2444,7.168,7.1374,7.1336,7.0724,7.0419,7.0419,7.0419,7.0419,7.0419,7.0419,7.0419,7.0419,7.0419,7.0419,7.0381,7.0228,7.0075,6.9884,6.9273,6.9387,6.9616,6.8356,6.7744,6.7171,6.6063,6.484,6.3923,6.3197,6.2395,6.1631,6.0846,6.0559,6.075,6.0867,6.0433,5.9016,5.8838,5.8117,5.6913,5.6447,5.633,5.6291,5.6291,5.6291,5.6291,5.6291,5.6291,5.6291,5.6291,5.6291,5.6291,5.6291,5.6291,5.6291,5.6291,5.6291,5.6291,5.6291,5.6291,5.6291,5.6291,5.6291,5.6291,5.6291,5.6291,5.6291,5.6291,5.6317,5.6325,5.63,5.6324,5.634,5.6347,5.6397,5.644,5.6523,5.6517,5.6507,5.6532,5.6436,5.6446,5.6418,5.6355,5.6271,5.6202,5.6158,5.6158,5.6208,5.622,5.623,5.6122,5.6057,5.5641,5.5225,5.4386,5.3761,5.36,5.3027,5.1964,5.1011,5.1011,5.0998,5.0985,5.0879,5.072,5.0648,5.0598,7.5501,7.5424,7.466,7.3896,7.3093,7.2406,7.1565,7.0877,7.0724,7.0572,7.0801,7.0495,7.0419,7.0419,7.0419,7.0419,7.0419,7.0419,7.0419,7.0419,7.0419,7.0381,7.0266,6.9616,6.9425,6.9196,6.847,6.8585,6.8738,6.763,6.6942,6.6713,6.5948,6.4688,6.3503,6.3236,6.2433,6.1621,6.0942,6.075,6.0964,6.1018,6.0522,5.9808,5.9075,5.8234,5.7185,5.6602,5.633,5.6291,5.6291,5.6291,5.6291,5.6291,5.6291,5.6291,5.6291,5.6291,5.6291,5.6291,5.6291,5.6291,5.6291,5.6291,5.6291,5.6291,5.6291,5.6291,5.6291,5.6291,5.6291,5.6291,5.6291,5.6304,5.6329,5.6297,5.632,5.6347,5.6391,5.6422,5.6429,5.644,5.6484,5.6551,5.6571,5.6514,5.6452,5.6386,5.6308,5.6261,5.622,5.6122,5.6044,5.5971,5.5852,5.5885,5.583,5.5932,5.5852,5.5766,5.5402,5.4959,5.4703,5.4194,5.3996,5.3297,5.1969,5.1183,5.0999,5.0897,5.0948,5.0682,5.0342,5.032,5.0478,7.4087,7.4049,7.3667,7.3017,7.2253,7.1833,7.1489,7.1068,7.061,7.0686,7.0954,7.0572,7.0419,7.0419,7.0419,7.0419,7.0419,7.0419,7.0419,7.0381,7.0381,7.0151,6.9731,6.9349,6.9043,6.8317,6.7706,6.7362,6.7439,6.7209,6.6713,6.656,6.5834,6.4879,6.3618,6.3618,6.2863,6.1991,6.1235,6.0983,6.0997,6.0732,6.0196,5.9399,5.8622,5.7806,5.7068,5.6602,5.6291,5.6291,5.6291,5.6291,5.6291,5.6291,5.6291,5.6291,5.6291,5.6291,5.6291,5.6291,5.6291,5.6291,5.6291,5.6291,5.6291,5.6291,5.6291,5.6291,5.6291,5.6291,5.6291,5.6291,5.6302,5.6297,5.6308,5.6347,5.6361,5.6411,5.6437,5.6484,5.6518,5.6473,5.6419,5.638,5.6386,5.6379,5.6329,5.623,5.6135,5.6071,5.6054,5.6009,5.5896,5.5769,5.5651,5.5528,5.5378,5.5378,5.527,5.5211,5.5033,5.474,5.4497,5.391,5.3301,5.2561,5.1715,5.1348,5.1114,5.0987,5.0894,5.0798,5.0698,5.0646,5.0698,7.2559,7.2367,7.2559,7.2291,7.168,7.1489,7.1336,7.1259,7.0686,7.0763,7.1068,7.0686,7.0419,7.0419,7.0419,7.0419,7.0419,7.0419,7.0419,7.0381,7.0151,6.9731,6.9234,6.889,6.8165,6.7591,6.6751,6.6483,6.6407,6.633,6.6292,6.6369,6.5719,6.4955,6.4412,6.4078,6.3461,6.2144,6.1679,6.1423,6.1181,6.0755,6.0046,5.9244,5.835,5.7496,5.6758,5.633,5.6291,5.6291,5.6291,5.6291,5.6291,5.6291,5.6291,5.6291,5.6291,5.6291,5.6291,5.6291,5.6291,5.6291,5.6291,5.6291,5.6291,5.6291,5.6291,5.6291,5.6291,5.6291,5.6304,5.6317,5.6308,5.629,5.6324,5.6341,5.6419,5.6437,5.6484,5.6517,5.6497,5.6419,5.6347,5.6232,5.6202,5.6212,5.6158,5.6044,5.5939,5.5822,5.575,5.5673,5.5506,5.5408,5.5287,5.5134,5.4981,5.4866,5.4776,5.4739,5.4743,5.4553,5.4334,5.3602,5.2923,5.2651,5.2305,5.1784,5.1291,5.1429,5.1483,5.1347,5.1235,5.1148,5.0802,7.1336,7.0648,7.145,7.1718,7.1603,7.0839,7.0533,7.061,7.0457,7.0457,7.061,7.0419,7.0419,7.0419,7.0419,7.0419,7.0419,7.0419,7.0304,7.0075,6.9655,6.9158,6.8585,6.7782,6.698,6.6674,6.6063,6.5681,6.5566,6.5719,6.5605,6.5452,6.5512,6.4947,6.4537,6.4396,6.3777,6.2684,6.2236,6.184,6.1477,6.1094,6.0642,5.9865,5.9088,5.8311,5.7496,5.6719,5.6291,5.6291,5.6291,5.6291,5.6291,5.6291,5.6291,5.6291,5.6291,5.6291,5.6291,5.6291,5.6291,5.6291,5.6291,5.6291,5.6291,5.6304,5.6304,5.6329,5.6314,5.6302,5.6325,5.6319,5.6308,5.6354,5.6358,5.6429,5.6442,5.6484,5.6518,5.6536,5.6497,5.6371,5.6241,5.6097,5.6071,5.6084,5.5869,5.5768,5.5591,5.5477,5.5384,5.5262,5.5053,5.4914,5.4857,5.4776,5.4685,5.4623,5.4528,5.456,5.4579,5.4358,5.3983,5.3812,5.3267,5.3084,5.2862,5.233,5.1973,5.2054,5.2008,5.163,5.1469,5.1332,5.0784,7.0724,7.0457,7.0763,7.0916,7.0877,7.0533,7.0419,7.0419,7.0419,7.0419,7.0419,7.0419,7.0419,7.0419,7.0419,7.0419,7.0342,6.9807,6.9731,6.9387,6.889,6.8203,6.7553,6.7095,6.6483,6.5987,6.5528,6.5413,6.5413,6.5405,6.5494,6.5552,6.558,6.5465,6.5191,6.4817,6.4075,6.3361,6.2732,6.2191,6.1429,6.0798,6.0176,5.9322,5.8506,5.7651,5.6835,5.6524,5.633,5.6291,5.6291,5.6291,5.6291,5.6291,5.6291,5.6291,5.6291,5.6291,5.6291,5.6291,5.6291,5.6291,5.6291,5.6304,5.629,5.6325,5.6319,5.631,5.6338,5.6347,5.6379,5.6368,5.6391,5.6419,5.6439,5.6484,5.6481,5.6473,5.6454,5.6439,5.6355,5.6271,5.6097,5.5978,5.5939,5.5924,5.5711,5.547,5.5301,5.5119,5.5037,5.4952,5.4746,5.4522,5.4425,5.443,5.4397,5.4296,5.4193,5.4121,5.4086,5.3833,5.357,5.3526,5.345,5.3038,5.2739,5.2671,5.2493,5.2339,5.201,5.1673,5.1553,5.1627,5.0989,7.0419,7.0419,7.0419,7.0419,7.0419,7.0419,7.0419,7.0419,7.0419,7.0419,7.0419,7.0419,7.0419,7.0419,7.0419,7.019,6.9922,6.9502,6.9082,6.8585,6.7935,6.7247,6.6789,6.6369,6.5948,6.5452,6.5413,6.5413,6.5413,6.5435,6.5552,6.5651,6.5782,6.5793,6.5664,6.5252,6.4617,6.3817,6.3068,6.2274,6.1419,6.0875,5.9904,5.9088,5.835,5.7496,5.6758,5.633,5.633,5.6291,5.6291,5.6291,5.6291,5.6291,5.6291,5.6291,5.6291,5.6291,5.6291,5.6291,5.6317,5.6314,5.6286,5.6297,5.63,5.6316,5.634,5.6347,5.6386,5.6411,5.6415,5.6419,5.6429,5.6481,5.6523,5.6551,5.645,5.6425,5.634,5.6281,5.6181,5.6084,5.5955,5.5788,5.5612,5.557,5.5346,5.5134,5.4998,5.4836,5.4685,5.4591,5.4463,5.4262,5.4052,5.398,5.3833,5.3604,5.3487,5.3444,5.3322,5.3193,5.2894,5.2642,5.2553,5.2594,5.2528,5.2328,5.2375,5.238,5.2145,5.1913,5.2108,5.2071,5.1499,7.0419,7.0419,7.0419,7.0419,7.0419,7.0419,7.0419,7.0381,7.0304,7.0304,7.0266,7.0228,7.0266,7.0228,7.0113,6.9769,6.9387,6.9082,6.8623,6.7859,6.7095,6.6713,6.6407,6.5948,6.5605,6.5452,6.5413,6.5375,6.5405,6.558,6.569,6.5832,6.6041,6.6088,6.5942,6.5373,6.4709,6.3992,6.3206,6.2429,6.173,6.1342,6.0332,5.9127,5.8661,5.7845,5.6641,5.633,5.6291,5.6291,5.6291,5.6291,5.6291,5.6291,5.6304,5.6317,5.6317,5.6317,5.6304,5.6304,5.6297,5.6329,5.6347,5.6324,5.6386,5.6406,5.6372,5.6411,5.6422,5.6422,5.6429,5.6478,5.6484,5.6521,5.6546,5.6523,5.6407,5.6308,5.6251,5.6135,5.6039,5.5879,5.575,5.5588,5.535,5.5172,5.4981,5.4806,5.4654,5.4425,5.4228,5.4088,5.398,5.3758,5.3526,5.3404,5.324,5.298,5.2893,5.2937,5.2893,5.2813,5.2441,5.1887,5.1972,5.2263,5.2164,5.1919,5.2073,5.2218,5.2453,5.2417,5.2607,5.2453,5.1756,7.0419,7.0419,7.0419,7.0419,7.0419,7.0419,7.0419,7.0304,6.9884,6.9578,6.9464,6.9043,6.912,6.9273,6.9082,6.889,6.9005,6.7782,6.7209,6.7056,6.6254,6.5948,6.5719,6.5643,6.5413,6.5413,6.5375,6.5494,6.5608,6.5705,6.5842,6.6024,6.6225,6.6373,6.6316,6.6001,6.5623,6.4823,6.3983,6.3168,6.2313,6.1614,6.0565,5.8894,5.8778,5.7923,5.6447,5.633,5.6291,5.6291,5.6291,5.6291,5.6291,5.6304,5.6302,5.6308,5.63,5.6338,5.6363,5.6393,5.6361,5.638,5.6386,5.6358,5.6411,5.6434,5.6439,5.6482,5.6484,5.6523,5.6556,5.6554,5.6543,5.6501,5.6514,5.64,5.6308,5.6202,5.6122,5.6039,5.5896,5.5671,5.5455,5.5148,5.4886,5.4647,5.4425,5.4296,5.4123,5.3833,5.3565,5.3524,5.3363,5.3157,5.3023,5.2944,5.29,5.268,5.2672,5.2717,5.2627,5.2417,5.2004,5.1513,5.1754,5.1994,5.1802,5.1646,5.1825,5.2018,5.2114,5.2162,5.2173,5.2078,5.1825,6.9807,6.9578,6.9884,6.9807,6.9655,7.0151,7.0266,6.9884,6.912,6.8738,6.8623,6.8126,6.8203,6.847,6.8241,6.7782,6.8241,6.7324,6.6369,6.6254,6.5719,6.5528,6.5452,6.5413,6.5413,6.5405,6.5494,6.558,6.5717,6.5832,6.6003,6.6263,6.6422,6.6439,6.6454,6.6338,6.5794,6.4877,6.3983,6.3284,6.2274,6.1264,6.0254,5.9127,5.8389,5.769,5.6719,5.6291,5.6291,5.6291,5.6291,5.6291,5.6304,5.6314,5.6319,5.6299,5.6347,5.638,5.6419,5.6429,5.6432,5.6482,5.6437,5.6437,5.644,5.6523,5.652,5.6554,5.6579,5.6571,5.6567,5.6563,5.6458,5.6446,5.6363,5.6271,5.6146,5.6044,5.5924,5.5825,5.5651,5.5384,5.5053,5.4671,5.4364,5.4158,5.3944,5.3795,5.3639,5.3363,5.3115,5.3066,5.298,5.2806,5.268,5.259,5.2499,5.2408,5.2361,5.2397,5.204,5.1778,5.145,5.1094,5.0936,5.1007,5.1276,5.1418,5.1383,5.1383,5.1383,5.1521,5.1622,5.1521,5.1418,6.8661,6.8088,6.8814,6.8699,6.8279,6.9464,6.9693,6.9082,6.8241,6.7859,6.7821,6.7744,6.7706,6.7821,6.7744,6.74,6.6942,6.6674,6.6139,6.5719,6.5452,6.5413,6.5413,6.5413,6.5405,6.5494,6.558,6.5678,6.5756,6.6041,6.6281,6.6422,6.6493,6.6392,6.6314,6.612,6.5537,6.4721,6.3867,6.309,6.208,6.0798,5.9865,5.8894,5.8117,5.734,5.6602,5.6291,5.6291,5.6304,5.6304,5.6304,5.6302,5.63,5.6299,5.6347,5.6391,5.6434,5.6484,5.6523,5.6521,5.6554,5.6479,5.6512,5.6549,5.6582,5.6582,5.6575,5.6563,5.6558,5.6558,5.6439,5.6308,5.6222,5.6197,5.6071,5.5939,5.5825,5.5671,5.5477,5.5287,5.4971,5.4516,5.4158,5.387,5.3565,5.3367,5.3203,5.3036,5.2944,5.2769,5.2725,5.2672,5.2536,5.2361,5.2221,5.2173,5.2114,5.1969,5.1884,5.1522,5.1144,5.089,5.0488,4.9943,4.9995,5.0557,5.0714,5.0714,5.0714,5.0714,5.0822,5.0982,5.0875,5.0714,6.8126,6.7935,6.8165,6.8126,6.7897,6.7821,6.7935,6.8126,6.74,6.7056,6.7018,6.6369,6.656,6.698,6.6407,6.6407,6.633,6.6101,6.5719,6.5452,6.5413,6.5413,6.5413,6.5444,6.5465,6.558,6.5678,6.5856,6.6046,6.6299,6.6406,6.6493,6.6392,6.612,6.5809,6.5576,6.5071,6.445,6.3517,6.2701,6.1808,6.0642,5.9632,5.87,5.7884,5.7068,5.6524,5.633,5.6291,5.6304,5.6308,5.63,5.631,5.6354,5.6397,5.6434,5.6484,5.6551,5.6585,5.6585,5.6579,5.6519,5.6436,5.648,5.6558,5.6597,5.6553,5.6497,5.6439,5.6425,5.6363,5.6271,5.6169,5.6122,5.6029,5.593,5.5788,5.5609,5.5408,5.5096,5.4924,5.442,5.3979,5.3682,5.3367,5.303,5.2769,5.268,5.2509,5.2454,5.2408,5.2361,5.2304,5.2162,5.1969,5.1822,5.1772,5.1758,5.1521,5.1331,5.1017,5.0664,5.0344,4.9896,4.9444,4.9526,5.002,5.0124,5.0067,5.0067,5.009,5.0181,5.0237,5.0124,5.0067,6.7209,6.698,6.7286,6.7439,6.7286,6.656,6.6483,6.6751,6.6369,6.6178,6.6139,6.5681,6.5681,6.6063,6.5719,6.5681,6.6063,6.5719,6.5413,6.5413,6.5413,6.5413,6.5413,6.5465,6.558,6.5678,6.5856,6.6003,6.6244,6.6389,6.6508,6.647,6.6275,6.5732,6.5188,6.4566,6.3906,6.3362,6.2701,6.2119,6.1186,6.0099,5.9011,5.8389,5.7573,5.6874,5.646,5.6343,5.6317,5.6314,5.6299,5.6332,5.6471,5.6684,5.695,5.7068,5.7096,5.7122,5.7118,5.6727,5.6636,5.6452,5.6371,5.6324,5.6355,5.6347,5.6347,5.6347,5.6271,5.6202,5.6158,5.611,5.6057,5.6001,5.5913,5.5789,5.5566,5.5361,5.5107,5.4731,5.4355,5.3906,5.3526,5.324,5.2987,5.268,5.2408,5.2268,5.2173,5.203,5.2018,5.2018,5.1871,5.1722,5.1521,5.1315,5.1175,5.0982,5.0733,5.0515,5.0369,4.9959,4.9422,4.9182,4.8916,4.9112,4.9368,4.9393,4.9487,4.9393,4.918,4.9059,4.912,4.9214,4.9214,6.6139,6.5528,6.6254,6.6598,6.6483,6.5796,6.549,6.5413,6.549,6.5413,6.5452,6.5413,6.5452,6.5566,6.5413,6.5413,6.5605,6.5452,6.5413,6.5375,6.5413,6.5405,6.5494,6.5608,6.5705,6.5818,6.5981,6.6148,6.6263,6.6406,6.647,6.6431,6.5693,6.5188,6.4799,6.3673,6.2857,6.2119,6.1419,6.072,5.9865,5.8661,5.7612,5.7651,5.7029,5.6343,5.6394,5.638,5.6286,5.6329,5.6464,5.6536,5.7051,5.7459,5.7807,5.7757,5.7742,5.7573,5.7333,5.6938,5.651,5.6363,5.6281,5.6181,5.6135,5.6208,5.622,5.6208,5.6135,5.6097,5.6044,5.5818,5.5692,5.5614,5.5467,5.5322,5.5148,5.4876,5.4409,5.4046,5.357,5.3125,5.2827,5.2509,5.2454,5.2185,5.2126,5.1933,5.1687,5.1571,5.1485,5.1485,5.147,5.1228,5.0822,5.0605,5.0404,5.0237,4.9976,4.9861,4.9746,4.9193,4.8504,4.8463,4.8471,4.8539,4.8668,4.8635,4.8476,4.8413,4.8189,4.7835,4.79,4.803,4.8222,6.5605,6.5413,6.5643,6.5719,6.5681,6.549,6.5413,6.5413,6.5413,6.5375,6.5375,6.5375,6.5337,6.5299,6.5299,6.5299,6.5337,6.5375,6.5375,6.5375,6.5367,6.5379,6.5569,6.5666,6.5779,6.6024,6.6167,6.6105,6.6134,6.6299,6.6392,6.6314,6.546,6.476,6.4216,6.3012,6.2119,6.107,6.0332,5.971,5.9011,5.8428,5.7768,5.7742,5.7276,5.6792,5.6747,5.6631,5.6488,5.638,5.7129,5.7734,5.8468,5.8655,5.8765,5.8675,5.8275,5.8058,5.7712,5.7182,5.6631,5.62,5.6068,5.5955,5.5939,5.6044,5.6071,5.6044,5.6001,5.5939,5.5822,5.5511,5.5298,5.5174,5.5004,5.4876,5.4671,5.4217,5.3721,5.3293,5.2784,5.2499,5.2209,5.2005,5.1835,5.1786,5.1822,5.1622,5.1158,5.0892,5.0768,5.0768,5.0964,5.0749,5.0328,5.0011,4.978,4.9722,4.9571,4.9428,4.9188,4.8707,4.8197,4.8085,4.8129,4.8065,4.7836,4.7505,4.7406,4.7373,4.7172,4.6831,4.6486,4.6486,4.6831,6.5184,6.4879,6.4879,6.484,6.4917,6.5222,6.5413,6.5413,6.5413,6.5184,6.4879,6.4879,6.484,6.484,6.4879,6.4917,6.4993,6.5261,6.5031,6.5023,6.5226,6.5263,6.5409,6.5562,6.5595,6.5741,6.533,6.5203,6.5576,6.5343,6.5265,6.5343,6.4605,6.3906,6.3323,6.2546,6.1536,6.0215,5.9593,5.9102,5.8519,5.7742,5.7235,5.7208,5.7058,5.6874,5.7198,5.7187,5.7338,5.7489,5.8164,5.8431,5.8996,5.9417,5.9592,5.9489,5.9155,5.878,5.8392,5.7753,5.6952,5.6598,5.6381,5.6425,5.5544,5.5612,5.5653,5.5612,5.5532,5.5467,5.5222,5.495,5.4867,5.479,5.4633,5.4478,5.4008,5.338,5.3225,5.3099,5.2774,5.2745,5.2585,5.2697,5.2431,5.1911,5.188,5.1259,5.0802,5.0241,5.0057,4.9896,5.0011,4.9896,4.9428,4.9248,4.9188,4.9188,4.9127,4.8759,4.848,4.8292,4.8001,4.7737,4.7505,4.7404,4.7169,4.6759,4.648,4.6448,4.6095,4.5769,4.5405,4.511,4.5447,6.4611,6.4076,6.4038,6.4114,6.4229,6.4764,6.5108,6.5184,6.5108,6.4649,6.4038,6.3847,6.3923,6.4038,6.4191,6.4191,6.4382,6.4802,6.4649,6.4594,6.4918,6.4872,6.5009,6.523,6.5142,6.4886,6.4504,6.4458,6.4605,6.445,6.4294,6.3906,6.3323,6.2701,6.2429,6.1808,6.0914,6.0229,5.9659,5.9244,5.8234,5.7145,5.7203,5.6943,5.6761,5.7148,5.7734,5.8069,5.847,5.875,5.9084,5.9451,5.9742,6.0191,6.0252,6.0165,5.9861,5.9672,5.9459,5.87,5.7907,5.7371,5.7117,5.6521,5.5606,5.5233,5.5286,5.5244,5.5151,5.4971,5.4739,5.4484,5.4458,5.4221,5.4118,5.3831,5.3179,5.2725,5.2834,5.283,5.2678,5.2625,5.2831,5.3015,5.266,5.2181,5.1675,5.1047,5.0359,4.9801,4.9406,4.9018,4.8821,4.8635,4.8446,4.8509,4.8543,4.8416,4.8322,4.8033,4.7704,4.7471,4.727,4.7169,4.6932,4.6689,4.641,4.5953,4.5737,4.5447,4.5036,4.4662,4.4358,4.4128,4.4282,6.3312,6.3159,6.3159,6.3541,6.4038,6.3656,6.377,6.4229,6.3694,6.3274,6.3045,6.2471,6.2433,6.3159,6.3923,6.4076,6.3847,6.4297,6.4412,6.4364,6.4116,6.4229,6.4332,6.4348,6.4227,6.4039,6.3969,6.4318,6.3867,6.3867,6.4255,6.4488,6.3168,6.2624,6.2507,6.1808,6.1147,6.0501,6.02,5.9921,5.9669,5.9046,5.9017,5.8905,5.8832,5.9195,5.9409,5.9139,5.9021,5.9241,5.9758,6.0269,6.0582,6.0799,6.0798,6.0589,6.0298,5.9951,5.9553,5.905,5.828,5.7531,5.7118,5.6473,5.5686,5.5108,5.512,5.5153,5.5003,5.478,5.451,5.4163,5.3981,5.3404,5.3151,5.2688,5.2126,5.2538,5.2927,5.2533,5.2151,5.2288,5.2552,5.2442,5.1924,5.1617,5.1629,5.0968,5.0051,4.9389,4.876,4.8233,4.7737,4.7671,4.7704,4.7869,4.7902,4.7671,4.7437,4.7202,4.6896,4.6588,4.6378,4.6276,4.5992,4.5634,4.5374,4.5079,4.4781,4.4434,4.3927,4.3536,4.3299,4.322,4.3349]},{"header":{"parameterUnit":"m.s-1","parameterCategory":1,"la1":31.0,"la2":29.5877,"lo1":-88.7671,"lo2":-86.6584,"dy":0.0162,"dx":0.0185,"nx":115,"ny":88,"refTime":"2023-04-06T00:00:00:Z","depth":0,"parameterNumber":3,"parameterNumberName":"V-component_of_WINDS"},"data":[0.0,0.0,0.0,0.0,0.0,0.0,0.0,0.0,0.0,0.0,0.0,0.0,0.0,0.0,0.0,0.0,0.0,0.0,0.0,0.0,0.0,0.0,0.0,0.0,0.0,0.0,0.0,0.0,0.0,0.0,0.0,0.0,0.0,0.0,0.0,0.0,0.0,0.0,0.0,0.0,0.0,0.0,0.0,0.0,0.0,0.0,0.0,0.0,0.0,0.0,0.0,0.0,0.0,0.0,0.0,0.0,0.0,0.0,0.0,0.0,0.0,0.0,0.0,0.0,0.0,0.0,0.0,0.0,0.0,0.0,0.0,0.0,0.0,0.0,0.0,0.0,0.0,0.0,0.0,0.0,0.0,0.0,0.0,0.0,0.0,0.0,0.0,0.0,0.0,0.0,0.0,0.0,0.0,0.0,0.0,0.0,0.0,0.0,0.0,0.0,0.0,0.0,0.0,0.0,0.0,0.0,0.0,0.0,0.0,0.0,0.0,0.0,0.0,0.0,0.0,0.0,0.0,0.0,0.0,0.0,0.0,0.0,0.0,0.0,0.0,0.0,0.0,0.0,0.0,0.0,0.0,0.0,0.0,0.0,0.0,0.0,0.0,0.0,0.0,0.0,0.0,0.0,0.0,0.0,0.0,0.0,0.0,0.0,0.0,0.0,0.0,0.0,0.0,0.0,0.0,0.0,0.0,0.0,0.0,0.0,0.0,0.0,0.0,0.0,0.0,0.0,0.0,0.0,0.0,0.0,0.0,0.0,0.0,0.0,0.0,0.0,0.0,0.0,0.0,0.0,0.0,0.0,0.0,0.0,0.0,0.0,0.0,0.0,0.0,0.0,0.0,0.0,0.0,0.0,0.0,0.0,0.0,0.0,0.0,0.0,0.0,0.0,0.0,0.0,0.0,0.0,0.0,0.0,0.0,0.0,0.0,0.0,0.0,0.0,0.0,0.0,0.0,0.0,0.0,0.0,0.0,0.0,0.0,0.0,0.0,0.0,0.0,0.0,0.0,0.0,0.0,0.0,0.0,0.0,0.0,0.0,0.0,0.0,0.0,0.0,0.0,0.0,0.0,0.0,0.0,0.0,0.0,0.0,0.0,0.0,0.0,0.0,0.0,0.0,0.0,0.0,0.0,0.0,0.0,0.0,0.0,0.0,0.0,0.0,0.0,0.0,0.0,0.0,0.0,0.0,0.0,0.0,0.0,0.0,0.0,0.0,0.0,0.0,0.0,0.0,0.0,0.0,0.0,0.0,0.0,0.0,0.0,0.0,0.0,0.0,0.0,0.0,0.0,0.0,0.0,0.0,0.0,0.0,0.0,0.0,0.0,0.0,0.0,0.0,0.0,0.0,0.0,0.0,0.0,0.0,0.0,0.0,0.0,0.0,0.0,0.0,0.0,0.0,0.0,0.0,0.0,0.0,0.0,0.0,0.0,0.0,0.0,0.0,0.0,0.0,0.0,0.0,0.0,0.0,0.0,0.0,0.0,0.0,0.0,0.0,0.0,0.0,0.0,0.0,0.0,0.0,0.0,0.0,0.0,0.0,0.0,0.0,0.0,0.0,0.0,0.0,0.0,0.0,0.0,0.0,0.0,0.0,0.0,0.0,0.0,0.0,0.0,0.0,0.0,0.0,0.0,0.0,0.0,0.0,0.0,0.0,0.0,0.0,0.0,0.0,0.0,0.0,0.0,0.0,0.0,0.0,0.0,0.0,0.0,0.0,0.0,0.0,0.0,0.0,0.0,0.0,0.0,0.0,0.0,0.0,0.0,0.0,0.0,0.0,0.0,0.0,0.0,0.0,0.0,0.0,0.0,0.0,0.0,0.0,0.0,0.0,0.0,0.0,0.0,0.0,0.0,0.0,0.0,0.0,0.0,0.0,0.0,0.0,0.0,0.0,0.0,0.0,0.0,0.0,0.0,0.0,0.0,0.0,0.0,0.0,0.0,0.0,0.0,0.0,0.0,0.0,0.0,0.0,0.0,0.0,0.0,0.0,0.0,0.0,0.0,0.0,0.0,0.0,0.0,0.0,0.0,0.0,0.0,0.0,0.0,0.0,0.0,0.0,0.0,0.0,0.0,0.0,0.0,0.0,0.0,0.0,0.0,0.0,0.0,0.0,0.0,0.0,0.0,0.0,0.0,0.0,0.0,0.0,0.0,0.0,0.0,0.0,0.0,0.0,0.0,0.0,0.0,0.0,0.0,0.0,0.0,0.0,0.0,0.0,0.0,0.0,0.0,0.0,0.0,0.0,0.0,0.0,0.0,0.0,0.0,0.0,0.0,0.0,0.0,0.0,0.0,0.0,0.0,0.0,0.0,0.0,0.0,0.0,0.0,0.0,0.0,0.0,0.0,0.0,0.0,0.0,0.0,0.0,0.0,0.0,0.0,0.0,0.0,0.0,0.0,0.0,0.0,0.0,0.0,0.0,0.0,0.0,0.0,0.0,0.0,0.0,0.0,0.0,0.0,0.0,0.0,0.0,0.0,0.0,0.0,0.0,0.0,0.0,0.0,0.0,0.0,0.0,0.0,0.0,0.0,0.0,0.0,0.0,0.0,0.0,0.0,0.0,0.0,0.0,0.0,0.0,0.0,0.0,0.0,0.0,0.0,0.0,0.0,0.0,0.0,0.0,0.0,0.0,0.0,0.0,0.0,0.0,0.0,0.0,0.0,0.0,0.0,0.0,0.0,0.0,0.0,0.0,0.0,0.0,0.0,0.0,0.0,0.0,0.0,0.0,0.0,0.0,0.0,0.0,0.0,0.0,0.0,0.0,0.0,0.0,0.0,0.0,0.0,0.0,0.0,0.0,0.0,0.0,0.0,0.0,0.0,0.0,0.0,0.0,0.0,0.0,0.0,0.0,0.0,0.0,0.0,0.0,0.0,0.0,0.0,0.0,0.0,0.0,0.0,0.0,0.0,0.0,0.0,0.0,0.0,0.0,0.0,0.0,0.0,0.0,0.0,0.0,0.0,0.0,0.0,0.0,0.0,0.0,0.0,0.0,0.0,0.0,0.0,0.0,0.0,0.0,0.0,0.0,0.0,0.0,0.0,0.0,0.0,0.0,0.0,0.0,0.0,0.0,0.0,0.0,0.0,0.0,0.0,0.0,0.0,0.0,0.0,0.0,0.0,0.0,0.0,0.0,0.0,0.0,0.0,0.0,0.0,0.0,0.0,0.0,0.0,0.0,0.0,0.0,0.0,0.0,0.0,0.0,0.0,0.0,0.0,0.0,0.0,0.0,0.0,0.0,0.0,0.0,0.0,0.0,0.0,0.0,0.0,0.0,0.0,0.0,0.0,0.0,0.0,0.0,0.0,0.0,0.0,0.0,0.0,0.0,0.0,0.0,0.0,0.0,0.0,0.0,0.0,0.0,0.0,0.0,0.0,0.0,0.0,0.0,0.0,0.0,0.0,0.0,0.0,0.0,0.0,0.0,0.0,0.0,0.0,0.0,0.0,0.0,0.0,0.0,0.0,0.0,0.0,0.0,0.0,0.0,0.0,0.0,0.0,0.0,0.0,0.0,0.0,0.0,0.0,0.0,0.0,0.0,0.0,0.0,0.0,0.0,0.0,0.0,0.0,0.0,0.0,0.0,0.0,0.0,0.0,0.0,0.0,0.0,0.0,0.0,0.0,0.0,0.0,0.0,0.0,0.0,0.0,0.0,0.0,0.0,0.0,0.0,0.0,0.0,0.0,0.0,0.0,0.0,0.0,0.0,0.0,0.0,0.0,0.0,0.0,0.0,0.0,0.0,0.0,0.0,0.0,0.0,0.0,0.0,0.0,0.0,0.0,0.0,0.0,0.0,0.0,0.0,0.0,0.0,0.0,0.0,0.0,0.0,0.0,0.0,0.0,0.0,0.0,0.0,0.0,0.0,0.0,0.0,0.0,0.0,0.0,0.0,0.0,0.0,0.0,0.0,0.0,0.0,0.0,0.0,0.0,0.0,0.0,0.0,0.0,0.0,0.0,0.0,0.0,0.0,0.0,0.0,0.0,0.0,0.0,0.0,0.0,0.0,0.0,0.0,0.0,0.0,0.0,0.0,0.0,0.0,0.0,0.0,0.0,0.0,0.0,0.0,0.0,0.0,0.0,0.0,0.0,0.0,0.0,0.0,0.0,0.0,0.0,0.0,0.0,0.0,0.0,0.0,0.0,0.0,0.0,0.0,0.0,0.0,0.0,0.0,0.0,0.0,0.0,0.0,0.0,0.0,0.0,0.0,0.0,0.0,0.0,0.0,0.0,0.0,0.0,0.0,0.0,0.0,1.9076,0.0,0.0,0.0,0.0,0.0,0.0,0.0,0.0,0.0,0.0,0.0,0.0,0.0,0.0,0.0,0.0,0.0,0.0,0.0,0.0,0.0,0.0,0.0,0.0,0.0,0.0,0.0,0.0,0.0,0.0,0.0,0.0,0.0,0.0,0.0,0.0,0.0,0.0,0.0,0.0,0.0,0.0,0.0,0.0,0.0,0.0,0.0,0.0,0.0,0.0,0.0,0.0,0.0,0.0,0.0,0.0,0.0,0.0,0.0,0.0,0.0,0.0,0.0,0.0,0.0,0.0,0.0,0.0,0.0,0.0,0.0,0.0,0.0,0.0,0.0,0.0,0.0,0.0,0.0,0.0,0.0,0.0,0.0,0.0,0.0,0.0,0.0,0.0,0.0,0.0,0.0,0.0,0.0,0.0,0.0,0.0,0.0,0.0,0.0,0.0,0.0,0.0,0.0,0.0,0.0,0.0,0.0,0.0,0.0,0.0,1.8716,1.8325,1.8539,1.8576,1.8415,0.0,0.0,0.0,0.0,0.0,0.0,0.0,0.0,0.0,0.0,0.0,0.0,0.0,0.0,0.0,0.0,0.0,0.0,0.0,0.0,0.0,0.0,0.0,0.0,0.0,0.0,0.0,0.0,0.0,0.0,0.0,0.0,0.0,0.0,0.0,0.0,0.0,0.0,0.0,0.0,0.0,0.0,0.0,0.0,0.0,0.0,0.0,0.0,0.0,0.0,0.0,0.0,0.0,0.0,0.0,0.0,0.0,0.0,0.0,0.0,0.0,0.0,0.0,0.0,0.0,0.0,0.0,0.0,0.0,0.0,0.0,0.0,0.0,0.0,0.0,0.0,0.0,0.0,0.0,0.0,0.0,0.0,0.0,0.0,0.0,0.0,0.0,0.0,0.0,0.0,0.0,0.0,0.0,0.0,0.0,0.0,0.0,0.0,0.0,0.0,0.0,0.0,0.0,0.0,0.0,0.0,0.0,0.0,0.0,0.0,0.0,0.0,1.7697,1.7803,1.783,0.0,0.0,0.0,0.0,0.0,0.0,0.0,0.0,0.0,0.0,0.0,0.0,0.0,0.0,0.0,0.0,0.0,0.0,0.0,0.0,0.0,0.0,0.0,0.0,0.0,0.0,0.0,0.0,0.0,0.0,0.0,0.0,0.0,0.0,0.0,0.0,0.0,0.0,0.0,0.0,0.0,0.0,0.0,0.0,0.0,0.0,0.0,0.0,0.0,0.0,0.0,0.0,0.0,0.0,0.0,0.0,0.0,0.0,0.0,0.0,0.0,0.0,0.0,0.0,0.0,0.0,0.0,0.0,0.0,0.0,0.0,0.0,0.0,0.0,0.0,0.0,0.0,0.0,0.0,0.0,0.0,0.0,0.0,0.0,0.0,0.0,0.0,0.0,0.0,0.0,0.0,0.0,0.0,0.0,0.0,0.0,0.0,0.0,0.0,0.0,0.0,0.0,0.0,0.0,0.0,0.0,0.0,0.0,0.0,0.0,1.6354,1.6563,1.6459,0.0,1.7479,0.0,0.0,0.0,0.0,0.0,0.0,0.0,0.0,0.0,0.0,0.0,0.0,0.0,0.0,0.0,0.0,0.0,0.0,0.0,0.0,0.0,0.0,0.0,0.0,0.0,0.0,0.0,0.0,0.0,0.0,0.0,0.0,0.0,0.0,0.0,0.0,0.0,0.0,0.0,0.0,0.0,0.0,0.0,0.0,0.0,0.0,0.0,0.0,0.0,0.0,0.0,0.0,0.0,0.0,0.0,0.0,0.0,0.0,0.0,0.0,0.0,0.0,0.0,0.0,0.0,0.0,0.0,0.0,0.0,0.0,0.0,0.0,0.0,0.0,0.0,0.0,0.0,0.0,0.0,0.0,0.0,0.0,0.0,0.0,0.0,0.0,0.0,0.0,0.0,0.0,0.0,0.0,0.0,0.0,0.0,0.0,0.0,0.0,0.0,0.0,0.0,0.0,0.0,0.0,0.0,0.0,0.0,0.0,0.0,0.0,1.5155,1.5152,1.5525,1.6116,0.0,0.0,0.0,0.0,0.0,0.0,0.0,0.0,0.0,0.0,0.0,0.0,0.0,0.0,0.0,0.0,0.0,0.0,0.0,0.0,0.0,0.0,0.0,0.0,0.0,0.0,0.0,0.0,0.0,0.0,0.0,0.0,0.0,0.0,0.0,0.0,0.0,0.0,0.0,0.0,0.0,0.0,0.0,0.0,0.0,0.0,0.0,0.0,0.0,0.0,0.0,0.0,0.0,0.0,0.0,0.0,0.0,0.0,0.0,0.0,0.0,0.0,0.0,0.0,0.0,0.0,0.0,0.0,0.0,0.0,0.0,0.0,0.0,0.0,0.0,0.0,0.0,0.0,0.0,0.0,0.0,0.0,0.0,0.0,0.0,0.0,0.0,0.0,0.0,0.0,0.0,0.0,0.0,0.0,0.0,0.0,0.0,0.0,0.0,0.0,0.0,0.0,0.0,0.0,0.0,0.0,0.0,0.0,0.0,0.0,1.3939,1.4048,1.3975,1.4785,1.5503,1.6172,0.0,0.0,0.0,0.0,0.0,0.0,0.0,0.0,0.0,0.0,0.0,0.0,0.0,0.0,0.0,0.0,0.0,0.0,0.0,0.0,0.0,0.0,0.0,0.0,0.0,0.0,0.0,0.0,0.0,0.0,0.0,0.0,0.0,0.0,0.0,0.0,0.0,0.0,0.0,0.0,0.0,0.0,0.0,0.0,0.0,0.0,0.0,0.0,0.0,0.0,0.0,0.0,0.0,0.0,0.0,0.0,0.0,0.0,0.0,0.0,0.0,0.0,0.0,0.0,0.0,0.0,0.0,0.0,0.0,0.0,0.0,0.0,0.0,0.0,0.0,0.0,0.0,0.0,0.0,0.0,0.0,0.0,0.0,0.0,0.0,0.0,0.0,0.0,0.0,0.0,0.0,0.0,0.0,0.0,0.0,0.0,0.0,0.0,0.0,0.0,0.0,0.0,0.0,0.0,0.0,0.0,0.0,0.0,1.3014,1.2829,1.2994,1.3391,1.3976,1.4562,0.0,0.0,0.0,0.0,0.0,0.0,0.0,0.0,0.0,0.0,0.0,0.0,0.0,0.0,0.0,0.0,0.0,0.0,0.0,0.0,0.0,0.0,0.0,0.0,0.0,0.0,0.0,0.0,0.0,0.0,0.0,0.0,0.0,0.0,0.0,0.0,0.0,0.0,0.0,0.0,0.0,0.0,0.0,0.0,0.0,0.0,0.0,0.0,0.0,0.0,0.0,0.0,0.0,0.0,0.0,0.0,0.0,0.0,0.0,0.0,0.0,0.0,0.0,0.0,0.0,0.0,0.0,0.0,0.0,0.0,0.0,0.0,0.0,0.0,0.0,0.0,0.0,0.0,0.0,0.0,0.0,0.0,0.0,0.0,0.0,0.0,0.0,0.0,0.0,0.0,0.0,0.0,0.0,0.0,0.0,0.0,0.0,0.0,0.0,0.0,0.0,0.0,0.0,0.0,0.0,0.0,0.0,0.0,0.0,1.2231,1.2276,1.2508,1.2804,1.3372,1.3788,0.0,0.0,0.0,0.0,0.0,0.0,0.0,0.0,0.0,0.0,0.0,0.0,0.0,0.0,0.0,0.0,0.0,0.0,0.0,0.0,0.0,0.0,0.0,0.0,0.0,0.0,0.0,0.0,0.0,0.0,0.0,0.0,0.0,0.0,0.0,0.0,0.0,0.0,0.0,0.0,0.0,0.0,0.0,0.0,0.0,0.0,0.0,0.0,0.0,0.0,0.0,0.0,0.0,0.0,0.0,0.0,0.0,0.0,0.0,0.0,0.0,0.0,0.0,0.0,0.0,0.0,0.0,0.0,0.0,0.0,0.0,0.0,0.0,0.0,0.0,0.0,0.0,0.0,0.0,0.0,0.0,0.0,0.0,0.0,0.0,0.0,0.0,0.0,0.0,0.0,0.0,0.0,0.0,0.0,0.0,0.0,0.0,0.0,0.0,0.0,0.0,0.0,0.0,0.0,0.0,0.0,0.0,0.0,0.0,1.1776,0.0,1.2158,1.2334,1.2723,1.2878,0.0,0.0,0.0,0.0,0.0,0.0,0.0,0.0,0.0,0.0,0.0,0.0,0.0,0.0,0.0,0.0,0.0,0.0,0.0,0.0,0.0,0.0,0.0,0.0,0.0,0.0,0.0,0.0,0.0,0.0,0.0,0.0,0.0,0.0,0.0,0.0,0.0,0.0,0.0,0.0,0.0,0.0,0.0,0.0,0.0,0.0,0.0,0.0,0.0,0.0,0.0,0.0,0.0,0.0,0.0,0.0,0.0,0.0,0.0,0.0,0.0,0.0,0.0,0.0,0.0,0.0,0.0,0.0,0.0,0.0,0.0,0.0,0.0,0.0,0.0,0.0,0.0,0.0,0.0,0.0,0.0,0.0,0.0,0.0,0.0,0.0,0.0,0.0,0.0,0.0,0.0,0.0,0.0,0.0,0.0,0.0,0.0,0.0,0.0,0.0,0.0,0.0,0.0,0.0,0.0,0.0,0.0,0.0,1.1784,1.1776,1.1776,1.1807,1.1854,1.1786,1.2065,0.0,0.0,0.0,0.0,0.0,0.0,0.0,0.0,0.0,0.0,0.0,0.0,0.0,0.0,0.0,0.0,0.0,0.0,0.0,0.0,0.0,0.0,0.0,0.0,0.0,0.0,0.0,0.0,0.0,0.0,0.0,0.0,0.0,0.0,0.0,0.0,0.0,0.0,0.0,0.0,0.0,0.0,0.0,0.0,0.0,0.0,0.0,0.0,0.0,0.0,0.0,0.0,0.0,0.0,0.0,0.0,0.0,0.0,0.0,0.0,0.0,0.0,0.0,0.0,0.0,0.0,0.0,0.0,0.0,0.0,0.0,0.0,0.0,0.0,0.0,0.0,0.0,0.0,0.0,0.0,0.0,0.0,0.0,0.0,0.0,0.0,0.0,0.0,0.0,0.0,0.0,0.0,0.0,0.0,0.0,0.0,0.0,0.0,0.0,0.0,0.0,0.0,0.0,0.0,0.0,0.0,0.0,0.0,0.0,1.1776,1.1776,1.1687,1.1618,1.167,1.1828,0.0,0.0,0.0,0.0,0.0,0.0,0.0,0.0,0.0,0.0,0.0,0.0,0.0,0.0,0.0,0.0,0.0,0.0,0.0,0.0,0.0,0.0,0.0,0.0,0.0,0.0,0.0,0.0,0.0,0.0,0.0,0.0,0.0,0.0,0.0,0.0,0.0,0.0,0.0,0.0,0.0,0.0,0.0,0.0,0.0,0.0,0.0,0.0,0.0,0.0,0.0,0.0,0.0,0.0,0.0,0.0,0.0,0.0,0.0,0.0,0.0,0.0,0.0,0.0,0.0,0.0,0.0,0.0,0.0,0.0,0.0,0.0,0.0,0.0,0.0,0.0,0.0,0.0,0.0,0.0,0.0,0.0,0.0,0.0,0.0,0.0,0.0,0.0,0.0,0.0,0.0,0.0,0.0,0.0,0.0,0.0,0.0,0.0,0.0,0.0,0.0,0.0,0.0,0.0,0.0,0.0,0.0,0.0,0.0,1.206,1.1939,1.1784,1.1606,1.1653,1.1701,1.1864,0.0,0.0,0.0,0.0,0.0,0.0,0.0,0.0,0.0,0.0,0.0,0.0,0.0,0.0,0.0,0.0,0.0,0.0,0.0,0.0,0.0,0.0,0.0,0.0,0.0,0.0,0.0,0.0,0.0,0.0,0.0,0.0,0.0,0.0,0.0,0.0,0.0,0.0,0.0,0.0,0.0,0.0,0.0,0.0,0.0,0.0,0.0,0.0,0.0,0.0,0.0,0.0,0.0,0.0,0.0,0.0,0.0,0.0,0.0,0.0,0.0,0.0,0.0,0.0,0.0,0.0,0.0,0.0,0.0,0.0,0.0,0.0,0.0,0.0,0.0,0.0,0.0,0.0,0.0,0.0,0.0,0.0,0.0,0.0,0.0,0.0,0.0,0.0,0.0,0.0,0.0,0.0,0.0,0.0,0.0,0.0,0.0,0.0,0.0,0.0,0.0,0.0,0.0,0.0,0.0,0.0,0.0,0.0,1.2556,1.2247,1.1996,1.1817,1.1622,1.1661,0.0,0.0,0.0,0.0,0.0,0.0,0.0,0.0,0.0,0.0,0.0,0.0,0.0,0.0,0.0,0.0,0.0,0.0,0.0,0.0,0.0,0.0,0.0,0.0,0.0,0.0,0.0,0.0,0.0,0.0,0.0,0.0,0.0,0.0,0.0,0.0,0.0,0.0,0.0,0.0,0.0,0.0,0.0,0.0,0.0,0.0,0.0,0.0,0.0,0.0,0.0,0.0,0.0,0.0,0.0,0.0,0.0,0.0,0.0,0.0,0.0,0.0,0.0,0.0,0.0,0.0,0.0,0.0,0.0,0.0,0.0,0.0,0.0,0.0,0.0,0.0,0.0,0.0,0.0,0.0,0.0,0.0,0.0,0.0,0.0,0.0,0.0,0.0,0.0,0.0,0.0,0.0,0.0,0.0,0.0,0.0,0.0,0.0,0.0,0.0,0.0,0.0,0.0,0.0,0.0,0.0,0.0,0.0,0.0,1.2548,1.2605,1.2483,1.2174,1.1866,1.198,0.0,0.0,0.0,0.0,0.0,0.0,0.0,0.0,0.0,0.0,0.0,0.0,0.0,0.0,0.0,0.0,0.0,0.0,0.0,0.0,0.0,0.0,0.0,0.0,0.0,0.0,0.0,0.0,0.0,0.0,0.0,0.0,0.0,0.0,0.0,0.0,0.0,0.0,0.0,0.0,0.0,0.0,0.0,0.0,0.0,0.0,0.0,0.0,0.0,0.0,0.0,0.0,0.0,0.0,0.0,0.0,0.0,0.0,0.0,0.0,0.0,0.0,0.0,0.0,0.0,0.0,0.0,0.0,0.0,0.0,0.0,0.0,0.0,0.0,0.0,0.0,0.0,0.0,0.0,0.0,0.0,0.0,0.0,0.0,0.0,0.0,0.0,0.0,0.0,0.0,0.0,0.0,0.0,0.0,0.0,0.0,0.0,0.0,0.0,0.0,0.0,0.0,0.0,0.0,0.0,0.0,0.0,0.0,1.2426,1.2889,1.2856,1.2775,1.2637,1.2296,1.2281,0.0,0.0,0.0,0.0,0.0,0.0,0.0,0.0,0.0,0.0,0.0,0.0,0.0,0.0,0.0,0.0,0.0,0.0,0.0,0.0,0.0,0.0,0.0,0.0,0.0,0.0,0.0,0.0,0.0,0.0,0.0,0.0,0.0,0.0,0.0,0.0,0.0,0.0,0.0,0.0,0.0,0.0,0.0,0.0,0.0,0.0,0.0,0.0,0.0,0.0,0.0,0.0,0.0,0.0,0.0,0.0,0.0,0.0,0.0,0.0,0.0,0.0,0.0,0.0,0.0,0.0,0.0,0.0,0.0,0.0,0.0,0.0,0.0,0.0,0.0,0.0,0.0,0.0,0.0,0.0,0.0,0.0,0.0,0.0,0.0,0.0,0.0,0.0,0.0,0.0,0.0,0.0,0.0,0.0,0.0,0.0,0.0,0.0,0.0,0.0,0.0,0.0,0.0,0.0,0.0,0.0,0.0,0.0,1.2475,1.3319,1.3027,1.2929,1.3051,1.2759,1.2515,0.0,0.0,0.0,0.0,0.0,0.0,0.0,0.0,0.0,0.0,0.0,0.0,0.0,0.0,0.0,0.0,0.0,0.0,0.0,0.0,0.0,0.0,0.0,0.0,0.0,0.0,0.0,0.0,0.0,0.0,0.0,0.0,0.0,0.0,0.0,0.0,0.0,0.0,0.0,0.0,0.0,0.0,0.0,0.0,0.0,0.0,0.0,0.0,0.0,0.0,0.0,0.0,0.0,0.0,0.0,0.0,0.0,0.0,0.0,0.0,0.0,0.0,0.0,0.0,0.0,0.0,0.0,0.0,0.0,0.0,0.0,0.0,0.0,0.0,0.0,0.0,0.0,0.0,0.0,0.0,0.0,0.0,0.0,0.0,0.0,0.0,0.0,0.0,0.0,0.0,0.0,0.0,0.0,0.0,0.0,0.0,0.0,0.0,0.0,0.0,0.0,0.0,0.0,0.0,0.0,0.0,0.0,0.0,1.254,1.3133,1.3076,1.2994,1.2889,1.2816,1.2764,0.0,0.0,0.0,0.0,0.0,0.0,0.0,0.0,0.0,0.0,0.0,0.0,0.0,0.0,0.0,0.0,0.0,0.0,0.0,0.0,0.0,0.0,0.0,0.0,0.0,0.0,0.0,0.0,0.0,0.0,0.0,0.0,0.0,0.0,0.0,0.0,0.0,0.0,0.0,0.0,0.0,0.0,0.0,0.0,0.0,0.0,0.0,0.0,2.0543,0.0,0.0,0.0,0.0,0.0,0.0,0.0,0.0,0.0,0.0,0.0,0.0,0.0,0.0,0.0,0.0,0.0,0.0,0.0,0.0,0.0,0.0,0.0,0.0,0.0,0.0,0.0,0.0,0.0,0.0,0.0,0.0,0.0,0.0,0.0,0.0,0.0,0.0,0.0,0.0,0.0,0.0,0.0,0.0,0.0,0.0,0.0,0.0,0.0,0.0,0.0,0.0,0.0,0.0,0.0,0.0,0.0,0.0,0.0,1.2694,1.2962,1.3141,1.31,1.2848,1.2751,1.2714,0.0,0.0,0.0,0.0,0.0,0.0,0.0,0.0,0.0,0.0,0.0,0.0,0.0,0.0,0.0,0.0,0.0,0.0,0.0,0.0,0.0,0.0,0.0,0.0,0.0,0.0,0.0,0.0,0.0,0.0,0.0,0.0,0.0,0.0,0.0,0.0,0.0,0.0,0.0,0.0,0.0,0.0,0.0,0.0,0.0,0.0,0.0,0.0,0.0,0.0,0.0,0.0,0.0,0.0,0.0,0.0,0.0,0.0,0.0,0.0,0.0,0.0,0.0,0.0,0.0,0.0,0.0,0.0,0.0,0.0,0.0,0.0,0.0,0.0,0.0,0.0,0.0,0.0,0.0,0.0,0.0,0.0,0.0,0.0,0.0,0.0,0.0,0.0,0.0,0.0,0.0,0.0,0.0,0.0,0.0,0.0,0.0,0.0,0.0,0.0,0.0,0.0,0.0,0.0,0.0,0.0,0.0,1.2523,1.28,1.2808,1.3116,1.3141,1.2848,1.2661,1.2573,1.2664,0.0,0.0,0.0,0.0,0.0,0.0,0.0,0.0,0.0,0.0,0.0,0.0,0.0,0.0,0.0,0.0,0.0,0.0,0.0,0.0,0.0,0.0,0.0,0.0,0.0,0.0,0.0,0.0,0.0,0.0,0.0,0.0,0.0,0.0,0.0,0.0,0.0,0.0,1.8985,1.9212,0.0,0.0,0.0,0.0,0.0,0.0,0.0,0.0,2.0902,0.0,0.0,0.0,0.0,0.0,0.0,0.0,0.0,0.0,0.0,0.0,0.0,0.0,0.0,0.0,0.0,0.0,0.0,0.0,0.0,0.0,0.0,0.0,0.0,0.0,0.0,0.0,0.0,0.0,0.0,0.0,0.0,0.0,0.0,0.0,0.0,0.0,0.0,0.0,0.0,0.0,0.0,0.0,0.0,0.0,0.0,0.0,0.0,0.0,0.0,0.0,0.0,0.0,0.0,0.0,0.0,1.1825,1.2337,1.2605,1.2613,1.2816,1.2897,1.2832,1.2661,1.2631,1.2488,0.0,0.0,0.0,0.0,0.0,0.0,0.0,0.0,0.0,0.0,0.0,0.0,0.0,0.0,0.0,0.0,0.0,0.0,0.0,0.0,0.0,0.0,0.0,0.0,0.0,0.0,0.0,0.0,0.0,0.0,0.0,0.0,0.0,0.0,0.0,0.0,0.0,0.0,0.0,1.9332,1.9452,0.0,0.0,0.0,0.0,0.0,0.0,0.0,0.0,2.2096,0.0,0.0,0.0,0.0,0.0,0.0,0.0,0.0,0.0,0.0,0.0,0.0,0.0,0.0,0.0,0.0,0.0,0.0,0.0,0.0,0.0,0.0,0.0,0.0,0.0,0.0,0.0,0.0,0.0,0.0,0.0,0.0,0.0,0.0,0.0,0.0,0.0,0.0,0.0,0.0,0.0,0.0,0.0,0.0,0.0,0.0,0.0,0.0,0.0,0.0,0.0,0.0,0.0,0.0,0.0,1.1931,1.2337,1.2564,1.2572,1.2743,1.2751,1.2564,1.2385,1.2291,0.0,0.0,0.0,0.0,0.0,0.0,0.0,0.0,0.0,0.0,0.0,0.0,0.0,0.0,0.0,0.0,0.0,0.0,0.0,0.0,0.0,0.0,0.0,0.0,0.0,0.0,0.0,0.0,0.0,0.0,0.0,0.0,0.0,0.0,0.0,0.0,0.0,0.0,0.0,0.0,1.9245,1.9391,1.9786,0.0,0.0,0.0,0.0,0.0,0.0,2.1117,2.1675,0.0,0.0,0.0,0.0,0.0,0.0,0.0,0.0,0.0,0.0,0.0,0.0,0.0,0.0,0.0,0.0,0.0,0.0,0.0,0.0,0.0,0.0,0.0,0.0,0.0,0.0,0.0,0.0,0.0,0.0,0.0,0.0,0.0,0.0,0.0,0.0,0.0,0.0,0.0,0.0,0.0,0.0,0.0,0.0,0.0,0.0,0.0,0.0,0.0,0.0,0.0,0.0,0.0,0.0,0.0,1.1987,1.2369,1.2548,1.2523,1.2726,1.2686,1.2369,1.2255,1.2077,0.0,0.0,0.0,0.0,0.0,0.0,0.0,0.0,0.0,0.0,0.0,0.0,0.0,0.0,0.0,0.0,0.0,0.0,0.0,0.0,0.0,0.0,0.0,0.0,0.0,0.0,0.0,0.0,0.0,0.0,0.0,0.0,0.0,0.0,0.0,0.0,0.0,0.0,0.0,0.0,0.0,1.9378,1.9761,1.996,0.0,0.0,0.0,0.0,2.0438,2.0828,0.0,0.0,0.0,0.0,0.0,0.0,0.0,0.0,0.0,0.0,0.0,0.0,0.0,0.0,0.0,0.0,0.0,0.0,0.0,0.0,0.0,0.0,0.0,0.0,0.0,0.0,0.0,0.0,0.0,0.0,0.0,0.0,0.0,0.0,0.0,0.0,0.0,0.0,0.0,0.0,0.0,0.0,0.0,0.0,0.0,0.0,0.0,0.0,0.0,0.0,0.0,0.0,0.0,0.0,0.0,0.0,1.1833,1.2304,1.2491,1.2361,1.2661,1.2743,1.254,1.267,1.2507,0.0,0.0,0.0,0.0,0.0,0.0,0.0,0.0,0.0,0.0,0.0,0.0,0.0,0.0,0.0,0.0,0.0,0.0,0.0,0.0,0.0,0.0,0.0,0.0,0.0,0.0,0.0,0.0,0.0,0.0,0.0,0.0,0.0,0.0,0.0,0.0,0.0,0.0,0.0,0.0,0.0,1.9116,1.9758,1.9728,2.0047,0.0,0.0,2.0808,2.1299,2.1348,0.0,0.0,0.0,0.0,0.0,0.0,0.0,0.0,0.0,0.0,0.0,0.0,0.0,0.0,0.0,0.0,0.0,0.0,0.0,0.0,0.0,0.0,0.0,0.0,0.0,0.0,0.0,0.0,0.0,0.0,0.0,0.0,0.0,0.0,0.0,0.0,0.0,0.0,0.0,0.0,0.0,0.0,0.0,0.0,0.0,0.0,0.0,0.0,0.0,0.0,0.0,0.0,0.0,0.0,0.0,1.1792,1.1922,1.215,1.232,1.2442,1.2507,1.2499,1.2418,1.2499,1.2328,0.0,0.0,0.0,0.0,0.0,0.0,0.0,0.0,0.0,0.0,0.0,0.0,0.0,0.0,0.0,0.0,0.0,0.0,0.0,0.0,0.0,0.0,0.0,0.0,0.0,0.0,0.0,0.0,0.0,0.0,0.0,0.0,0.0,0.0,0.0,0.0,0.0,0.0,0.0,0.0,0.0,0.0,1.9543,1.9866,0.0,0.0,0.0,2.0604,2.1012,0.0,0.0,0.0,0.0,0.0,0.0,0.0,0.0,0.0,0.0,0.0,0.0,0.0,0.0,0.0,0.0,0.0,0.0,0.0,0.0,0.0,0.0,0.0,0.0,0.0,0.0,0.0,0.0,0.0,0.0,0.0,0.0,0.0,0.0,0.0,0.0,0.0,0.0,0.0,0.0,0.0,0.0,0.0,0.0,0.0,0.0,0.0,0.0,0.0,0.0,0.0,0.0,0.0,0.0,0.0,0.0,0.0,1.1963,1.2052,1.2207,1.2418,1.2393,1.2328,1.2239,1.228,0.0,0.0,0.0,0.0,0.0,0.0,0.0,0.0,0.0,0.0,0.0,0.0,0.0,0.0,0.0,0.0,0.0,0.0,0.0,0.0,0.0,0.0,0.0,0.0,0.0,0.0,0.0,1.1078,0.0,0.0,0.0,0.0,0.0,0.0,0.0,0.0,0.0,0.0,0.0,0.0,0.0,0.0,1.7974,1.8729,1.9063,1.9511,0.0,0.0,2.0037,2.0428,2.0732,2.0816,0.0,0.0,0.0,0.0,0.0,0.0,0.0,0.0,0.0,0.0,0.0,0.0,0.0,0.0,0.0,0.0,0.0,0.0,0.0,0.0,0.0,0.0,0.0,0.0,0.0,0.0,0.0,0.0,0.0,0.0,0.0,0.0,0.0,0.0,0.0,0.0,0.0,0.0,0.0,0.0,0.0,0.0,0.0,0.0,0.0,0.0,0.0,0.0,0.0,0.0,0.0,0.0,0.0,0.0,0.0,1.1801,1.2117,1.2215,1.2085,1.2377,1.2385,1.2069,1.2215,1.2142,0.0,0.0,0.0,0.0,0.0,0.0,0.0,0.0,0.0,0.0,0.0,0.0,0.0,0.0,0.0,0.0,0.0,0.0,0.0,0.0,0.0,0.0,0.0,0.0,0.0,0.0,0.0,0.0,0.0,0.0,0.0,0.0,0.0,0.0,0.0,0.0,0.0,0.0,0.0,0.0,0.0,1.6014,1.6495,1.6797,1.7414,0.0,0.0,1.9178,2.0132,2.0068,1.9924,2.0174,0.0,0.0,0.0,0.0,0.0,0.0,0.0,0.0,0.0,0.0,0.0,0.0,0.0,0.0,0.0,0.0,0.0,0.0,0.0,0.0,0.0,0.0,0.0,0.0,0.0,0.0,0.0,0.0,0.0,0.0,0.0,0.0,0.0,0.0,0.0,0.0,0.0,0.0,0.0,0.0,0.0,0.0,0.0,0.0,0.0,0.0,0.0,0.0,0.0,0.0,0.0,0.0,0.0,1.1833,1.1931,1.2182,1.2272,1.2207,1.2337,1.2337,1.2207,1.2158,1.2077,0.0,0.0,0.0,0.0,0.0,0.0,0.0,0.0,0.0,0.0,0.0,0.0,0.0,0.0,0.0,0.0,0.0,0.0,0.0,0.0,0.0,0.0,0.0,0.0,0.0,0.0,0.0,0.0,1.0765,1.0798,1.0798,0.0,0.0,0.0,0.0,0.0,0.0,0.0,0.0,0.0,0.0,1.5142,1.5721,1.5905,0.0,0.0,1.7253,1.7792,1.8337,1.8847,1.9218,1.9173,1.9261,0.0,0.0,0.0,0.0,0.0,0.0,0.0,0.0,0.0,0.0,0.0,0.0,0.0,0.0,0.0,0.0,0.0,0.0,0.0,0.0,0.0,0.0,0.0,0.0,0.0,0.0,0.0,0.0,0.0,0.0,0.0,0.0,0.0,0.0,0.0,0.0,0.0,0.0,0.0,0.0,0.0,0.0,0.0,0.0,0.0,0.0,0.0,0.0,0.0,0.0,0.0,0.0,1.1857,1.2028,1.2215,1.228,1.2223,1.228,1.228,1.2223,1.2052,1.1955,0.0,0.0,0.0,0.0,0.0,0.0,0.0,0.0,0.0,0.0,0.0,0.0,0.0,0.0,0.0,0.0,0.0,0.0,0.0,0.0,0.0,0.0,0.0,0.0,0.0,0.0,0.0,0.0,1.0688,1.0688,1.0688,0.0,0.0,0.0,0.0,0.0,0.0,0.0,0.0,0.0,0.0,1.4058,1.472,1.4898,1.5227,1.5639,1.6328,1.6909,1.7257,1.7985,1.8362,1.8232,0.0,0.0,0.0,0.0,0.0,0.0,0.0,0.0,0.0,0.0,0.0,0.0,0.0,0.0,0.0,0.0,0.0,0.0,0.0,0.0,0.0,0.0,0.0,0.0,0.0,0.0,0.0,0.0,0.0,0.0,1.2832,0.0,0.0,0.0,0.0,0.0,0.0,0.0,0.0,0.0,0.0,0.0,0.0,0.0,0.0,0.0,0.0,0.0,0.0,0.0,0.0,0.0,0.0,0.0,1.2028,1.2215,1.2223,1.2052,1.2215,1.2223,1.2052,1.1874,1.1784,1.1784,0.0,0.0,0.0,0.0,0.0,0.0,0.0,0.0,0.0,0.0,0.0,0.0,0.0,0.0,0.0,0.0,0.0,0.0,0.0,0.0,0.0,0.0,0.0,0.0,0.0,0.0,1.0688,1.0688,1.0688,0.0,0.0,0.0,0.0,0.0,0.0,0.0,0.0,0.0,0.0,1.2604,1.2491,1.3367,1.3681,1.4279,1.5037,1.5972,1.6675,1.7044,1.7391,1.7514,0.0,0.0,0.0,0.0,0.0,0.0,0.0,0.0,0.0,0.0,0.0,0.0,0.0,0.0,0.0,0.0,0.0,0.0,0.0,0.0,0.0,0.0,0.0,0.0,0.0,0.0,0.0,1.3189,1.3181,0.0,0.0,0.0,0.0,0.0,0.0,0.0,0.0,0.0,0.0,0.0,1.2402,1.2507,0.0,0.0,0.0,0.0,0.0,0.0,0.0,0.0,0.0,0.0,0.0,0.0,1.2036,1.2207,1.2272,1.228,1.2215,1.2272,1.228,1.2215,1.1931,1.1776,1.1776,0.0,0.0,0.0,0.0,0.0,0.0,0.0,0.0,0.0,0.0,0.0,0.0,0.0,0.0,0.0,0.0,0.0,0.0,0.0,0.0,0.0,0.0,0.0,0.0,0.0,1.0688,0.0,0.0,0.0,0.0,0.0,0.0,0.0,0.0,0.0,0.0,0.0,1.2088,1.2214,1.2164,1.2327,1.2828,1.3119,1.3491,0.0,0.0,0.0,0.0,0.0,0.0,0.0,0.0,0.0,0.0,0.0,0.0,0.0,0.0,1.6739,1.6893,1.7168,1.7302,1.7426,0.0,0.0,0.0,0.0,0.0,0.0,0.0,0.0,0.0,0.0,0.0,0.0,0.0,0.0,0.0,0.0,1.3189,0.0,0.0,0.0,0.0,0.0,0.0,0.0,0.0,1.258,1.2483,1.2215,1.2328,1.232,0.0,1.2272,1.2361,0.0,0.0,0.0,0.0,0.0,0.0,0.0,0.0,1.215,1.2377,1.2337,1.2304,1.2304,1.2304,1.2304,1.2296,1.1963,1.1776,1.1776,1.1882,1.189,0.0,0.0,0.0,0.0,0.0,0.0,0.0,0.0,0.0,0.0,0.0,0.0,0.0,0.0,0.0,0.0,0.0,0.0,0.0,0.0,0.0,0.0,0.0,1.0875,0.0,0.0,0.0,0.0,0.0,0.0,0.0,0.0,0.0,1.1598,1.1752,1.1841,1.1784,1.2122,1.2448,1.2589,0.0,0.0,0.0,0.0,0.0,0.0,0.0,1.5533,1.5731,1.5808,1.5833,1.5805,1.5857,1.5939,1.5939,0.0,0.0,1.6495,1.6794,1.6932,1.6932,1.7055,1.7179,1.7414,1.7538,1.7784,0.0,0.0,0.0,0.0,0.0,0.0,0.0,0.0,1.3059,1.3051,0.0,1.3238,0.0,0.0,0.0,0.0,0.0,0.0,0.0,0.0,1.1979,1.189,1.2028,1.2044,1.2036,1.2044,1.2207,1.2288,1.2272,1.2109,0.0,0.0,0.0,0.0,0.0,0.0,1.2215,1.2532,1.2385,1.2304,1.2304,1.2304,1.2296,1.228,1.1955,1.1776,1.1776,1.1776,1.1776,1.1776,1.1768,0.0,0.0,0.0,0.0,0.0,0.0,0.0,0.0,0.0,0.0,0.0,0.0,0.0,0.0,0.0,0.0,0.0,0.0,0.0,0.0,1.1135,0.0,0.0,0.0,0.0,0.0,0.0,0.0,0.0,0.0,0.0,1.1784,1.1931,1.1979,1.1817,0.0,0.0,0.0,0.0,1.3599,1.3891,1.425,1.4502,1.4493,1.4852,1.5159,1.5337,0.0,0.0,1.5349,1.5391,1.5391,1.5276,1.534,1.5523,1.6124,1.6269,1.6269,1.6269,1.6495,1.6764,1.6775,1.6977,1.7245,1.3165,0.0,0.0,0.0,0.0,1.3433,1.3457,1.3425,1.3595,1.3644,1.3595,1.3571,0.0,0.0,0.0,0.0,0.0,0.0,1.2402,1.2125,1.2264,1.2231,1.2036,1.2166,1.2158,1.2036,1.2085,1.2044,1.1931,1.1874,1.206,1.2491,0.0,0.0,0.0,0.0,1.2402,1.2377,1.2328,1.2304,1.2304,1.2304,1.219,1.1939,1.1833,1.1776,1.1776,1.1776,1.1776,1.1776,1.1776,0.0,0.0,0.0,0.0,0.0,0.0,0.0,0.0,0.0,0.0,0.0,0.0,0.0,0.0,0.0,0.0,0.0,0.0,0.0,1.1143,1.1313,1.1362,0.0,0.0,0.0,0.0,0.0,0.0,0.0,0.0,0.0,1.2331,1.2233,1.2215,0.0,0.0,1.2858,1.2969,1.36,1.4163,1.4459,0.0,0.0,0.0,1.5082,1.5072,1.5286,1.5371,1.5471,1.5471,1.5508,1.5555,1.5555,1.5375,1.5408,1.5752,1.5806,1.5806,1.5806,1.5926,1.5915,1.5915,1.6046,1.6166,1.3376,1.3465,1.3319,1.3262,1.3279,1.3457,1.349,1.3441,1.3612,1.3693,1.3693,1.366,1.3644,1.3636,1.3417,0.0,0.0,0.0,1.2442,1.2044,1.2328,1.2345,1.2158,1.2255,1.2247,1.2142,1.2142,1.2052,1.1882,1.202,1.2215,1.2458,0.0,0.0,1.2564,1.2426,1.2369,1.2402,1.2272,1.2231,1.2304,1.2231,1.206,1.1792,1.1776,1.1776,1.1776,1.1776,1.1776,1.1776,1.1776,1.1776,0.0,0.0,0.0,0.0,0.0,0.0,0.0,0.0,0.0,0.0,0.0,1.0802,0.0,0.0,0.0,0.0,1.1141,1.12,1.1083,1.1303,0.0,0.0,0.0,0.0,0.0,0.0,0.0,1.1623,1.2037,1.2398,1.2653,1.2441,1.2373,1.2482,1.3014,1.3277,1.2966,0.0,1.4144,1.4404,1.4612,1.4779,1.4983,1.4942,1.485,1.5131,1.5147,1.5224,1.5298,1.5365,1.5386,1.5515,1.5408,1.5322,1.5558,1.5601,1.5601,1.5601,1.5601,1.5601,1.5601,1.5601,1.5601,1.3701,1.3652,1.3287,1.3133,1.3133,1.3311,1.3295,1.3157,1.3336,1.3409,1.3425,1.3571,1.3636,1.362,1.3604,0.0,1.2832,1.2808,1.2523,1.206,1.2231,1.2312,1.2328,1.2328,1.2328,1.2328,1.2328,1.2231,1.2077,1.2377,1.2475,1.2345,1.2158,1.2247,1.2548,1.2264,1.2247,1.2556,1.2239,1.2142,1.228,1.2101,1.1931,1.1784,1.1776,1.1776,1.1776,1.1776,1.1776,1.1776,1.1776,1.1776,1.1776,0.0,0.0,0.0,0.0,0.0,0.0,0.0,0.0,0.0,0.0,0.0,0.0,0.0,0.0,0.0,1.1146,0.0,1.0914,1.1068,0.0,0.0,0.0,1.1579,1.1792,1.1776,1.2018,1.25,0.0,0.0,1.3014,0.0,1.2524,1.2768,1.3523,1.3721,1.2835,1.3381,1.3877,1.3984,1.401,1.4182,1.454,1.4646,1.4814,1.4842,1.4891,1.5031,1.5192,1.5095,1.5117,1.544,1.5343,1.5268,1.5515,1.5537,1.5558,1.558,1.5601,1.5601,1.5601,1.5601,1.5601,1.4172,1.4018,1.366,1.3433,1.3319,1.3498,1.3555,1.353,1.3701,1.3774,1.3766,1.3685,1.3563,1.3433,1.3287,1.3084,1.2824,1.2556,1.2369,1.2247,1.2288,1.2377,1.2499,1.2499,1.2499,1.2499,1.2499,1.241,1.2247,1.232,1.2483,1.2694,1.2523,1.2548,1.2759,1.2686,1.2621,1.2564,1.2483,1.2328,1.2101,1.1922,1.1817,1.1776,1.1776,1.1776,1.1776,1.1776,1.1776,1.1776,1.1776,1.1776,1.1776,1.1776,0.0,0.0,0.0,0.0,0.0,0.0,0.0,0.0,0.0,1.07,1.0478,0.0,1.074,0.0,1.121,1.1425,1.1542,1.1606,0.0,0.0,1.1461,1.1323,1.1398,1.1881,1.193,1.1456,1.2365,1.3128,1.3242,1.3665,1.3732,1.3481,1.3295,1.3256,1.3545,1.3917,1.4159,1.4172,1.4392,1.473,1.4782,1.4823,1.4767,1.4654,1.4912,1.5117,1.4988,1.5085,1.5149,1.5063,1.4869,1.488,1.5268,1.5182,1.5214,1.5505,1.5601,1.5601,1.5601,1.5601,1.5601,1.457,1.4391,1.4107,1.3985,1.3953,1.3742,1.3644,1.3652,1.375,1.3831,1.3896,1.3798,1.3701,1.3595,1.3417,1.3197,1.2946,1.2743,1.2572,1.2434,1.258,1.271,1.28,1.28,1.28,1.28,1.2726,1.2596,1.2426,1.2418,1.2483,1.2596,1.2499,1.258,1.2824,1.2832,1.2824,1.28,1.2637,1.2393,1.2044,1.1866,1.1849,1.2004,1.1931,1.1963,1.2117,1.2052,1.2012,1.2012,1.2012,1.2012,1.2012,1.2012,1.2012,0.0,0.0,0.0,0.0,0.0,0.0,0.0,0.0,0.0,0.0,0.0,1.0793,0.0,1.1187,1.1495,1.1409,1.1471,1.161,1.1654,1.1516,1.1362,1.1534,1.176,1.1922,1.1776,1.2273,1.276,1.2995,1.3125,1.3295,1.3452,1.3205,1.3104,1.3433,1.3924,1.4241,1.4323,1.4505,1.4579,1.4579,1.4579,1.4536,1.4439,1.4611,1.4762,1.4729,1.4751,1.4794,1.4859,1.4772,1.4805,1.516,1.5149,1.5149,1.5332,1.5354,1.5365,1.5558,1.5601,1.5601,1.4911,1.4757,1.4554,1.4546,1.4619,1.3985,1.375,1.3815,1.3815,1.3863,1.3937,1.3912,1.3888,1.3855,1.3709,1.3465,1.3165,1.3141,1.2962,1.2694,1.2986,1.3124,1.3133,1.3124,1.3124,1.3124,1.2954,1.2791,1.2637,1.2613,1.2548,1.2442,1.2418,1.2588,1.2921,1.2913,1.297,1.3084,1.2767,1.2434,1.2109,1.1996,1.2085,1.2353,1.2215,1.2272,1.2548,1.2418,1.2328,1.2304,1.2304,1.2296,1.2272,1.2272,1.2264,0.0,1.1988,0.0,0.0,0.0,0.0,0.0,0.0,0.0,0.0,1.0936,1.0822,1.0944,1.1325,1.1402,1.1132,1.1268,1.1298,1.1518,1.1503,1.1571,1.1792,1.1776,1.2018,1.2483,1.213,1.213,1.2612,1.2251,1.2303,1.294,1.2873,1.2639,1.2889,1.3618,1.4201,1.4471,1.432,1.4245,1.4234,1.4223,1.4213,1.4202,1.4277,1.4288,1.4471,1.4385,1.4374,1.4697,1.4783,1.4902,1.516,1.5214,1.5246,1.5257,1.5117,1.5106,1.5429,1.5537,1.5558,1.5171,1.5106,1.4789,1.4586,1.4456,1.4196,1.4318,1.4716,1.4716,1.4489,1.4123,1.3969,1.3823,1.3693,1.366,1.3612,1.353,1.3384,1.3279,1.3222,1.3287,1.3319,1.3319,1.3319,1.3319,1.3303,1.3133,1.3027,1.2994,1.2848,1.2913,1.3157,1.3019,1.3124,1.3465,0.0,0.0,0.0,1.2889,1.2678,1.2483,1.271,1.2808,1.2743,1.2702,0.0,1.2564,1.2532,1.245,1.232,1.2304,0.0,0.0,0.0,0.0,0.0,0.0,0.0,0.0,0.0,0.0,0.0,1.1117,1.0934,1.0929,1.0912,1.1117,1.1364,1.1387,1.1602,1.1598,1.1736,1.1744,1.1712,1.1704,1.1809,1.1776,1.1776,1.1897,1.1897,1.2251,1.2603,1.2595,1.2595,1.2269,1.1963,1.167,1.1731,1.2028,1.3257,1.4213,1.4245,1.4223,1.4191,1.4191,1.4191,1.4191,1.4213,1.4363,1.4406,1.4299,1.4396,1.4385,1.4385,1.4482,1.4686,1.4912,1.5106,1.5225,1.5246,1.5192,1.5214,1.53,1.5322,1.5375,1.5317,0.0,1.4944,1.483,0.0,1.4741,1.4903,1.5195,1.4667,1.4294,1.4042,1.3945,1.3855,1.3782,1.3953,1.3985,1.3912,1.3993,1.3888,1.3644,1.3725,1.3677,1.3506,1.3506,1.3506,1.3498,1.3319,1.323,1.3222,1.3141,1.3197,1.3368,1.3181,1.3189,1.336,1.3197,1.31,1.3092,1.2921,1.271,1.245,1.2523,1.2572,1.2572,0.0,0.0,0.0,0.0,0.0,0.0,0.0,0.0,0.0,0.0,0.0,1.2044,1.1913,1.1872,1.1906,1.1531,1.1401,1.1662,1.1539,1.1287,1.1157,1.1287,1.1417,1.1662,1.1662,1.1752,1.1784,1.1776,1.1776,1.1776,1.1776,1.1776,1.1776,1.1405,1.1042,1.1042,1.1277,1.139,1.0899,1.1183,1.1185,1.0552,1.0263,1.056,1.1731,1.2721,1.3413,1.4083,1.4191,1.4191,1.4191,1.4191,1.4191,1.4213,1.4288,1.4309,1.4213,1.4288,1.432,1.4234,1.4385,1.4579,1.4686,1.4815,1.4891,1.4891,1.4805,1.4783,1.4869,1.4988,1.5095,1.5423,1.5268,1.509,1.5082,1.5187,1.5155,1.5195,1.522,0.0,0.0,0.0,1.3928,1.3904,1.392,1.4205,1.4261,1.4148,1.4432,1.4326,1.3912,1.4058,1.3969,1.3693,1.3685,1.3685,1.3685,1.3506,1.3417,1.3417,1.3384,1.3368,1.336,1.3214,1.3124,1.3092,1.2954,1.2938,1.3043,1.297,1.2759,1.241,1.2312,1.2312,1.2402,1.2255,1.2296,1.2548,1.2426,1.2337,1.2304,1.2304,1.2296,1.2264,1.2255,1.2247,1.2215,1.1964,1.19,1.1996,1.1733,1.1678,1.1784,1.1776,1.1712,1.1602,1.1736,1.1776,1.1776,1.1776,1.1776,1.1776,1.1776,1.1776,1.1534,1.1526,1.1534,1.1285,1.055,1.0058,1.0058,1.0058,0.968,0.9035,0.9427,0.9523,0.9122,0.8762,0.942,1.1152,1.2318,1.3197,1.3975,1.4191,1.4191,1.4191,1.4191,1.4191,1.4191,1.4202,1.4191,1.4191,1.4191,1.4191,1.4202,1.4385,1.4514,1.4546,1.4611,1.4579,1.4546,1.4385,1.4299,1.4439,1.4622,1.4783,1.5504,1.5463,1.5277,1.5122,1.4992,1.4846,1.4627,1.4383,1.4521,1.4505,1.4335,1.4034,1.3904,1.3904,1.3953,1.3961,1.3945,1.3993,1.3969,0.0,1.3928,1.3912,1.3863,1.3863,1.3863,1.3855,1.3685,1.3604,1.3587,1.3449,1.3368,1.3376,1.3344,1.3254,1.3108,1.3068,1.2994,1.2889,1.3157,1.3124,1.2775,1.3035,1.3043,1.2775,1.2718,1.267,1.2564,1.2532,1.2458,1.2312,1.2304,1.2239,1.2077,1.2069,1.2004,1.1866,1.1849,1.1841,1.1817,1.1809,1.1801,1.1784,1.1776,1.1784,1.1809,1.1784,1.1776,1.1776,1.1776,1.1776,1.1776,1.1776,1.1526,1.0671,1.055,1.0179,0.9451,0.9201,0.9079,0.9079,0.8958,0.8908,0.8576,0.8283,0.806,0.7645,0.7561,0.7613,0.9728,1.2209,1.3856,1.4191,1.4191,1.4191,1.4191,1.4191,1.4191,1.4191,1.4191,1.4191,1.4191,1.4191,1.4191,1.4191,1.4363,1.4492,1.4525,1.4708,1.4676,1.4546,1.4449,1.4417,1.4299,1.4309,1.4318,1.5658,1.5618,1.5358,1.5195,1.5098,1.4919,1.47,1.4473,1.4529,1.4399,1.414,1.3969,1.3904,1.392,1.4099,1.4188,1.4196,1.4391,1.4375,1.4196,1.4188,1.4083,1.3912,1.3904,1.3904,1.3896,1.3823,1.3782,1.3774,1.3701,1.366,1.3652,1.3571,1.3425,1.3254,1.3141,1.3059,1.2978,1.3043,1.2913,1.2564,1.271,1.2621,1.2272,1.2255,1.2223,1.2142,1.2134,1.2101,1.202,1.202,1.1979,1.1898,1.189,1.1857,1.1784,1.1776,1.1776,1.1776,1.1776,1.1776,1.1776,1.1776,1.1776,1.1776,1.1776,1.1776,1.1776,1.1776,1.1776,1.1776,1.1776,1.1655,1.1163,1.1163,1.0671,0.9815,0.9079,0.8593,0.8099,0.7928,0.7747,0.7215,0.722,0.7006,0.6541,0.694,0.8097,0.903,1.1446,1.3315,1.364,1.3975,1.4191,1.4191,1.4191,1.4191,1.4191,1.4191,1.4191,1.4191,1.4191,1.4191,1.4191,1.4288,1.4342,1.4352,1.4428,1.4439,1.4406,1.4352,1.4288,1.4213,1.3748,1.3604,1.5772,1.574,1.5431,1.5277,1.522,1.5,1.483,1.4692,1.4513,1.4278,1.4034,1.3937,1.3904,1.3928,1.4188,1.431,1.4351,1.4603,1.457,1.4326,1.431,1.4164,1.3928,1.3904,1.3904,1.3904,1.3904,1.3904,1.3904,1.3904,1.3904,1.3888,1.3766,1.3612,1.3433,1.3246,1.3133,1.3092,1.2929,1.2661,1.232,1.2304,1.2142,1.1809,1.1776,1.1776,1.1776,1.1776,1.1776,1.1776,1.1776,1.1776,1.1776,1.1776,1.1776,1.1776,1.1776,1.1776,1.1776,1.1776,1.1776,1.1776,1.1776,1.1776,1.1776,1.1776,1.1776,1.1776,1.1776,1.1776,1.1776,1.1776,1.1776,1.1534,1.1526,1.0793,0.9815,0.8958,0.8105,0.7245,0.6938,0.6644,0.6094,0.6327,0.6331,0.593,0.7198,0.8361,0.8906,1.0562,1.2001,1.2881,1.3532,1.3975,1.3975,1.4083,1.4191,1.4191,1.4191,1.4191,1.4191,1.4191,1.4191,1.4191,1.4191,1.4213,1.4202,1.4213,1.4223,1.4213,1.4223,1.4202,1.4202,1.3305,1.2743,1.5772,1.5748,1.5561,1.539,1.5195,1.4879,1.4732,1.4692,1.4513,1.4416,1.4351,1.405,1.3904,1.3904,1.3953,1.3977,1.3969,1.3985,1.4002,1.3969,1.3953,1.3928,1.3904,1.3904,1.3904,1.3904,1.3904,1.3904,1.3904,1.3904,1.3904,1.3904,1.3888,1.379,1.362,1.3433,1.3262,1.3092,1.2929,1.2661,1.2328,1.2304,1.2142,1.1784,1.1776,1.1776,1.1776,1.1776,1.1776,1.1776,1.1776,1.1776,1.1776,1.1776,1.1776,1.1776,1.1776,1.1776,1.1776,1.1776,1.1776,1.1776,1.1776,1.1776,1.1776,1.1776,1.1776,1.1776,1.1776,1.1776,1.1776,1.1776,1.1526,1.0793,1.0671,0.9694,0.8227,0.7617,0.7128,0.6158,0.6141,0.5964,0.5696,0.5739,0.5672,0.5547,0.64,0.7371,0.8029,0.9347,1.068,1.1673,1.2663,1.3315,1.3423,1.3867,1.4083,1.4191,1.4191,1.4191,1.4191,1.4191,1.4191,1.4191,1.4191,1.4191,1.4191,1.4191,1.4191,1.4191,1.4191,1.4083,1.4083,1.3088,1.2417,1.5772,1.5748,1.5472,1.5244,1.5065,1.4919,1.4862,1.4846,1.4667,1.4594,1.4554,1.4221,1.4066,1.4066,1.4066,1.401,1.3904,1.3904,1.3904,1.3904,1.3904,1.3904,1.3904,1.3904,1.3904,1.3904,1.3904,1.3904,1.3904,1.3904,1.3904,1.3904,1.3904,1.3863,1.3774,1.3514,1.3336,1.3254,1.2978,1.2718,1.2483,1.2361,1.2142,1.1817,1.1776,1.1776,1.1776,1.1776,1.1776,1.1776,1.1776,1.1776,1.1776,1.1776,1.1776,1.1776,1.1285,1.0671,1.0058,1.055,1.0921,1.0921,1.1413,1.1776,1.1776,1.1776,1.1776,1.1776,1.1776,1.1776,1.1776,1.1776,1.1655,1.1285,1.1163,1.0429,0.8471,0.8227,0.7622,0.6158,0.5867,0.5794,0.5659,0.5549,0.5488,0.5556,0.6205,0.6831,0.7265,0.814,0.9244,1.0241,1.1227,1.2318,1.3098,1.3759,1.4083,1.4191,1.4191,1.4191,1.4191,1.4191,1.4191,1.4191,1.4191,1.4191,1.4191,1.4191,1.4191,1.4083,1.3413,1.3186,1.3088,1.1655,1.0562,1.5772,1.5715,1.539,1.5195,1.5106,1.5009,1.4968,1.4952,1.483,1.4781,1.4749,1.4505,1.4367,1.4302,1.4172,1.4026,1.3912,1.3904,1.3904,1.3904,1.3904,1.3904,1.3904,1.3904,1.3904,1.3904,1.3904,1.3904,1.3904,1.3904,1.3904,1.3904,1.3904,1.3904,1.3863,1.3547,1.3368,1.3344,1.3019,1.2751,1.2564,1.2393,1.2158,1.1874,1.1801,1.1776,1.1776,1.1776,1.1776,1.1776,1.1776,1.1776,1.1776,1.1776,1.1655,1.1285,1.0429,0.9572,0.8836,0.9694,1.0308,1.0429,1.1285,1.1776,1.1776,1.1776,1.1776,1.1776,1.1776,1.1776,1.1776,1.1776,1.1776,1.1776,1.1655,1.0671,0.9079,0.8593,0.7744,0.6154,0.5872,0.5786,0.5688,0.5565,0.5488,0.5606,0.6016,0.6537,0.6756,0.7315,0.7979,0.8974,0.9972,1.127,1.2782,1.3759,1.4083,1.4191,1.4191,1.4191,1.4191,1.4191,1.4191,1.4191,1.4191,1.4191,1.4191,1.4191,1.3856,1.364,1.297,1.22,1.1982,1.0233,0.9251,1.5772,1.5723,1.539,1.5317,1.5455,1.5114,1.4968,1.4968,1.4952,1.4952,1.4944,1.4903,1.483,1.4635,1.418,1.392,1.3904,1.3912,1.3912,1.3904,1.3904,1.3904,1.3904,1.3904,1.3904,1.3928,1.3928,1.3912,1.3904,1.3904,1.3904,1.3904,1.3904,1.3904,1.3855,1.3547,1.3376,1.3336,1.3019,1.2751,1.2572,1.2402,1.2215,1.2028,1.1857,1.1776,1.1776,1.1776,1.1776,1.1776,1.1776,1.1776,1.1776,1.1776,1.1285,1.0308,0.9451,0.8836,0.8836,0.9572,1.0186,1.0429,1.1042,1.1776,1.1655,1.1776,1.1776,1.1776,1.1647,1.1655,1.1655,1.1655,1.1776,1.1647,1.0914,0.9937,0.8836,0.7983,0.7133,0.6158,0.5896,0.5855,0.5782,0.5692,0.5594,0.5545,0.5622,0.5842,0.6526,0.6749,0.7317,0.8094,0.9096,1.0189,1.2046,1.3207,1.3867,1.4191,1.4191,1.4191,1.4191,1.4191,1.4191,1.4191,1.4191,1.4191,1.4191,1.3867,1.3305,1.2861,1.2309,1.1647,1.0891,0.9794,0.892,1.5707,1.5577,1.522,1.5171,1.5301,1.5074,1.4968,1.4968,1.4968,1.4968,1.4944,1.4846,1.4765,1.4692,1.4383,1.418,1.4083,1.4083,1.4018,1.3912,1.3904,1.3904,1.3912,1.4018,1.4083,1.4075,1.4075,1.4018,1.3904,1.3904,1.3904,1.3904,1.3904,1.3904,1.3839,1.3547,1.3368,1.3336,1.3019,1.28,1.271,1.2458,1.2272,1.2199,1.1922,1.1776,1.1776,1.1776,1.1776,1.1776,1.1776,1.1526,1.0921,1.0186,0.9451,0.8593,0.8105,0.7617,0.7133,0.7867,0.8714,0.9329,1.0301,1.0793,1.0914,1.1405,1.1285,1.0308,1.055,1.055,1.0301,1.1035,1.1526,1.0914,1.0429,0.9572,0.8349,0.7617,0.7011,0.6149,0.5872,0.5835,0.5835,0.5737,0.5659,0.5671,0.5631,0.5714,0.5942,0.6058,0.6383,0.7117,0.7885,0.8739,0.9919,1.1873,1.3197,1.3856,1.4191,1.4083,1.4083,1.4083,1.3975,1.3975,1.4083,1.3532,1.3305,1.2427,1.1991,1.1546,1.0992,1.0562,0.9574,0.8699,0.8146,1.5756,1.5561,1.5268,1.5179,1.5212,1.5041,1.4968,1.4968,1.4968,1.4968,1.4944,1.4838,1.4789,1.4773,1.4659,1.4513,1.4351,1.4286,1.4188,1.4083,1.4075,1.4066,1.4091,1.4205,1.4261,1.4253,1.4205,1.4083,1.392,1.3904,1.3904,1.3904,1.3904,1.3904,1.3839,1.3547,1.3368,1.3303,1.3019,1.2832,1.2791,1.2491,1.2304,1.2255,1.1963,1.1776,1.1776,1.1776,1.1776,1.1776,1.1534,1.0914,0.9815,0.8836,0.8105,0.7495,0.7128,0.6766,0.6526,0.7011,0.7861,0.8714,0.9323,0.9815,0.9815,1.0422,1.0058,0.9323,0.9329,0.9451,0.9201,1.0058,1.055,0.9937,0.9572,0.8842,0.7617,0.7133,0.6648,0.6031,0.5872,0.5863,0.5888,0.5806,0.5761,0.5782,0.5725,0.5692,0.5688,0.5684,0.5773,0.6378,0.6819,0.7533,0.8418,0.9896,1.1101,1.1873,1.298,1.3197,1.3532,1.3532,1.364,1.3748,1.3413,1.2753,1.1982,1.1109,1.0453,1.0006,0.9794,0.9361,0.8478,0.7598,0.7265,1.5926,1.5756,1.5585,1.5407,1.5268,1.5082,1.4976,1.4992,1.4976,1.4968,1.496,1.4952,1.4935,1.4952,1.4911,1.4846,1.4684,1.4529,1.4432,1.4383,1.4391,1.4391,1.4391,1.4416,1.4424,1.4399,1.4253,1.4083,1.3912,1.3904,1.3904,1.3904,1.3904,1.3904,1.3896,1.3571,1.3384,1.3303,1.3035,1.2856,1.2791,1.2491,1.2304,1.2272,1.1963,1.1776,1.1776,1.1776,1.1776,1.1655,1.0914,0.9815,0.8836,0.7861,0.7373,0.7133,0.6403,0.6403,0.7133,0.725,0.7617,0.8471,0.8714,0.8836,0.8836,0.8958,0.8958,0.8593,0.8593,0.8714,0.8593,0.8714,0.8836,0.8714,0.8227,0.7617,0.7255,0.6526,0.5916,0.5916,0.5904,0.5916,0.5916,0.5896,0.5863,0.581,0.579,0.5782,0.5782,0.5782,0.5741,0.5781,0.608,0.6699,0.7258,0.7913,0.8686,0.9567,1.0773,1.1546,1.1982,1.21,1.2318,1.2318,1.1437,1.0773,1.0562,0.9684,0.9133,0.8692,0.8478,0.8152,0.7487,0.6826,0.6826,1.5894,1.5918,1.5642,1.5561,1.5561,1.5285,1.5155,1.5139,1.5025,1.4968,1.4968,1.4968,1.4968,1.4968,1.4968,1.4935,1.4879,1.4814,1.4676,1.4473,1.444,1.4448,1.4464,1.4562,1.4554,1.4416,1.4261,1.4083,1.3937,1.3904,1.3904,1.3904,1.3904,1.3904,1.3888,1.3677,1.3506,1.336,1.3141,1.2962,1.2824,1.2491,1.2312,1.2272,1.1963,1.1776,1.1776,1.1776,1.1776,1.1776,1.0793,0.9572,0.7983,0.6888,0.6403,0.6403,0.6039,0.5916,0.628,0.6403,0.6888,0.7617,0.7861,0.7861,0.7983,0.8349,0.8111,0.7255,0.7378,0.7617,0.7011,0.6771,0.7133,0.7739,0.7617,0.7133,0.6526,0.6162,0.5916,0.5916,0.5916,0.5916,0.5916,0.5916,0.5904,0.588,0.5867,0.5867,0.5872,0.5863,0.5806,0.5684,0.5764,0.5822,0.6374,0.6614,0.7038,0.7919,0.9016,1.0006,1.0335,1.0664,1.0891,1.0562,0.9677,0.9127,0.8913,0.8472,0.7814,0.7371,0.7154,0.6826,0.6497,0.6386,0.6381,1.5902,1.5918,1.5707,1.5634,1.565,1.5358,1.5236,1.5212,1.5049,1.4968,1.4968,1.4968,1.4968,1.4968,1.4968,1.4968,1.4968,1.4968,1.4846,1.4659,1.4627,1.4627,1.4643,1.4741,1.4716,1.4529,1.4359,1.418,1.401,1.3937,1.3904,1.3904,1.3904,1.3904,1.3872,1.366,1.3482,1.3352,1.3124,1.2946,1.28,1.2556,1.2369,1.228,1.202,1.1849,1.1784,1.1413,1.1285,1.1042,0.9937,0.8477,0.6888,0.628,0.5916,0.5916,0.5916,0.6039,0.6403,0.6158,0.628,0.7128,0.7011,0.6888,0.6888,0.75,0.7016,0.628,0.6526,0.6648,0.6039,0.5916,0.6158,0.6766,0.6766,0.6526,0.6039,0.5916,0.5916,0.5916,0.5916,0.5916,0.5916,0.5916,0.5916,0.5916,0.5916,0.5916,0.5916,0.5916,0.5818,0.5725,0.5667,0.5586,0.5463,0.5522,0.5497,0.6376,0.7482,0.8244,0.8906,0.9127,0.9347,0.8803,0.8029,0.7697,0.7371,0.6927,0.6376,0.6158,0.6163,0.6163,0.6051,0.6051,0.6047,1.5943,1.5796,1.5788,1.5707,1.5569,1.5382,1.5293,1.5236,1.5074,1.4992,1.4976,1.4968,1.4968,1.4968,1.4968,1.4968,1.4968,1.4968,1.496,1.4927,1.4919,1.4911,1.4911,1.4895,1.4806,1.4676,1.4497,1.4343,1.4188,1.405,1.392,1.3937,1.3945,1.3904,1.3855,1.3563,1.3417,1.3336,1.3043,1.2881,1.2832,1.2653,1.2475,1.2312,1.2117,1.1808,1.1429,1.055,1.0058,0.9937,0.8471,0.7255,0.6162,0.5916,0.5916,0.5916,0.5916,0.628,0.6766,0.6403,0.628,0.7011,0.6526,0.5916,0.6039,0.6162,0.6162,0.5916,0.6039,0.6039,0.5916,0.5916,0.5916,0.5916,0.6039,0.6039,0.5916,0.5916,0.5916,0.5916,0.5916,0.5916,0.5916,0.5916,0.5916,0.5916,0.5916,0.5916,0.5916,0.5908,0.5867,0.579,0.5696,0.5598,0.5488,0.541,0.5386,0.5717,0.6492,0.6932,0.7476,0.7697,0.7808,0.7149,0.6831,0.6381,0.6154,0.5935,0.5824,0.5824,0.5828,0.5828,0.5717,0.5601,0.5262,1.6016,1.5975,1.5975,1.5951,1.5878,1.5707,1.5553,1.5431,1.5244,1.5082,1.4992,1.4968,1.4968,1.4968,1.4968,1.4968,1.4968,1.4968,1.4968,1.4968,1.4968,1.4968,1.4935,1.4838,1.4765,1.4692,1.4546,1.4408,1.4367,1.4294,1.4213,1.4107,1.4091,1.4026,1.3888,1.3669,1.3506,1.336,1.3149,1.2946,1.2824,1.267,1.2483,1.2312,1.2134,1.1579,1.0694,0.9079,0.8105,0.8105,0.7739,0.7011,0.6039,0.5916,0.5916,0.5916,0.5916,0.5916,0.6162,0.6039,0.6039,0.6162,0.6039,0.5916,0.5916,0.5916,0.5916,0.5916,0.5916,0.5916,0.5916,0.5916,0.5916,0.5916,0.5916,0.5916,0.5916,0.5916,0.5916,0.5916,0.5916,0.5916,0.5916,0.5916,0.5916,0.5916,0.5916,0.5916,0.5916,0.5912,0.5884,0.5794,0.5704,0.561,0.552,0.5435,0.5386,0.5382,0.5605,0.5721,0.6051,0.6163,0.627,0.6047,0.607,0.5855,0.5833,0.5712,0.5601,0.5266,0.5154,0.5043,0.5043,0.4927,0.4254,1.6048,1.6048,1.6048,1.6048,1.6024,1.5853,1.5675,1.5504,1.5317,1.5139,1.5,1.4968,1.4968,1.4968,1.4968,1.4968,1.4968,1.4968,1.4968,1.4968,1.4968,1.4968,1.4944,1.4854,1.4814,1.4797,1.4635,1.4562,1.4529,1.4473,1.4343,1.4205,1.418,1.4083,1.3896,1.3644,1.3482,1.3344,1.3124,1.2929,1.2832,1.2735,1.254,1.2226,1.1807,1.0791,0.9117,0.7983,0.7373,0.7373,0.7011,0.6526,0.6039,0.5916,0.5916,0.5916,0.5916,0.5916,0.5916,0.5916,0.5916,0.5916,0.5916,0.5916,0.5916,0.5916,0.5916,0.5916,0.5916,0.5916,0.5916,0.5916,0.5916,0.5916,0.5916,0.5916,0.5916,0.5916,0.5916,0.5916,0.5916,0.5916,0.5916,0.5916,0.5916,0.5916,0.5916,0.5916,0.5916,0.579,0.5529,0.5218,0.4797,0.4496,0.3983,0.3816,0.3891,0.4107,0.4211,0.4318,0.4856,0.5073,0.5286,0.5402,0.5418,0.531,0.517,0.5039,0.4592,0.4369,0.4257,0.3921,0.3807,0.3695,0.3134,1.6048,1.6048,1.6048,1.6048,1.6024,1.5878,1.5707,1.5504,1.5358,1.5163,1.5,1.4968,1.4968,1.4968,1.4968,1.4968,1.4968,1.4968,1.4968,1.4968,1.4968,1.4968,1.4968,1.4952,1.4935,1.4919,1.4797,1.4749,1.47,1.4562,1.4383,1.4261,1.4205,1.4075,1.3872,1.3563,1.3392,1.3311,1.3035,1.2873,1.284,1.28,1.2523,1.1884,1.0721,0.9456,0.806,0.7266,0.7133,0.725,0.6403,0.6039,0.5916,0.5916,0.5916,0.5916,0.5916,0.5916,0.5916,0.5916,0.5916,0.5916,0.5916,0.5916,0.5916,0.5916,0.5916,0.5916,0.5916,0.5916,0.5916,0.5916,0.5916,0.5916,0.5916,0.5916,0.5916,0.5916,0.5916,0.5916,0.5916,0.5916,0.5916,0.5916,0.5794,0.5172,0.5176,0.4926,0.4803,0.4435,0.4186,0.3804,0.3519,0.3125,0.2624,0.2012,0.2113,0.2334,0.256,0.2782,0.3888,0.4211,0.4644,0.4634,0.4058,0.4049,0.4375,0.403,0.3583,0.3357,0.3134,0.2463,0.2015,0.2017,0.1679,1.6048,1.6048,1.6048,1.6048,1.604,1.5999,1.5804,1.5512,1.5472,1.526,1.5025,1.4968,1.4968,1.4968,1.4968,1.4968,1.4968,1.4968,1.4968,1.4968,1.4968,1.4968,1.4968,1.4968,1.4968,1.4952,1.4935,1.4903,1.4862,1.4716,1.4554,1.4375,1.4221,1.4083,1.388,1.3563,1.3368,1.3311,1.3019,1.2848,1.2832,1.27,1.2326,1.1191,0.945,0.8193,0.7505,0.669,0.6285,0.6162,0.6039,0.5916,0.5916,0.5916,0.5916,0.5916,0.5916,0.5916,0.5916,0.5916,0.5916,0.5916,0.5916,0.5916,0.5916,0.5916,0.5916,0.5916,0.5916,0.5916,0.5916,0.5916,0.5916,0.5916,0.5916,0.5916,0.5916,0.5916,0.5916,0.5916,0.5916,0.5916,0.5794,0.5794,0.5421,0.4677,0.4186,0.3817,0.3569,0.32,0.2831,0.2585,0.2321,0.1936,0.1327,0.084,0.0717,0.0833,0.0832,0.1064,0.2098,0.2643,0.2746,0.2606,0.2468,0.269,0.3258,0.2688,0.2239,0.2015,0.1903,0.1456,0.1008,0.0672,0.0336,1.6048,1.6048,1.6048,1.6048,1.6048,1.604,1.5845,1.5561,1.5512,1.5309,1.5025,1.4968,1.4968,1.4968,1.4968,1.4968,1.4968,1.4968,1.4968,1.4968,1.4968,1.4968,1.4968,1.4968,1.4968,1.4968,1.4968,1.4968,1.4919,1.4789,1.4603,1.4432,1.4261,1.4083,1.388,1.3555,1.3384,1.3303,1.3027,1.2832,1.2832,1.27,1.1896,1.0263,0.8517,0.7276,0.6722,0.6188,0.5921,0.5916,0.5916,0.5916,0.5916,0.5916,0.5916,0.5916,0.5916,0.5916,0.5916,0.5916,0.5916,0.5916,0.5916,0.5916,0.5916,0.5916,0.5916,0.5916,0.5916,0.5916,0.5916,0.5916,0.5916,0.5916,0.5916,0.5916,0.5916,0.5916,0.5916,0.5916,0.5916,0.5421,0.5298,0.5172,0.4312,0.3323,0.3077,0.2708,0.2831,0.2462,0.1724,0.1353,0.1101,0.0731,0.0122,-0.0365,-0.0485,-0.0606,-0.0607,-0.0602,-0.0119,0.0235,0.0463,0.0801,0.1471,0.1919,0.2261,0.1576,0.0896,0.0784,0.056,0.0336,-0.0112,-0.0784,-0.0896,1.6048,1.6048,1.6048,1.6032,1.6008,1.5999,1.5788,1.5496,1.5472,1.5268,1.5017,1.4968,1.4968,1.4968,1.4968,1.4968,1.4968,1.4968,1.4968,1.4968,1.4968,1.4968,1.4968,1.4968,1.4968,1.4968,1.4968,1.4968,1.4919,1.4765,1.4562,1.4416,1.4213,1.4018,1.3815,1.3555,1.3344,1.3262,1.3003,1.2832,1.27,1.2561,1.1359,0.9331,0.7907,0.6916,0.6226,0.5937,0.5916,0.5916,0.5916,0.5916,0.5916,0.5916,0.5916,0.5916,0.5916,0.5916,0.5916,0.5916,0.5916,0.5916,0.5916,0.5916,0.5916,0.5916,0.5916,0.5916,0.5916,0.5916,0.5916,0.5916,0.5916,0.5916,0.5916,0.5916,0.5916,0.5916,0.5916,0.5794,0.5421,0.4803,0.4309,0.3937,0.2954,0.2093,0.1847,0.1601,0.1601,0.1354,0.0493,0.0123,-0.0246,-0.0368,-0.0858,-0.1225,-0.1345,-0.1713,-0.1842,-0.2074,-0.2179,-0.2399,-0.1889,0.0,0.0802,0.0911,0.0565,-0.0225,-0.0672,-0.0672,-0.1344,-0.2125,-0.2349,-0.2353,-0.2353,1.6048,1.6048,1.6048,1.5959,1.5837,1.5821,1.5634,1.5317,1.5301,1.5171,1.4992,1.4968,1.4968,1.4968,1.4968,1.4968,1.4968,1.4968,1.4968,1.4968,1.4968,1.4968,1.4968,1.4968,1.4968,1.4968,1.4952,1.4944,1.4887,1.4651,1.4497,1.4375,1.4115,1.388,1.3701,1.3474,1.3295,1.3173,1.2954,1.284,1.2437,1.1622,1.0478,0.8345,0.7203,0.6476,0.6143,0.5953,0.5916,0.5916,0.5916,0.5916,0.5916,0.5916,0.5916,0.5916,0.5916,0.5916,0.5916,0.5916,0.5916,0.5916,0.5916,0.5916,0.5916,0.5916,0.5916,0.5916,0.5916,0.5916,0.5916,0.5916,0.5916,0.5916,0.5916,0.5916,0.5916,0.5794,0.5671,0.5544,0.4926,0.3937,0.32,0.246,0.1601,0.0863,0.0493,-0.0,-0.037,-0.074,-0.1234,-0.1482,-0.1605,-0.1727,-0.1851,-0.1971,-0.2216,-0.258,-0.2952,-0.3441,-0.3791,-0.477,-0.4105,-0.2109,-0.1261,-0.136,-0.1802,-0.2241,-0.2463,-0.2684,-0.3689,-0.4693,-0.4247,-0.3804,-0.4136,1.6048,1.6048,1.6048,1.5943,1.5788,1.5772,1.5626,1.539,1.5277,1.5195,1.5098,1.5017,1.4968,1.4968,1.4968,1.4968,1.4968,1.4968,1.4968,1.4968,1.4968,1.4968,1.4968,1.4968,1.4968,1.4935,1.4887,1.4887,1.4919,1.4603,1.444,1.4343,1.4075,1.3815,1.3644,1.3465,1.3279,1.31,1.2929,1.2437,1.1901,1.0432,0.8887,0.7951,0.6846,0.6117,0.5998,0.5949,0.5916,0.5916,0.5916,0.5916,0.5916,0.5916,0.5916,0.5916,0.5916,0.5916,0.5916,0.5916,0.5916,0.5916,0.5916,0.5916,0.5916,0.5916,0.5916,0.5916,0.5916,0.5916,0.5916,0.5916,0.5916,0.5916,0.5916,0.5916,0.5671,0.5298,0.5049,0.4803,0.4309,0.32,0.1724,0.0985,0.0246,-0.037,-0.0864,-0.1481,-0.21,-0.2346,-0.259,-0.2958,-0.3204,-0.3451,-0.3451,-0.3328,-0.3328,-0.3694,-0.4183,-0.4671,-0.514,-0.5855,-0.553,-0.422,-0.3802,-0.3993,-0.3706,-0.4024,-0.4359,-0.4582,-0.5027,-0.5361,-0.5361,-0.5361,-0.5802,1.6048,1.6048,1.6008,1.5886,1.5731,1.5683,1.5553,1.5398,1.5236,1.5171,1.5163,1.5033,1.4968,1.4968,1.4968,1.4968,1.4968,1.4968,1.4968,1.4968,1.4968,1.4968,1.496,1.4927,1.4895,1.4854,1.4724,1.4749,1.4797,1.4529,1.4399,1.4278,1.4042,1.3782,1.3587,1.3433,1.3262,1.31,1.2656,1.1909,1.0439,0.8961,0.7822,0.7508,0.6704,0.6108,0.5982,0.5933,0.5921,0.5916,0.5916,0.5916,0.5916,0.5916,0.5916,0.5916,0.5916,0.5916,0.5916,0.5916,0.5916,0.5916,0.5916,0.5916,0.5916,0.5916,0.5916,0.5916,0.5916,0.5916,0.5916,0.5916,0.5916,0.5916,0.5916,0.5671,0.5176,0.4555,0.3692,0.3446,0.3323,0.2339,0.0739,-0.0247,-0.0863,-0.1356,-0.1851,-0.2341,-0.2958,-0.3451,-0.3817,-0.4429,-0.4794,-0.5284,-0.5284,-0.5165,-0.5042,-0.492,-0.5651,-0.6263,-0.6463,-0.6659,-0.6437,-0.672,-0.7057,-0.7217,-0.6611,-0.5699,-0.5699,-0.581,-0.5922,-0.6473,-0.7354,-0.7569,-0.7901,1.6048,1.6032,1.5869,1.5707,1.5536,1.539,1.5212,1.5065,1.5033,1.5,1.5049,1.4984,1.4968,1.4968,1.4968,1.4968,1.4968,1.4968,1.4968,1.4968,1.4968,1.496,1.4935,1.4797,1.4757,1.4708,1.4554,1.4578,1.4611,1.4375,1.4229,1.418,1.4018,1.375,1.3498,1.3441,1.3271,1.2958,1.1984,1.0439,0.8839,0.8169,0.7431,0.6814,0.6339,0.6121,0.601,0.5949,0.5921,0.5916,0.5916,0.5916,0.5916,0.5916,0.5916,0.5916,0.5916,0.5916,0.5916,0.5916,0.5916,0.5916,0.5916,0.5916,0.5916,0.5916,0.5916,0.5916,0.5916,0.5916,0.5916,0.5916,0.5916,0.5794,0.5548,0.5049,0.4309,0.3323,0.2462,0.1601,0.1354,0.0739,-0.0246,-0.1111,-0.1852,-0.2344,-0.2835,-0.3325,-0.3937,-0.4551,-0.5042,-0.5651,-0.6385,-0.6996,-0.7601,-0.7357,-0.7474,-0.6991,-0.7601,-0.821,-0.8527,-0.9074,-0.9646,-1.0044,-1.0252,-0.9518,-0.8231,-0.7421,-0.7054,-0.7493,-0.8183,-0.9051,-1.0014,-1.0123,-0.9926,1.5748,1.574,1.5658,1.552,1.5358,1.5268,1.5195,1.5106,1.5009,1.5025,1.5082,1.5,1.4968,1.4968,1.4968,1.4968,1.4968,1.4968,1.4968,1.496,1.496,1.4911,1.4822,1.4741,1.4676,1.4521,1.4391,1.4318,1.4335,1.4286,1.418,1.4148,1.3993,1.379,1.3522,1.3522,1.2933,1.191,1.0385,0.8978,0.803,0.7322,0.6859,0.6243,0.6161,0.6076,0.5998,0.5949,0.5916,0.5916,0.5916,0.5916,0.5916,0.5916,0.5916,0.5916,0.5916,0.5916,0.5916,0.5916,0.5916,0.5916,0.5916,0.5916,0.5916,0.5916,0.5916,0.5916,0.5916,0.5916,0.5916,0.5916,0.5421,0.5049,0.4926,0.394,0.3077,0.197,0.0985,0.0123,-0.074,-0.1109,-0.1724,-0.2708,-0.3325,-0.3448,-0.4186,-0.492,-0.5529,-0.6141,-0.6634,-0.7001,-0.7856,-0.8708,-0.9438,-0.9916,-1.0514,-1.0514,-1.0868,-1.1358,-1.1447,-1.1885,-1.2082,-1.2199,-1.2061,-1.1052,-0.9702,-0.9749,-0.9935,-1.0373,-1.0818,-1.1262,-1.1704,-1.1926,-1.1704,1.5423,1.5382,1.5423,1.5366,1.5236,1.5195,1.5163,1.5147,1.5025,1.5041,1.5106,1.5025,1.4968,1.4968,1.4968,1.4968,1.4968,1.4968,1.4968,1.496,1.4911,1.4822,1.4716,1.4643,1.4489,1.4367,1.4188,1.4131,1.4115,1.4099,1.4091,1.4107,1.3969,1.3807,1.3544,1.3037,1.2335,1.0399,0.908,0.8086,0.7512,0.6788,0.6444,0.6227,0.6133,0.6043,0.5965,0.5921,0.5916,0.5916,0.5916,0.5916,0.5916,0.5916,0.5916,0.5916,0.5916,0.5916,0.5916,0.5916,0.5916,0.5916,0.5916,0.5916,0.5916,0.5916,0.5916,0.5916,0.5916,0.5916,0.5794,0.5671,0.4926,0.4183,0.3692,0.2706,0.1724,0.0985,0.0,-0.0863,-0.1726,-0.271,-0.3323,-0.4426,-0.4794,-0.4671,-0.5284,-0.6385,-0.724,-0.8094,-0.8581,-0.9067,-1.0037,-1.077,-1.1374,-1.2097,-1.2946,-1.3426,-1.3784,-1.3775,-1.3269,-1.3223,-1.3296,-1.3489,-1.3933,-1.3739,-1.3041,-1.3031,-1.2907,-1.2347,-1.2123,-1.2683,-1.3131,-1.3466,-1.385,1.5163,1.5017,1.5187,1.5244,1.522,1.5057,1.4992,1.5009,1.4976,1.4976,1.5009,1.4968,1.4968,1.4968,1.4968,1.4968,1.4968,1.4968,1.4944,1.4895,1.4806,1.47,1.4578,1.4408,1.4237,1.4172,1.4042,1.3961,1.3937,1.3969,1.3945,1.3912,1.3626,1.3657,1.313,1.2226,1.0816,0.9228,0.8194,0.7593,0.7004,0.6556,0.6374,0.6292,0.621,0.6129,0.6043,0.5961,0.5916,0.5916,0.5916,0.5916,0.5916,0.5916,0.5916,0.5916,0.5916,0.5916,0.5916,0.5916,0.5916,0.5916,0.5916,0.5916,0.5916,0.5794,0.5794,0.5548,0.5298,0.5421,0.5176,0.4803,0.3937,0.32,0.2337,0.1354,0.0616,0.0246,-0.074,-0.1727,-0.2714,-0.3571,-0.4797,-0.5896,-0.6141,-0.6018,-0.7479,-0.8459,-0.9552,-1.0407,-1.0891,-1.1495,-1.2457,-1.3057,-1.3297,-1.3784,-1.4143,-1.4381,-1.4738,-1.4619,-1.4242,-1.4311,-1.5098,-1.5557,-1.6158,-1.6356,-1.6414,-1.5749,-1.5026,-1.3705,-1.3571,-1.4805,-1.5491,-1.5939,-1.6378,1.5033,1.4976,1.5041,1.5074,1.5065,1.4992,1.4968,1.4968,1.4968,1.4968,1.4968,1.4968,1.4968,1.4968,1.4968,1.4968,1.4952,1.4838,1.4822,1.4749,1.4643,1.4497,1.4359,1.4261,1.4131,1.4026,1.3928,1.3904,1.3904,1.3753,1.3325,1.3039,1.2896,1.2873,1.223,1.0992,0.9433,0.8623,0.7703,0.6948,0.6728,0.639,0.6325,0.6235,0.6149,0.6059,0.5974,0.5941,0.5921,0.5916,0.5916,0.5916,0.5916,0.5916,0.5916,0.5916,0.5916,0.5916,0.5916,0.5916,0.5916,0.5916,0.5916,0.5794,0.5544,0.5176,0.4803,0.4432,0.4063,0.394,0.3448,0.2954,0.2462,0.1724,0.0862,0.0123,-0.0616,-0.1109,-0.1848,-0.3081,-0.3817,-0.4429,-0.5896,-0.7245,-0.724,-0.7362,-0.9073,-1.0657,-1.1503,-1.2346,-1.2706,-1.3066,-1.3904,-1.4609,-1.4966,-1.5095,-1.5213,-1.5569,-1.5924,-1.6031,-1.6149,-1.6973,-1.7535,-1.804,-1.8144,-1.8262,-1.8288,-1.8008,-1.731,-1.6252,-1.6648,-1.7666,-1.813,-1.8155,-1.8433,1.4968,1.4968,1.4968,1.4968,1.4968,1.4968,1.4968,1.4968,1.4968,1.4968,1.4968,1.4968,1.4968,1.4968,1.4968,1.4919,1.4862,1.4773,1.4684,1.4578,1.444,1.4294,1.4196,1.4107,1.4018,1.3912,1.3904,1.3904,1.3904,1.3611,1.3039,1.2316,1.1599,1.1305,1.1136,0.9752,0.8364,0.7836,0.7186,0.6545,0.6455,0.6398,0.6296,0.621,0.6133,0.6043,0.5965,0.5921,0.5921,0.5916,0.5916,0.5916,0.5916,0.5916,0.5916,0.5916,0.5916,0.5916,0.5916,0.5916,0.5671,0.5298,0.5172,0.5049,0.4555,0.3815,0.3446,0.3323,0.2585,0.197,0.1847,0.1724,0.1354,0.0616,-0.0247,-0.1111,-0.1971,-0.2587,-0.3446,-0.4306,-0.5039,-0.6018,-0.7118,-0.8587,-0.9431,-0.9674,-1.0884,-1.2097,-1.2697,-1.3545,-1.4143,-1.45,-1.4976,-1.5688,-1.6397,-1.6632,-1.7103,-1.7806,-1.8156,-1.8402,-1.8752,-1.9229,-1.9252,-1.903,-1.9388,-2.0057,-1.9901,-1.9435,-1.9193,-1.9065,-1.9367,-1.9539,-1.9353,-1.9339,-1.964,1.4968,1.4968,1.4968,1.4968,1.4968,1.4968,1.4968,1.496,1.4944,1.4944,1.4935,1.4927,1.4935,1.4927,1.4903,1.483,1.4749,1.4684,1.4586,1.4424,1.4261,1.418,1.4115,1.4018,1.3945,1.3912,1.3904,1.3896,1.3753,1.2896,1.2323,1.1312,1.0017,0.9435,1.0149,0.9188,0.7945,0.7008,0.6643,0.6562,0.6488,0.6447,0.6341,0.6215,0.6166,0.608,0.5953,0.5921,0.5916,0.5916,0.5916,0.5916,0.5916,0.5916,0.5794,0.5671,0.5671,0.5671,0.5794,0.5794,0.5049,0.4186,0.394,0.3692,0.2585,0.2093,0.1969,0.197,0.1601,0.1601,0.1354,0.0863,0.0123,-0.0493,-0.1357,-0.2097,-0.2956,-0.3937,-0.4674,-0.5529,-0.6757,-0.7978,-0.883,-0.9802,-1.1261,-1.2105,-1.2946,-1.3665,-1.4262,-1.4966,-1.5806,-1.6279,-1.6632,-1.7337,-1.804,-1.8519,-1.8984,-1.9809,-2.004,-1.9924,-2.004,-2.0141,-2.013,-2.0047,-2.0472,-2.1115,-2.0943,-2.0714,-2.0643,-2.0701,-2.053,-2.0516,-2.0458,-2.053,-2.0911,1.4968,1.4968,1.4968,1.4968,1.4968,1.4968,1.4968,1.4944,1.4854,1.4789,1.4765,1.4676,1.4692,1.4724,1.4684,1.4643,1.4667,1.4408,1.4286,1.4253,1.4083,1.4018,1.3969,1.3953,1.3904,1.3904,1.3896,1.3325,1.2753,1.2029,1.1018,0.9867,0.8719,0.7856,0.7996,0.7666,0.7187,0.6956,0.6725,0.6639,0.6549,0.6476,0.6366,0.619,0.6178,0.6088,0.5933,0.5921,0.5916,0.5916,0.5916,0.5916,0.5916,0.5794,0.5421,0.4926,0.4555,0.4063,0.3694,0.3202,0.3077,0.2708,0.2585,0.2337,0.197,0.1108,0.0862,0.0493,0.0,-0.0247,-0.0864,-0.0987,-0.1481,-0.1603,-0.2344,-0.3079,-0.3937,-0.4794,-0.5651,-0.6757,-0.7856,-0.9316,-1.0528,-1.1848,-1.3177,-1.4133,-1.4966,-1.5569,-1.6161,-1.7103,-1.7923,-1.8169,-1.8635,-1.9216,-1.9693,-1.9795,-1.991,-2.0486,-2.0615,-2.05,-2.073,-2.1045,-2.1541,-2.1601,-2.1835,-2.207,-2.2122,-2.2189,-2.2266,-2.2214,-2.1987,-2.1873,-2.1744,-2.1972,-2.2266,1.4838,1.4789,1.4854,1.4838,1.4806,1.4911,1.4935,1.4854,1.4692,1.4611,1.4586,1.4481,1.4497,1.4554,1.4505,1.4408,1.4505,1.431,1.4107,1.4083,1.3969,1.3928,1.3912,1.3904,1.3904,1.3753,1.3325,1.2896,1.218,1.1312,1.0011,0.843,0.7421,0.7276,0.7131,0.7119,0.706,0.6819,0.6725,0.6651,0.6545,0.6439,0.6333,0.6215,0.6137,0.6063,0.5961,0.5916,0.5916,0.5916,0.5916,0.5916,0.5794,0.5298,0.4803,0.406,0.3323,0.2708,0.1724,0.1354,0.1231,0.0493,0.0985,0.0985,0.0739,-0.0247,-0.0617,-0.0987,-0.1605,-0.1852,-0.1975,-0.2099,-0.2712,-0.2958,-0.3694,-0.4429,-0.5406,-0.6385,-0.7362,-0.8343,-0.9438,-1.0891,-1.2457,-1.3885,-1.5332,-1.6042,-1.675,-1.7349,-1.7948,-1.8635,-1.9332,-1.9577,-1.9809,-2.027,-2.0486,-2.0716,-2.0945,-2.1174,-2.1288,-2.1303,-2.1556,-2.1979,-2.2639,-2.315,-2.3213,-2.3245,-2.3503,-2.3568,-2.3552,-2.3552,-2.3552,-2.3344,-2.3119,-2.3344,-2.3568,1.4594,1.4473,1.4627,1.4603,1.4513,1.4765,1.4814,1.4684,1.4505,1.4424,1.4416,1.4399,1.4391,1.4416,1.4399,1.4326,1.4229,1.4172,1.4058,1.3969,1.3912,1.3904,1.3904,1.3904,1.3753,1.3325,1.2896,1.2173,1.1743,1.0017,0.8285,0.7421,0.7135,0.6978,0.697,0.6949,0.6888,0.6803,0.6713,0.6631,0.6525,0.639,0.6292,0.619,0.6108,0.6027,0.5949,0.5916,0.5916,0.5794,0.5794,0.5794,0.5421,0.4555,0.406,0.3323,0.2462,0.1108,0.0246,-0.0,-0.0493,-0.0987,-0.0739,-0.111,-0.1234,-0.1482,-0.1482,-0.1729,-0.2099,-0.2222,-0.2222,-0.3081,-0.3937,-0.4548,-0.5287,-0.6141,-0.724,-0.8343,-0.9316,-1.0407,-1.1374,-1.2817,-1.448,-1.6042,-1.6985,-1.7923,-1.8506,-1.8971,-1.9435,-1.9795,-2.0256,-2.0371,-2.0615,-2.096,-2.1288,-2.1631,-2.1744,-2.1987,-2.2328,-2.2425,-2.267,-2.3039,-2.3595,-2.4082,-2.4224,-2.4384,-2.4658,-2.4872,-2.4872,-2.4872,-2.4872,-2.465,-2.4317,-2.4539,-2.4872,1.4481,1.444,1.4489,1.4481,1.4432,1.4416,1.444,1.4481,1.4326,1.4253,1.4245,1.4107,1.4148,1.4237,1.4115,1.4115,1.4099,1.405,1.3969,1.3912,1.3904,1.3904,1.3904,1.3761,1.3468,1.2896,1.2173,1.1168,0.9723,0.814,0.7566,0.7135,0.6978,0.6949,0.6917,0.6892,0.6839,0.6774,0.6676,0.659,0.6496,0.6374,0.6268,0.617,0.6084,0.5998,0.5941,0.5921,0.5916,0.5794,0.4926,0.4555,0.4432,0.32,0.2339,0.1108,-0.0,-0.1111,-0.1358,-0.1358,-0.1605,-0.2221,-0.2341,-0.2219,-0.2222,-0.2224,-0.2346,-0.2714,-0.3081,-0.3328,-0.3694,-0.4429,-0.5161,-0.5651,-0.6508,-0.7612,-0.8587,-0.968,-1.077,-1.2088,-1.3186,-1.4837,-1.6503,-1.7572,-1.8506,-1.9564,-2.0256,-2.0486,-2.0816,-2.106,-2.1174,-2.1288,-2.1531,-2.1873,-2.2328,-2.2667,-2.278,-2.2909,-2.3344,-2.3664,-2.4061,-2.4437,-2.4827,-2.5286,-2.5739,-2.5919,-2.59,-2.5954,-2.6063,-2.6063,-2.5936,-2.5845,-2.5735,-2.5954,-2.6063,1.4286,1.4237,1.4302,1.4335,1.4302,1.4148,1.4131,1.4188,1.4107,1.4066,1.4058,1.3961,1.3961,1.4042,1.3969,1.3961,1.4042,1.3969,1.3904,1.3904,1.3904,1.3904,1.3904,1.3468,1.2896,1.2173,1.1168,1.0011,0.8574,0.7711,0.699,0.6986,0.6966,0.6909,0.6851,0.6786,0.6717,0.666,0.659,0.6529,0.6431,0.6317,0.6202,0.6137,0.6051,0.5978,0.581,0.5798,0.5671,0.5298,0.406,0.3569,0.3207,0.1979,0.0621,-0.0498,-0.1246,-0.1745,-0.187,-0.1857,-0.2225,-0.2835,-0.3571,-0.3692,-0.3817,-0.394,-0.394,-0.394,-0.4429,-0.4794,-0.5284,-0.5774,-0.6263,-0.6752,-0.7734,-0.8836,-0.9923,-1.1012,-1.2217,-1.3646,-1.5074,-1.6738,-1.804,-1.8984,-1.9679,-2.0486,-2.1174,-2.1517,-2.1744,-2.2085,-2.2214,-2.2214,-2.2554,-2.2893,-2.3344,-2.3792,-2.3999,-2.4317,-2.4744,-2.5186,-2.5388,-2.5593,-2.5865,-2.6565,-2.7534,-2.7504,-2.7365,-2.7239,-2.7149,-2.7239,-2.7542,-2.7756,-2.7649,-2.7561,-2.7561,1.4058,1.3928,1.4083,1.4156,1.4131,1.3985,1.392,1.3904,1.392,1.3904,1.3912,1.3904,1.3912,1.3937,1.3904,1.3904,1.3945,1.3912,1.3904,1.3896,1.3904,1.3753,1.3325,1.2753,1.2029,1.1162,1.0155,0.9002,0.843,0.7566,0.6986,0.6982,0.6905,0.6851,0.6811,0.6692,0.6607,0.6529,0.6455,0.6382,0.6292,0.6166,0.6055,0.6059,0.5994,0.5798,0.5679,0.5429,0.5172,0.4186,0.333,0.2716,0.1494,0.0501,-0.0757,-0.1386,-0.189,-0.2262,-0.2378,-0.2486,-0.3209,-0.3694,-0.4306,-0.5039,-0.5529,-0.5165,-0.5042,-0.5165,-0.5529,-0.5896,-0.6385,-0.7845,-0.8696,-0.9182,-1.003,-1.1004,-1.1848,-1.3048,-1.4579,-1.6009,-1.7535,-1.9074,-1.9883,-2.0816,-2.106,-2.1616,-2.1858,-2.2312,-2.2877,-2.3231,-2.3328,-2.3328,-2.3456,-2.3888,-2.465,-2.5093,-2.5406,-2.5735,-2.6155,-2.6372,-2.659,-2.671,-2.6748,-2.7699,-2.8694,-2.8734,-2.8668,-2.8648,-2.884,-2.8946,-2.9242,-2.9891,-2.9786,-2.9577,-2.9262,1.3945,1.3904,1.3953,1.3969,1.3961,1.392,1.3904,1.3904,1.3904,1.3896,1.3896,1.3896,1.3888,1.388,1.388,1.388,1.3888,1.3896,1.3896,1.3896,1.3745,1.3302,1.2745,1.2022,1.1155,0.9867,0.8858,0.8117,0.7535,0.7115,0.6978,0.697,0.688,0.6807,0.6749,0.6623,0.6529,0.6419,0.6341,0.6276,0.6202,0.6141,0.6072,0.5942,0.5894,0.5218,0.484,0.4333,0.3579,0.2708,0.1496,0.0252,-0.1021,-0.1408,-0.1667,-0.2049,-0.229,-0.2789,-0.3403,-0.3748,-0.4333,-0.5659,-0.6512,-0.7118,-0.724,-0.6385,-0.6141,-0.6385,-0.6752,-0.724,-0.8094,-0.9788,-1.1125,-1.1727,-1.232,-1.3048,-1.3885,-1.5419,-1.6938,-1.848,-1.9998,-2.0945,-2.1759,-2.2343,-2.2539,-2.2652,-2.2667,-2.3119,-2.4128,-2.4684,-2.4761,-2.4761,-2.4445,-2.4889,-2.5643,-2.6173,-2.6608,-2.6717,-2.6915,-2.7257,-2.7688,-2.798,-2.839,-2.9036,-2.9638,-2.9743,-3.0037,-3.0557,-3.0639,-3.0618,-3.0927,-3.144,-3.1949,-3.1949,-3.144,1.3855,1.379,1.379,1.3782,1.3798,1.3863,1.3904,1.3904,1.3904,1.3855,1.379,1.379,1.3782,1.3782,1.379,1.3798,1.3815,1.3872,1.3823,1.3673,1.327,1.2686,1.2123,1.1266,1.0096,0.8801,0.8021,0.7429,0.6892,0.6868,0.686,0.6868,0.679,0.6717,0.6656,0.6574,0.6468,0.6329,0.6264,0.6082,0.6022,0.5942,0.5511,0.5383,0.4867,0.4226,0.3498,0.2997,0.2253,0.1129,-0.0127,-0.0892,-0.1802,-0.2075,-0.2602,-0.3118,-0.3489,-0.3853,-0.4852,-0.5434,-0.5986,-0.7326,-0.8049,-0.8559,-1.0044,-0.9431,-0.9188,-0.9431,-0.9667,-1.003,-1.111,-1.256,-1.2919,-1.3407,-1.3875,-1.447,-1.5998,-1.7861,-1.9372,-2.0916,-2.213,-2.2797,-2.355,-2.4154,-2.4449,-2.5179,-2.4884,-2.5001,-2.5745,-2.6154,-2.6336,-2.6391,-2.6173,-2.6391,-2.7257,-2.758,-2.7688,-2.7688,-2.7795,-2.8436,-2.8986,-2.9448,-2.9994,-3.0266,-3.0557,-3.0785,-3.1073,-3.1688,-3.2095,-3.2072,-3.2577,-3.3101,-3.3598,-3.3993,-3.3476,1.3734,1.362,1.3612,1.3628,1.3652,1.3766,1.3839,1.3855,1.3839,1.3742,1.3612,1.3571,1.3587,1.3612,1.3644,1.3644,1.3685,1.3774,1.3742,1.3436,1.2619,1.2023,1.1025,0.9894,0.8865,0.8111,0.7349,0.7059,0.679,0.6774,0.6758,0.6717,0.6656,0.659,0.6562,0.6496,0.6402,0.6197,0.6007,0.5835,0.5736,0.5628,0.5005,0.4357,0.3596,0.2995,0.2142,0.1394,0.0893,-0.0128,-0.1418,-0.2206,-0.2739,-0.3154,-0.4081,-0.4735,-0.5106,-0.5877,-0.6774,-0.7207,-0.8138,-0.9087,-0.943,-1.0348,-1.1946,-1.2371,-1.213,-1.25,-1.2733,-1.2817,-1.3775,-1.4599,-1.4847,-1.5548,-1.5902,-1.6586,-1.8571,-2.0371,-2.1885,-2.3383,-2.4007,-2.4679,-2.5341,-2.5857,-2.6399,-2.7164,-2.7621,-2.7716,-2.7914,-2.8033,-2.8095,-2.8301,-2.8329,-2.8648,-2.8966,-2.886,-2.888,-2.9092,-2.9323,-2.9869,-3.0391,-3.0681,-3.0991,-3.1073,-3.1359,-3.179,-3.2196,-3.2778,-3.3078,-3.3476,-3.4091,-3.4581,-3.4969,-3.5259,-3.5066,1.3457,1.3425,1.3425,1.3506,1.3612,1.353,1.3555,1.3652,1.3539,1.3449,1.3401,1.3279,1.3271,1.3425,1.3587,1.362,1.3571,1.352,1.3544,1.3388,1.2028,1.1181,1.0333,0.89,0.8028,0.7296,0.6864,0.6902,0.6713,0.6713,0.6754,0.6778,0.6639,0.6582,0.657,0.6496,0.6427,0.6225,0.5267,0.4847,0.4565,0.4517,0.4386,0.3732,0.2955,0.1679,0.0778,0.0387,-0.0515,-0.1422,-0.2348,-0.3159,-0.3838,-0.4652,-0.5587,-0.6502,-0.7003,-0.7893,-0.8768,-0.9221,-1.0276,-1.2097,-1.2532,-1.2908,-1.4013,-1.438,-1.4641,-1.5555,-1.5512,-1.455,-1.5245,-1.6301,-1.6891,-1.8519,-1.9345,-2.0357,-2.1858,-2.298,-2.412,-2.5057,-2.5577,-2.6355,-2.7211,-2.7591,-2.79,-2.8465,-2.8766,-2.8983,-2.963,-2.9823,-2.988,-3.0139,-3.0412,-3.037,-3.0391,-3.0057,-3.0078,-3.0516,-3.0806,-3.1094,-3.1483,-3.1869,-3.2174,-3.2252,-3.2655,-3.3155,-3.3575,-3.397,-3.4362,-3.4872,-3.5571,-3.6048,-3.6332,-3.6427,-3.6213]}]]